<?xml version="1.0" encoding="UTF-8" standalone="no" ?>
<gpx xmlns="http://www.topografix.com/GPX/1/1" xmlns:xsi="http://www.w3.org/2001/XMLSchema-instance" xsi:schemaLocation="http://www.topografix.com/GPX/1/1 http://www.topografix.com/GPX/1/1/gpx.xsd" version="1.1" creator="VisuGPX - https://www.visugpx.com">
  <metadata>
    <name>20241029 Epinay Montmain</name>
    <desc><![CDATA[Circuit autour de Montmain Montée au début du circuit difficile car ravinée à cause des pluies.]]></desc>
  </metadata>
  <trk>
    <name><![CDATA[SityTrail - 20241029 Epinay Montmain]]></name>
    <trkseg>
      <trkpt lat="49.41462" lon="1.22047">
        <ele>78</ele>
        <time>2024-10-29T12:42:45.106+00:00</time>
      </trkpt>
      <trkpt lat="49.4146" lon="1.22038">
        <ele>76</ele>
        <time>2024-10-29T12:46:48+00:00</time>
      </trkpt>
      <trkpt lat="49.41463" lon="1.22029">
        <ele>76</ele>
        <time>2024-10-29T12:46:53+00:00</time>
      </trkpt>
      <trkpt lat="49.41465" lon="1.22019">
        <ele>76</ele>
        <time>2024-10-29T12:46:57.698+00:00</time>
      </trkpt>
      <trkpt lat="49.41468" lon="1.22017">
        <ele>76</ele>
        <time>2024-10-29T12:47:02+00:00</time>
      </trkpt>
      <trkpt lat="49.41474" lon="1.22014">
        <ele>73</ele>
        <time>2024-10-29T12:47:06.321+00:00</time>
      </trkpt>
      <trkpt lat="49.41476" lon="1.22008">
        <ele>73</ele>
        <time>2024-10-29T12:47:11+00:00</time>
      </trkpt>
      <trkpt lat="49.41478" lon="1.22">
        <ele>73</ele>
        <time>2024-10-29T12:47:15.297+00:00</time>
      </trkpt>
      <trkpt lat="49.4148" lon="1.21992">
        <ele>73</ele>
        <time>2024-10-29T12:47:19.381+00:00</time>
      </trkpt>
      <trkpt lat="49.41482" lon="1.21985">
        <ele>70</ele>
        <time>2024-10-29T12:47:23.402+00:00</time>
      </trkpt>
      <trkpt lat="49.41485" lon="1.21978">
        <ele>70</ele>
        <time>2024-10-29T12:47:27.870+00:00</time>
      </trkpt>
      <trkpt lat="49.41487" lon="1.21971">
        <ele>70</ele>
        <time>2024-10-29T12:47:32.275+00:00</time>
      </trkpt>
      <trkpt lat="49.41489" lon="1.21962">
        <ele>70</ele>
        <time>2024-10-29T12:47:37.014+00:00</time>
      </trkpt>
      <trkpt lat="49.41491" lon="1.21954">
        <ele>69</ele>
        <time>2024-10-29T12:47:41.665+00:00</time>
      </trkpt>
      <trkpt lat="49.41493" lon="1.21947">
        <ele>69</ele>
        <time>2024-10-29T12:47:45.958+00:00</time>
      </trkpt>
      <trkpt lat="49.41493" lon="1.21939">
        <ele>69</ele>
        <time>2024-10-29T12:47:50.117+00:00</time>
      </trkpt>
      <trkpt lat="49.41495" lon="1.21932">
        <ele>69</ele>
        <time>2024-10-29T12:47:54.404+00:00</time>
      </trkpt>
      <trkpt lat="49.41497" lon="1.21924">
        <ele>69</ele>
        <time>2024-10-29T12:47:59+00:00</time>
      </trkpt>
      <trkpt lat="49.41498" lon="1.21915">
        <ele>69</ele>
        <time>2024-10-29T12:48:03.323+00:00</time>
      </trkpt>
      <trkpt lat="49.415" lon="1.21907">
        <ele>69</ele>
        <time>2024-10-29T12:48:07.638+00:00</time>
      </trkpt>
      <trkpt lat="49.41501" lon="1.219">
        <ele>68</ele>
        <time>2024-10-29T12:48:11.978+00:00</time>
      </trkpt>
      <trkpt lat="49.41503" lon="1.21893">
        <ele>68</ele>
        <time>2024-10-29T12:48:16.039+00:00</time>
      </trkpt>
      <trkpt lat="49.41505" lon="1.21885">
        <ele>68</ele>
        <time>2024-10-29T12:48:20.004+00:00</time>
      </trkpt>
      <trkpt lat="49.41507" lon="1.21875">
        <ele>68</ele>
        <time>2024-10-29T12:48:24.672+00:00</time>
      </trkpt>
      <trkpt lat="49.41509" lon="1.21869">
        <ele>68</ele>
        <time>2024-10-29T12:48:29+00:00</time>
      </trkpt>
      <trkpt lat="49.41512" lon="1.21868">
        <ele>68</ele>
        <time>2024-10-29T12:48:33.514+00:00</time>
      </trkpt>
      <trkpt lat="49.41512" lon="1.21866">
        <ele>68</ele>
        <time>2024-10-29T12:50:16+00:00</time>
      </trkpt>
      <trkpt lat="49.41515" lon="1.21872">
        <ele>65</ele>
        <time>2024-10-29T12:50:21+00:00</time>
      </trkpt>
      <trkpt lat="49.41516" lon="1.21879">
        <ele>65</ele>
        <time>2024-10-29T12:50:25+00:00</time>
      </trkpt>
      <trkpt lat="49.41519" lon="1.21887">
        <ele>65</ele>
        <time>2024-10-29T12:50:30+00:00</time>
      </trkpt>
      <trkpt lat="49.4152" lon="1.21892">
        <ele>65</ele>
        <time>2024-10-29T12:50:35+00:00</time>
      </trkpt>
      <trkpt lat="49.4152" lon="1.21898">
        <ele>65</ele>
        <time>2024-10-29T12:50:39+00:00</time>
      </trkpt>
      <trkpt lat="49.41521" lon="1.21904">
        <ele>66</ele>
        <time>2024-10-29T12:50:43+00:00</time>
      </trkpt>
      <trkpt lat="49.41522" lon="1.21913">
        <ele>66</ele>
        <time>2024-10-29T12:50:48+00:00</time>
      </trkpt>
      <trkpt lat="49.41523" lon="1.21925">
        <ele>66</ele>
        <time>2024-10-29T12:50:53+00:00</time>
      </trkpt>
      <trkpt lat="49.41524" lon="1.21935">
        <ele>67</ele>
        <time>2024-10-29T12:50:58+00:00</time>
      </trkpt>
      <trkpt lat="49.41524" lon="1.21942">
        <ele>67</ele>
        <time>2024-10-29T12:51:02+00:00</time>
      </trkpt>
      <trkpt lat="49.41524" lon="1.21948">
        <ele>67</ele>
        <time>2024-10-29T12:51:06+00:00</time>
      </trkpt>
      <trkpt lat="49.41525" lon="1.21956">
        <ele>67</ele>
        <time>2024-10-29T12:51:10.310+00:00</time>
      </trkpt>
      <trkpt lat="49.41525" lon="1.21963">
        <ele>69</ele>
        <time>2024-10-29T12:51:14.470+00:00</time>
      </trkpt>
      <trkpt lat="49.41526" lon="1.21973">
        <ele>69</ele>
        <time>2024-10-29T12:51:19+00:00</time>
      </trkpt>
      <trkpt lat="49.41526" lon="1.21982">
        <ele>69</ele>
        <time>2024-10-29T12:51:23.220+00:00</time>
      </trkpt>
      <trkpt lat="49.41526" lon="1.2199">
        <ele>70</ele>
        <time>2024-10-29T12:51:27.449+00:00</time>
      </trkpt>
      <trkpt lat="49.41526" lon="1.21999">
        <ele>70</ele>
        <time>2024-10-29T12:51:32+00:00</time>
      </trkpt>
      <trkpt lat="49.41525" lon="1.22007">
        <ele>70</ele>
        <time>2024-10-29T12:51:36.117+00:00</time>
      </trkpt>
      <trkpt lat="49.41524" lon="1.22016">
        <ele>70</ele>
        <time>2024-10-29T12:51:40.451+00:00</time>
      </trkpt>
      <trkpt lat="49.41524" lon="1.22025">
        <ele>70</ele>
        <time>2024-10-29T12:51:45+00:00</time>
      </trkpt>
      <trkpt lat="49.41525" lon="1.22033">
        <ele>70</ele>
        <time>2024-10-29T12:51:49.338+00:00</time>
      </trkpt>
      <trkpt lat="49.41524" lon="1.2204">
        <ele>70</ele>
        <time>2024-10-29T12:51:53.822+00:00</time>
      </trkpt>
      <trkpt lat="49.41524" lon="1.22045">
        <ele>71</ele>
        <time>2024-10-29T12:51:58.026+00:00</time>
      </trkpt>
      <trkpt lat="49.41523" lon="1.22052">
        <ele>71</ele>
        <time>2024-10-29T12:52:02.264+00:00</time>
      </trkpt>
      <trkpt lat="49.41523" lon="1.22061">
        <ele>71</ele>
        <time>2024-10-29T12:52:06.459+00:00</time>
      </trkpt>
      <trkpt lat="49.41523" lon="1.22069">
        <ele>71</ele>
        <time>2024-10-29T12:52:10.619+00:00</time>
      </trkpt>
      <trkpt lat="49.41522" lon="1.22077">
        <ele>70</ele>
        <time>2024-10-29T12:52:14.847+00:00</time>
      </trkpt>
      <trkpt lat="49.41522" lon="1.22084">
        <ele>70</ele>
        <time>2024-10-29T12:52:19.354+00:00</time>
      </trkpt>
      <trkpt lat="49.41521" lon="1.22091">
        <ele>70</ele>
        <time>2024-10-29T12:52:23.458+00:00</time>
      </trkpt>
      <trkpt lat="49.4152" lon="1.22099">
        <ele>70</ele>
        <time>2024-10-29T12:52:27.505+00:00</time>
      </trkpt>
      <trkpt lat="49.41518" lon="1.22108">
        <ele>70</ele>
        <time>2024-10-29T12:52:31.676+00:00</time>
      </trkpt>
      <trkpt lat="49.41517" lon="1.22116">
        <ele>70</ele>
        <time>2024-10-29T12:52:35.745+00:00</time>
      </trkpt>
      <trkpt lat="49.41516" lon="1.22123">
        <ele>70</ele>
        <time>2024-10-29T12:52:39.945+00:00</time>
      </trkpt>
      <trkpt lat="49.41515" lon="1.22131">
        <ele>69</ele>
        <time>2024-10-29T12:52:43.914+00:00</time>
      </trkpt>
      <trkpt lat="49.41515" lon="1.22137">
        <ele>69</ele>
        <time>2024-10-29T12:52:48.020+00:00</time>
      </trkpt>
      <trkpt lat="49.41515" lon="1.22145">
        <ele>69</ele>
        <time>2024-10-29T12:52:52.072+00:00</time>
      </trkpt>
      <trkpt lat="49.41515" lon="1.22153">
        <ele>69</ele>
        <time>2024-10-29T12:52:56.368+00:00</time>
      </trkpt>
      <trkpt lat="49.41514" lon="1.2216">
        <ele>69</ele>
        <time>2024-10-29T12:53:00.448+00:00</time>
      </trkpt>
      <trkpt lat="49.41513" lon="1.22169">
        <ele>73</ele>
        <time>2024-10-29T12:53:04.574+00:00</time>
      </trkpt>
      <trkpt lat="49.41512" lon="1.22178">
        <ele>73</ele>
        <time>2024-10-29T12:53:08.637+00:00</time>
      </trkpt>
      <trkpt lat="49.41511" lon="1.22183">
        <ele>74</ele>
        <time>2024-10-29T12:53:12.713+00:00</time>
      </trkpt>
      <trkpt lat="49.4151" lon="1.22191">
        <ele>74</ele>
        <time>2024-10-29T12:53:16.834+00:00</time>
      </trkpt>
      <trkpt lat="49.41507" lon="1.22205">
        <ele>74</ele>
        <time>2024-10-29T12:53:21.277+00:00</time>
      </trkpt>
      <trkpt lat="49.41507" lon="1.22212">
        <ele>75</ele>
        <time>2024-10-29T12:53:25.491+00:00</time>
      </trkpt>
      <trkpt lat="49.41506" lon="1.22219">
        <ele>75</ele>
        <time>2024-10-29T12:53:29.513+00:00</time>
      </trkpt>
      <trkpt lat="49.41504" lon="1.22226">
        <ele>75</ele>
        <time>2024-10-29T12:53:33.652+00:00</time>
      </trkpt>
      <trkpt lat="49.41503" lon="1.22233">
        <ele>75</ele>
        <time>2024-10-29T12:53:37.726+00:00</time>
      </trkpt>
      <trkpt lat="49.41502" lon="1.22241">
        <ele>75</ele>
        <time>2024-10-29T12:53:41.679+00:00</time>
      </trkpt>
      <trkpt lat="49.41501" lon="1.22249">
        <ele>75</ele>
        <time>2024-10-29T12:53:45.775+00:00</time>
      </trkpt>
      <trkpt lat="49.41501" lon="1.22257">
        <ele>75</ele>
        <time>2024-10-29T12:53:50.334+00:00</time>
      </trkpt>
      <trkpt lat="49.41499" lon="1.22266">
        <ele>75</ele>
        <time>2024-10-29T12:53:54.483+00:00</time>
      </trkpt>
      <trkpt lat="49.41498" lon="1.22274">
        <ele>75</ele>
        <time>2024-10-29T12:53:58.539+00:00</time>
      </trkpt>
      <trkpt lat="49.41497" lon="1.22283">
        <ele>75</ele>
        <time>2024-10-29T12:54:02.724+00:00</time>
      </trkpt>
      <trkpt lat="49.41495" lon="1.22293">
        <ele>73</ele>
        <time>2024-10-29T12:54:07.391+00:00</time>
      </trkpt>
      <trkpt lat="49.41494" lon="1.22303">
        <ele>73</ele>
        <time>2024-10-29T12:54:12.037+00:00</time>
      </trkpt>
      <trkpt lat="49.41492" lon="1.22312">
        <ele>73</ele>
        <time>2024-10-29T12:54:16.736+00:00</time>
      </trkpt>
      <trkpt lat="49.41492" lon="1.22321">
        <ele>71</ele>
        <time>2024-10-29T12:54:21+00:00</time>
      </trkpt>
      <trkpt lat="49.41491" lon="1.22328">
        <ele>71</ele>
        <time>2024-10-29T12:54:25.256+00:00</time>
      </trkpt>
      <trkpt lat="49.4149" lon="1.22335">
        <ele>71</ele>
        <time>2024-10-29T12:54:29.379+00:00</time>
      </trkpt>
      <trkpt lat="49.41488" lon="1.22343">
        <ele>71</ele>
        <time>2024-10-29T12:54:33.448+00:00</time>
      </trkpt>
      <trkpt lat="49.41487" lon="1.22351">
        <ele>69</ele>
        <time>2024-10-29T12:54:37.643+00:00</time>
      </trkpt>
      <trkpt lat="49.41486" lon="1.22359">
        <ele>77</ele>
        <time>2024-10-29T12:54:42.358+00:00</time>
      </trkpt>
      <trkpt lat="49.41485" lon="1.22368">
        <ele>77</ele>
        <time>2024-10-29T12:54:47+00:00</time>
      </trkpt>
      <trkpt lat="49.41484" lon="1.22376">
        <ele>75</ele>
        <time>2024-10-29T12:54:51.117+00:00</time>
      </trkpt>
      <trkpt lat="49.41483" lon="1.22384">
        <ele>75</ele>
        <time>2024-10-29T12:54:55.301+00:00</time>
      </trkpt>
      <trkpt lat="49.41482" lon="1.22394">
        <ele>75</ele>
        <time>2024-10-29T12:54:59.834+00:00</time>
      </trkpt>
      <trkpt lat="49.41481" lon="1.22402">
        <ele>75</ele>
        <time>2024-10-29T12:55:03.908+00:00</time>
      </trkpt>
      <trkpt lat="49.41481" lon="1.22409">
        <ele>72</ele>
        <time>2024-10-29T12:55:08.038+00:00</time>
      </trkpt>
      <trkpt lat="49.41481" lon="1.22417">
        <ele>72</ele>
        <time>2024-10-29T12:55:12.542+00:00</time>
      </trkpt>
      <trkpt lat="49.41479" lon="1.22427">
        <ele>72</ele>
        <time>2024-10-29T12:55:17+00:00</time>
      </trkpt>
      <trkpt lat="49.41478" lon="1.22432">
        <ele>69</ele>
        <time>2024-10-29T12:55:21.457+00:00</time>
      </trkpt>
      <trkpt lat="49.41476" lon="1.22439">
        <ele>69</ele>
        <time>2024-10-29T12:55:25.549+00:00</time>
      </trkpt>
      <trkpt lat="49.41476" lon="1.22446">
        <ele>69</ele>
        <time>2024-10-29T12:55:29.716+00:00</time>
      </trkpt>
      <trkpt lat="49.41476" lon="1.22454">
        <ele>69</ele>
        <time>2024-10-29T12:55:33.891+00:00</time>
      </trkpt>
      <trkpt lat="49.41476" lon="1.22461">
        <ele>67</ele>
        <time>2024-10-29T12:55:38+00:00</time>
      </trkpt>
      <trkpt lat="49.41476" lon="1.22468">
        <ele>67</ele>
        <time>2024-10-29T12:55:42.016+00:00</time>
      </trkpt>
      <trkpt lat="49.41475" lon="1.22475">
        <ele>67</ele>
        <time>2024-10-29T12:55:46.096+00:00</time>
      </trkpt>
      <trkpt lat="49.41475" lon="1.22483">
        <ele>67</ele>
        <time>2024-10-29T12:55:50.233+00:00</time>
      </trkpt>
      <trkpt lat="49.41475" lon="1.22491">
        <ele>67</ele>
        <time>2024-10-29T12:55:54.255+00:00</time>
      </trkpt>
      <trkpt lat="49.41475" lon="1.22498">
        <ele>67</ele>
        <time>2024-10-29T12:55:58.448+00:00</time>
      </trkpt>
      <trkpt lat="49.41476" lon="1.22506">
        <ele>67</ele>
        <time>2024-10-29T12:56:02.498+00:00</time>
      </trkpt>
      <trkpt lat="49.41476" lon="1.22513">
        <ele>67</ele>
        <time>2024-10-29T12:56:06.676+00:00</time>
      </trkpt>
      <trkpt lat="49.41477" lon="1.2252">
        <ele>67</ele>
        <time>2024-10-29T12:56:10.937+00:00</time>
      </trkpt>
      <trkpt lat="49.41478" lon="1.22528">
        <ele>67</ele>
        <time>2024-10-29T12:56:15.005+00:00</time>
      </trkpt>
      <trkpt lat="49.41479" lon="1.22537">
        <ele>67</ele>
        <time>2024-10-29T12:56:19.678+00:00</time>
      </trkpt>
      <trkpt lat="49.4148" lon="1.22544">
        <ele>68</ele>
        <time>2024-10-29T12:56:23.739+00:00</time>
      </trkpt>
      <trkpt lat="49.41481" lon="1.22553">
        <ele>68</ele>
        <time>2024-10-29T12:56:27.914+00:00</time>
      </trkpt>
      <trkpt lat="49.41481" lon="1.2256">
        <ele>68</ele>
        <time>2024-10-29T12:56:32.414+00:00</time>
      </trkpt>
      <trkpt lat="49.41479" lon="1.22567">
        <ele>68</ele>
        <time>2024-10-29T12:56:37+00:00</time>
      </trkpt>
      <trkpt lat="49.41478" lon="1.22575">
        <ele>68</ele>
        <time>2024-10-29T12:56:41.676+00:00</time>
      </trkpt>
      <trkpt lat="49.41476" lon="1.22582">
        <ele>68</ele>
        <time>2024-10-29T12:56:45.697+00:00</time>
      </trkpt>
      <trkpt lat="49.41474" lon="1.2259">
        <ele>68</ele>
        <time>2024-10-29T12:56:49.823+00:00</time>
      </trkpt>
      <trkpt lat="49.41473" lon="1.22599">
        <ele>68</ele>
        <time>2024-10-29T12:56:54.446+00:00</time>
      </trkpt>
      <trkpt lat="49.41472" lon="1.22608">
        <ele>68</ele>
        <time>2024-10-29T12:56:59.027+00:00</time>
      </trkpt>
      <trkpt lat="49.4147" lon="1.22617">
        <ele>68</ele>
        <time>2024-10-29T12:57:03.644+00:00</time>
      </trkpt>
      <trkpt lat="49.41469" lon="1.22626">
        <ele>69</ele>
        <time>2024-10-29T12:57:08.276+00:00</time>
      </trkpt>
      <trkpt lat="49.41467" lon="1.22635">
        <ele>69</ele>
        <time>2024-10-29T12:57:12.987+00:00</time>
      </trkpt>
      <trkpt lat="49.41467" lon="1.22643">
        <ele>69</ele>
        <time>2024-10-29T12:57:17.561+00:00</time>
      </trkpt>
      <trkpt lat="49.41468" lon="1.22651">
        <ele>69</ele>
        <time>2024-10-29T12:57:22+00:00</time>
      </trkpt>
      <trkpt lat="49.41468" lon="1.22659">
        <ele>69</ele>
        <time>2024-10-29T12:57:26.117+00:00</time>
      </trkpt>
      <trkpt lat="49.41468" lon="1.22666">
        <ele>69</ele>
        <time>2024-10-29T12:57:30.334+00:00</time>
      </trkpt>
      <trkpt lat="49.41467" lon="1.22675">
        <ele>69</ele>
        <time>2024-10-29T12:57:34.891+00:00</time>
      </trkpt>
      <trkpt lat="49.41467" lon="1.22686">
        <ele>69</ele>
        <time>2024-10-29T12:57:39.527+00:00</time>
      </trkpt>
      <trkpt lat="49.41467" lon="1.22695">
        <ele>69</ele>
        <time>2024-10-29T12:57:43.926+00:00</time>
      </trkpt>
      <trkpt lat="49.41467" lon="1.22705">
        <ele>69</ele>
        <time>2024-10-29T12:57:48.498+00:00</time>
      </trkpt>
      <trkpt lat="49.41465" lon="1.22713">
        <ele>69</ele>
        <time>2024-10-29T12:57:52.956+00:00</time>
      </trkpt>
      <trkpt lat="49.41467" lon="1.22721">
        <ele>69</ele>
        <time>2024-10-29T12:57:57.526+00:00</time>
      </trkpt>
      <trkpt lat="49.41466" lon="1.2273">
        <ele>69</ele>
        <time>2024-10-29T12:58:02.011+00:00</time>
      </trkpt>
      <trkpt lat="49.41467" lon="1.22739">
        <ele>69</ele>
        <time>2024-10-29T12:58:06.572+00:00</time>
      </trkpt>
      <trkpt lat="49.41468" lon="1.22748">
        <ele>69</ele>
        <time>2024-10-29T12:58:10.969+00:00</time>
      </trkpt>
      <trkpt lat="49.41468" lon="1.22757">
        <ele>69</ele>
        <time>2024-10-29T12:58:15.584+00:00</time>
      </trkpt>
      <trkpt lat="49.41468" lon="1.22765">
        <ele>70</ele>
        <time>2024-10-29T12:58:20.001+00:00</time>
      </trkpt>
      <trkpt lat="49.4147" lon="1.22773">
        <ele>70</ele>
        <time>2024-10-29T12:58:24.193+00:00</time>
      </trkpt>
      <trkpt lat="49.41471" lon="1.22781">
        <ele>70</ele>
        <time>2024-10-29T12:58:28.222+00:00</time>
      </trkpt>
      <trkpt lat="49.41473" lon="1.2279">
        <ele>70</ele>
        <time>2024-10-29T12:58:32.915+00:00</time>
      </trkpt>
      <trkpt lat="49.41475" lon="1.22798">
        <ele>71</ele>
        <time>2024-10-29T12:58:37.494+00:00</time>
      </trkpt>
      <trkpt lat="49.41476" lon="1.22807">
        <ele>71</ele>
        <time>2024-10-29T12:58:42+00:00</time>
      </trkpt>
      <trkpt lat="49.41477" lon="1.22816">
        <ele>71</ele>
        <time>2024-10-29T12:58:46.676+00:00</time>
      </trkpt>
      <trkpt lat="49.41477" lon="1.22825">
        <ele>70</ele>
        <time>2024-10-29T12:58:51.234+00:00</time>
      </trkpt>
      <trkpt lat="49.41477" lon="1.22832">
        <ele>70</ele>
        <time>2024-10-29T12:58:55.355+00:00</time>
      </trkpt>
      <trkpt lat="49.41478" lon="1.22841">
        <ele>70</ele>
        <time>2024-10-29T12:58:59.484+00:00</time>
      </trkpt>
      <trkpt lat="49.41478" lon="1.22848">
        <ele>69</ele>
        <time>2024-10-29T12:59:03.514+00:00</time>
      </trkpt>
      <trkpt lat="49.41477" lon="1.22856">
        <ele>69</ele>
        <time>2024-10-29T12:59:07.697+00:00</time>
      </trkpt>
      <trkpt lat="49.41478" lon="1.22862">
        <ele>69</ele>
        <time>2024-10-29T12:59:11.979+00:00</time>
      </trkpt>
      <trkpt lat="49.41481" lon="1.22862">
        <ele>69</ele>
        <time>2024-10-29T12:59:16+00:00</time>
      </trkpt>
      <trkpt lat="49.41485" lon="1.22859">
        <ele>69</ele>
        <time>2024-10-29T12:59:20.544+00:00</time>
      </trkpt>
      <trkpt lat="49.41489" lon="1.22855">
        <ele>69</ele>
        <time>2024-10-29T12:59:25+00:00</time>
      </trkpt>
      <trkpt lat="49.4149" lon="1.2286">
        <ele>69</ele>
        <time>2024-10-29T12:59:29.538+00:00</time>
      </trkpt>
      <trkpt lat="49.41492" lon="1.22866">
        <ele>69</ele>
        <time>2024-10-29T12:59:33.609+00:00</time>
      </trkpt>
      <trkpt lat="49.41494" lon="1.22872">
        <ele>69</ele>
        <time>2024-10-29T12:59:38+00:00</time>
      </trkpt>
      <trkpt lat="49.41495" lon="1.22877">
        <ele>70</ele>
        <time>2024-10-29T12:59:42+00:00</time>
      </trkpt>
      <trkpt lat="49.41498" lon="1.22884">
        <ele>70</ele>
        <time>2024-10-29T12:59:46.957+00:00</time>
      </trkpt>
      <trkpt lat="49.41504" lon="1.22888">
        <ele>70</ele>
        <time>2024-10-29T12:59:51.615+00:00</time>
      </trkpt>
      <trkpt lat="49.41508" lon="1.2289">
        <ele>70</ele>
        <time>2024-10-29T12:59:56.169+00:00</time>
      </trkpt>
      <trkpt lat="49.41514" lon="1.22891">
        <ele>70</ele>
        <time>2024-10-29T13:00:00.912+00:00</time>
      </trkpt>
      <trkpt lat="49.41519" lon="1.22894">
        <ele>70</ele>
        <time>2024-10-29T13:00:05.497+00:00</time>
      </trkpt>
      <trkpt lat="49.41524" lon="1.22897">
        <ele>70</ele>
        <time>2024-10-29T13:00:10+00:00</time>
      </trkpt>
      <trkpt lat="49.41529" lon="1.22902">
        <ele>70</ele>
        <time>2024-10-29T13:00:14.513+00:00</time>
      </trkpt>
      <trkpt lat="49.41533" lon="1.22907">
        <ele>70</ele>
        <time>2024-10-29T13:00:18.678+00:00</time>
      </trkpt>
      <trkpt lat="49.41537" lon="1.22912">
        <ele>70</ele>
        <time>2024-10-29T13:00:22.899+00:00</time>
      </trkpt>
      <trkpt lat="49.41541" lon="1.22918">
        <ele>70</ele>
        <time>2024-10-29T13:00:27.010+00:00</time>
      </trkpt>
      <trkpt lat="49.41544" lon="1.22925">
        <ele>71</ele>
        <time>2024-10-29T13:00:31.400+00:00</time>
      </trkpt>
      <trkpt lat="49.41547" lon="1.2293">
        <ele>71</ele>
        <time>2024-10-29T13:00:35.617+00:00</time>
      </trkpt>
      <trkpt lat="49.41551" lon="1.22934">
        <ele>71</ele>
        <time>2024-10-29T13:00:40.020+00:00</time>
      </trkpt>
      <trkpt lat="49.41555" lon="1.22939">
        <ele>71</ele>
        <time>2024-10-29T13:00:44.234+00:00</time>
      </trkpt>
      <trkpt lat="49.41558" lon="1.22945">
        <ele>71</ele>
        <time>2024-10-29T13:00:48.616+00:00</time>
      </trkpt>
      <trkpt lat="49.41561" lon="1.22952">
        <ele>71</ele>
        <time>2024-10-29T13:00:52.809+00:00</time>
      </trkpt>
      <trkpt lat="49.41564" lon="1.22959">
        <ele>72</ele>
        <time>2024-10-29T13:00:57+00:00</time>
      </trkpt>
      <trkpt lat="49.41567" lon="1.22965">
        <ele>72</ele>
        <time>2024-10-29T13:01:01.198+00:00</time>
      </trkpt>
      <trkpt lat="49.4157" lon="1.22971">
        <ele>72</ele>
        <time>2024-10-29T13:01:05.473+00:00</time>
      </trkpt>
      <trkpt lat="49.41573" lon="1.22976">
        <ele>72</ele>
        <time>2024-10-29T13:01:09.798+00:00</time>
      </trkpt>
      <trkpt lat="49.41576" lon="1.2298">
        <ele>72</ele>
        <time>2024-10-29T13:01:13.947+00:00</time>
      </trkpt>
      <trkpt lat="49.4158" lon="1.22986">
        <ele>72</ele>
        <time>2024-10-29T13:01:18.003+00:00</time>
      </trkpt>
      <trkpt lat="49.41584" lon="1.22993">
        <ele>72</ele>
        <time>2024-10-29T13:01:22.446+00:00</time>
      </trkpt>
      <trkpt lat="49.41589" lon="1.22999">
        <ele>72</ele>
        <time>2024-10-29T13:01:26.639+00:00</time>
      </trkpt>
      <trkpt lat="49.41592" lon="1.23005">
        <ele>72</ele>
        <time>2024-10-29T13:01:30.984+00:00</time>
      </trkpt>
      <trkpt lat="49.41596" lon="1.23012">
        <ele>72</ele>
        <time>2024-10-29T13:01:35.255+00:00</time>
      </trkpt>
      <trkpt lat="49.416" lon="1.23018">
        <ele>73</ele>
        <time>2024-10-29T13:01:39.460+00:00</time>
      </trkpt>
      <trkpt lat="49.41604" lon="1.23023">
        <ele>73</ele>
        <time>2024-10-29T13:01:43.540+00:00</time>
      </trkpt>
      <trkpt lat="49.41609" lon="1.23029">
        <ele>73</ele>
        <time>2024-10-29T13:01:47.764+00:00</time>
      </trkpt>
      <trkpt lat="49.41612" lon="1.23034">
        <ele>73</ele>
        <time>2024-10-29T13:01:51.876+00:00</time>
      </trkpt>
      <trkpt lat="49.41616" lon="1.23038">
        <ele>73</ele>
        <time>2024-10-29T13:01:56.011+00:00</time>
      </trkpt>
      <trkpt lat="49.4162" lon="1.23043">
        <ele>73</ele>
        <time>2024-10-29T13:02:00.255+00:00</time>
      </trkpt>
      <trkpt lat="49.41624" lon="1.23047">
        <ele>73</ele>
        <time>2024-10-29T13:02:04.597+00:00</time>
      </trkpt>
      <trkpt lat="49.41628" lon="1.23052">
        <ele>73</ele>
        <time>2024-10-29T13:02:08.734+00:00</time>
      </trkpt>
      <trkpt lat="49.41632" lon="1.23055">
        <ele>73</ele>
        <time>2024-10-29T13:02:13+00:00</time>
      </trkpt>
      <trkpt lat="49.41637" lon="1.2306">
        <ele>73</ele>
        <time>2024-10-29T13:02:17.312+00:00</time>
      </trkpt>
      <trkpt lat="49.41641" lon="1.23064">
        <ele>73</ele>
        <time>2024-10-29T13:02:21.454+00:00</time>
      </trkpt>
      <trkpt lat="49.41645" lon="1.23068">
        <ele>73</ele>
        <time>2024-10-29T13:02:25.642+00:00</time>
      </trkpt>
      <trkpt lat="49.41649" lon="1.23073">
        <ele>74</ele>
        <time>2024-10-29T13:02:29.911+00:00</time>
      </trkpt>
      <trkpt lat="49.41654" lon="1.23077">
        <ele>74</ele>
        <time>2024-10-29T13:02:33.973+00:00</time>
      </trkpt>
      <trkpt lat="49.41658" lon="1.23081">
        <ele>74</ele>
        <time>2024-10-29T13:02:38.233+00:00</time>
      </trkpt>
      <trkpt lat="49.41662" lon="1.23084">
        <ele>74</ele>
        <time>2024-10-29T13:02:42.298+00:00</time>
      </trkpt>
      <trkpt lat="49.41667" lon="1.23088">
        <ele>74</ele>
        <time>2024-10-29T13:02:46.595+00:00</time>
      </trkpt>
      <trkpt lat="49.41672" lon="1.23091">
        <ele>74</ele>
        <time>2024-10-29T13:02:50.735+00:00</time>
      </trkpt>
      <trkpt lat="49.41676" lon="1.23094">
        <ele>74</ele>
        <time>2024-10-29T13:02:54.979+00:00</time>
      </trkpt>
      <trkpt lat="49.41681" lon="1.23098">
        <ele>75</ele>
        <time>2024-10-29T13:02:59.151+00:00</time>
      </trkpt>
      <trkpt lat="49.41686" lon="1.23103">
        <ele>75</ele>
        <time>2024-10-29T13:03:03.379+00:00</time>
      </trkpt>
      <trkpt lat="49.41691" lon="1.23107">
        <ele>75</ele>
        <time>2024-10-29T13:03:07.514+00:00</time>
      </trkpt>
      <trkpt lat="49.41695" lon="1.23111">
        <ele>75</ele>
        <time>2024-10-29T13:03:11.775+00:00</time>
      </trkpt>
      <trkpt lat="49.41698" lon="1.23116">
        <ele>75</ele>
        <time>2024-10-29T13:03:15.832+00:00</time>
      </trkpt>
      <trkpt lat="49.41701" lon="1.23122">
        <ele>75</ele>
        <time>2024-10-29T13:03:20.007+00:00</time>
      </trkpt>
      <trkpt lat="49.41705" lon="1.23127">
        <ele>77</ele>
        <time>2024-10-29T13:03:24.380+00:00</time>
      </trkpt>
      <trkpt lat="49.4171" lon="1.2313">
        <ele>76</ele>
        <time>2024-10-29T13:03:28.560+00:00</time>
      </trkpt>
      <trkpt lat="49.41714" lon="1.23135">
        <ele>76</ele>
        <time>2024-10-29T13:03:32.809+00:00</time>
      </trkpt>
      <trkpt lat="49.41719" lon="1.2314">
        <ele>76</ele>
        <time>2024-10-29T13:03:37.151+00:00</time>
      </trkpt>
      <trkpt lat="49.41722" lon="1.23145">
        <ele>76</ele>
        <time>2024-10-29T13:03:41.449+00:00</time>
      </trkpt>
      <trkpt lat="49.41726" lon="1.23148">
        <ele>76</ele>
        <time>2024-10-29T13:03:45.642+00:00</time>
      </trkpt>
      <trkpt lat="49.4173" lon="1.23152">
        <ele>76</ele>
        <time>2024-10-29T13:03:49.789+00:00</time>
      </trkpt>
      <trkpt lat="49.41735" lon="1.23156">
        <ele>78</ele>
        <time>2024-10-29T13:03:54+00:00</time>
      </trkpt>
      <trkpt lat="49.41739" lon="1.23159">
        <ele>77</ele>
        <time>2024-10-29T13:03:58.269+00:00</time>
      </trkpt>
      <trkpt lat="49.41743" lon="1.23163">
        <ele>77</ele>
        <time>2024-10-29T13:04:02.526+00:00</time>
      </trkpt>
      <trkpt lat="49.41748" lon="1.23165">
        <ele>77</ele>
        <time>2024-10-29T13:04:06.743+00:00</time>
      </trkpt>
      <trkpt lat="49.41754" lon="1.23168">
        <ele>77</ele>
        <time>2024-10-29T13:04:11.001+00:00</time>
      </trkpt>
      <trkpt lat="49.41761" lon="1.2317">
        <ele>77</ele>
        <time>2024-10-29T13:04:15.254+00:00</time>
      </trkpt>
      <trkpt lat="49.41768" lon="1.23175">
        <ele>75</ele>
        <time>2024-10-29T13:04:19.537+00:00</time>
      </trkpt>
      <trkpt lat="49.41772" lon="1.23177">
        <ele>75</ele>
        <time>2024-10-29T13:04:23.740+00:00</time>
      </trkpt>
      <trkpt lat="49.41777" lon="1.2318">
        <ele>75</ele>
        <time>2024-10-29T13:04:28+00:00</time>
      </trkpt>
      <trkpt lat="49.41781" lon="1.23183">
        <ele>77</ele>
        <time>2024-10-29T13:04:32.176+00:00</time>
      </trkpt>
      <trkpt lat="49.41785" lon="1.23186">
        <ele>77</ele>
        <time>2024-10-29T13:04:36.536+00:00</time>
      </trkpt>
      <trkpt lat="49.41789" lon="1.23189">
        <ele>77</ele>
        <time>2024-10-29T13:04:40.703+00:00</time>
      </trkpt>
      <trkpt lat="49.41793" lon="1.23194">
        <ele>76</ele>
        <time>2024-10-29T13:04:44.980+00:00</time>
      </trkpt>
      <trkpt lat="49.41797" lon="1.232">
        <ele>76</ele>
        <time>2024-10-29T13:04:49.254+00:00</time>
      </trkpt>
      <trkpt lat="49.41801" lon="1.23204">
        <ele>76</ele>
        <time>2024-10-29T13:04:53.379+00:00</time>
      </trkpt>
      <trkpt lat="49.41805" lon="1.23208">
        <ele>76</ele>
        <time>2024-10-29T13:04:57.698+00:00</time>
      </trkpt>
      <trkpt lat="49.41808" lon="1.23212">
        <ele>80</ele>
        <time>2024-10-29T13:05:01.756+00:00</time>
      </trkpt>
      <trkpt lat="49.4181" lon="1.23218">
        <ele>80</ele>
        <time>2024-10-29T13:05:06.195+00:00</time>
      </trkpt>
      <trkpt lat="49.41813" lon="1.23225">
        <ele>80</ele>
        <time>2024-10-29T13:05:10.497+00:00</time>
      </trkpt>
      <trkpt lat="49.41817" lon="1.23229">
        <ele>80</ele>
        <time>2024-10-29T13:05:14.678+00:00</time>
      </trkpt>
      <trkpt lat="49.41821" lon="1.23234">
        <ele>76</ele>
        <time>2024-10-29T13:05:18.979+00:00</time>
      </trkpt>
      <trkpt lat="49.41824" lon="1.23241">
        <ele>79</ele>
        <time>2024-10-29T13:05:23.106+00:00</time>
      </trkpt>
      <trkpt lat="49.41829" lon="1.23246">
        <ele>79</ele>
        <time>2024-10-29T13:05:27.347+00:00</time>
      </trkpt>
      <trkpt lat="49.41833" lon="1.23249">
        <ele>79</ele>
        <time>2024-10-29T13:05:31.451+00:00</time>
      </trkpt>
      <trkpt lat="49.41838" lon="1.23253">
        <ele>79</ele>
        <time>2024-10-29T13:05:35.697+00:00</time>
      </trkpt>
      <trkpt lat="49.41842" lon="1.23257">
        <ele>79</ele>
        <time>2024-10-29T13:05:39.796+00:00</time>
      </trkpt>
      <trkpt lat="49.41847" lon="1.23261">
        <ele>79</ele>
        <time>2024-10-29T13:05:44+00:00</time>
      </trkpt>
      <trkpt lat="49.41852" lon="1.23265">
        <ele>82</ele>
        <time>2024-10-29T13:05:48.219+00:00</time>
      </trkpt>
      <trkpt lat="49.41857" lon="1.2327">
        <ele>82</ele>
        <time>2024-10-29T13:05:52.457+00:00</time>
      </trkpt>
      <trkpt lat="49.41861" lon="1.23274">
        <ele>82</ele>
        <time>2024-10-29T13:05:56.608+00:00</time>
      </trkpt>
      <trkpt lat="49.41866" lon="1.23276">
        <ele>82</ele>
        <time>2024-10-29T13:06:00.865+00:00</time>
      </trkpt>
      <trkpt lat="49.41871" lon="1.2328">
        <ele>82</ele>
        <time>2024-10-29T13:06:04.925+00:00</time>
      </trkpt>
      <trkpt lat="49.41875" lon="1.23283">
        <ele>79</ele>
        <time>2024-10-29T13:06:09+00:00</time>
      </trkpt>
      <trkpt lat="49.4188" lon="1.23286">
        <ele>79</ele>
        <time>2024-10-29T13:06:13.184+00:00</time>
      </trkpt>
      <trkpt lat="49.41885" lon="1.23288">
        <ele>79</ele>
        <time>2024-10-29T13:06:17.293+00:00</time>
      </trkpt>
      <trkpt lat="49.41891" lon="1.23289">
        <ele>79</ele>
        <time>2024-10-29T13:06:22+00:00</time>
      </trkpt>
      <trkpt lat="49.41894" lon="1.23293">
        <ele>83</ele>
        <time>2024-10-29T13:06:26.005+00:00</time>
      </trkpt>
      <trkpt lat="49.41898" lon="1.23297">
        <ele>83</ele>
        <time>2024-10-29T13:06:30.297+00:00</time>
      </trkpt>
      <trkpt lat="49.41903" lon="1.233">
        <ele>78</ele>
        <time>2024-10-29T13:06:34.450+00:00</time>
      </trkpt>
      <trkpt lat="49.41909" lon="1.23303">
        <ele>78</ele>
        <time>2024-10-29T13:06:38.508+00:00</time>
      </trkpt>
      <trkpt lat="49.41915" lon="1.23309">
        <ele>78</ele>
        <time>2024-10-29T13:06:42.835+00:00</time>
      </trkpt>
      <trkpt lat="49.41919" lon="1.23312">
        <ele>78</ele>
        <time>2024-10-29T13:06:46.936+00:00</time>
      </trkpt>
      <trkpt lat="49.41923" lon="1.23315">
        <ele>78</ele>
        <time>2024-10-29T13:06:51.011+00:00</time>
      </trkpt>
      <trkpt lat="49.41927" lon="1.23317">
        <ele>78</ele>
        <time>2024-10-29T13:06:55.222+00:00</time>
      </trkpt>
      <trkpt lat="49.4193" lon="1.23318">
        <ele>78</ele>
        <time>2024-10-29T13:06:59.446+00:00</time>
      </trkpt>
      <trkpt lat="49.41933" lon="1.23322">
        <ele>79</ele>
        <time>2024-10-29T13:07:03.483+00:00</time>
      </trkpt>
      <trkpt lat="49.41938" lon="1.23325">
        <ele>79</ele>
        <time>2024-10-29T13:07:07.676+00:00</time>
      </trkpt>
      <trkpt lat="49.41942" lon="1.23329">
        <ele>79</ele>
        <time>2024-10-29T13:07:11.777+00:00</time>
      </trkpt>
      <trkpt lat="49.41948" lon="1.23333">
        <ele>79</ele>
        <time>2024-10-29T13:07:16+00:00</time>
      </trkpt>
      <trkpt lat="49.4195" lon="1.23336">
        <ele>79</ele>
        <time>2024-10-29T13:07:20.198+00:00</time>
      </trkpt>
      <trkpt lat="49.41955" lon="1.23338">
        <ele>79</ele>
        <time>2024-10-29T13:07:24.458+00:00</time>
      </trkpt>
      <trkpt lat="49.4196" lon="1.2334">
        <ele>79</ele>
        <time>2024-10-29T13:07:28.596+00:00</time>
      </trkpt>
      <trkpt lat="49.41965" lon="1.23344">
        <ele>79</ele>
        <time>2024-10-29T13:07:32.852+00:00</time>
      </trkpt>
      <trkpt lat="49.41969" lon="1.23348">
        <ele>80</ele>
        <time>2024-10-29T13:07:37.001+00:00</time>
      </trkpt>
      <trkpt lat="49.41973" lon="1.2335">
        <ele>80</ele>
        <time>2024-10-29T13:07:41+00:00</time>
      </trkpt>
      <trkpt lat="49.41978" lon="1.23353">
        <ele>80</ele>
        <time>2024-10-29T13:07:45.493+00:00</time>
      </trkpt>
      <trkpt lat="49.41983" lon="1.23355">
        <ele>80</ele>
        <time>2024-10-29T13:07:49.619+00:00</time>
      </trkpt>
      <trkpt lat="49.41988" lon="1.23358">
        <ele>81</ele>
        <time>2024-10-29T13:07:53.699+00:00</time>
      </trkpt>
      <trkpt lat="49.41993" lon="1.23361">
        <ele>81</ele>
        <time>2024-10-29T13:07:57.732+00:00</time>
      </trkpt>
      <trkpt lat="49.41999" lon="1.23364">
        <ele>81</ele>
        <time>2024-10-29T13:08:02.016+00:00</time>
      </trkpt>
      <trkpt lat="49.42004" lon="1.23367">
        <ele>81</ele>
        <time>2024-10-29T13:08:07+00:00</time>
      </trkpt>
      <trkpt lat="49.42009" lon="1.23371">
        <ele>81</ele>
        <time>2024-10-29T13:08:11.471+00:00</time>
      </trkpt>
      <trkpt lat="49.42013" lon="1.23374">
        <ele>81</ele>
        <time>2024-10-29T13:08:15.538+00:00</time>
      </trkpt>
      <trkpt lat="49.42017" lon="1.23377">
        <ele>80</ele>
        <time>2024-10-29T13:08:19.634+00:00</time>
      </trkpt>
      <trkpt lat="49.42021" lon="1.2338">
        <ele>80</ele>
        <time>2024-10-29T13:08:23.778+00:00</time>
      </trkpt>
      <trkpt lat="49.42026" lon="1.23382">
        <ele>80</ele>
        <time>2024-10-29T13:08:28.624+00:00</time>
      </trkpt>
      <trkpt lat="49.42031" lon="1.23385">
        <ele>80</ele>
        <time>2024-10-29T13:08:33.242+00:00</time>
      </trkpt>
      <trkpt lat="49.42035" lon="1.23387">
        <ele>80</ele>
        <time>2024-10-29T13:08:37.900+00:00</time>
      </trkpt>
      <trkpt lat="49.42039" lon="1.23392">
        <ele>80</ele>
        <time>2024-10-29T13:08:41.920+00:00</time>
      </trkpt>
      <trkpt lat="49.42044" lon="1.23395">
        <ele>81</ele>
        <time>2024-10-29T13:08:46.742+00:00</time>
      </trkpt>
      <trkpt lat="49.42049" lon="1.23399">
        <ele>81</ele>
        <time>2024-10-29T13:08:51.279+00:00</time>
      </trkpt>
      <trkpt lat="49.42054" lon="1.23401">
        <ele>81</ele>
        <time>2024-10-29T13:08:55.301+00:00</time>
      </trkpt>
      <trkpt lat="49.42054" lon="1.23405">
        <ele>81</ele>
        <time>2024-10-29T13:08:59.540+00:00</time>
      </trkpt>
      <trkpt lat="49.42058" lon="1.23405">
        <ele>81</ele>
        <time>2024-10-29T13:09:03.564+00:00</time>
      </trkpt>
      <trkpt lat="49.42062" lon="1.23407">
        <ele>81</ele>
        <time>2024-10-29T13:09:07.695+00:00</time>
      </trkpt>
      <trkpt lat="49.42067" lon="1.23409">
        <ele>81</ele>
        <time>2024-10-29T13:09:12.171+00:00</time>
      </trkpt>
      <trkpt lat="49.42071" lon="1.23411">
        <ele>84</ele>
        <time>2024-10-29T13:09:16.811+00:00</time>
      </trkpt>
      <trkpt lat="49.42075" lon="1.23413">
        <ele>84</ele>
        <time>2024-10-29T13:09:20.956+00:00</time>
      </trkpt>
      <trkpt lat="49.4208" lon="1.23415">
        <ele>84</ele>
        <time>2024-10-29T13:09:25.399+00:00</time>
      </trkpt>
      <trkpt lat="49.42086" lon="1.23428">
        <ele>84</ele>
        <time>2024-10-29T13:10:10+00:00</time>
      </trkpt>
      <trkpt lat="49.42085" lon="1.23429">
        <ele>84</ele>
        <time>2024-10-29T13:10:15+00:00</time>
      </trkpt>
      <trkpt lat="49.42085" lon="1.23429">
        <ele>84</ele>
        <time>2024-10-29T13:10:21+00:00</time>
      </trkpt>
      <trkpt lat="49.42086" lon="1.23432">
        <ele>85</ele>
        <time>2024-10-29T13:10:26+00:00</time>
      </trkpt>
      <trkpt lat="49.42085" lon="1.23437">
        <ele>85</ele>
        <time>2024-10-29T13:10:31+00:00</time>
      </trkpt>
      <trkpt lat="49.42088" lon="1.23442">
        <ele>85</ele>
        <time>2024-10-29T13:11:02+00:00</time>
      </trkpt>
      <trkpt lat="49.42092" lon="1.23447">
        <ele>85</ele>
        <time>2024-10-29T13:11:07+00:00</time>
      </trkpt>
      <trkpt lat="49.42094" lon="1.2345">
        <ele>85</ele>
        <time>2024-10-29T13:11:11+00:00</time>
      </trkpt>
      <trkpt lat="49.42094" lon="1.23451">
        <ele>85</ele>
        <time>2024-10-29T13:11:15+00:00</time>
      </trkpt>
      <trkpt lat="49.42095" lon="1.23455">
        <ele>85</ele>
        <time>2024-10-29T13:11:22+00:00</time>
      </trkpt>
      <trkpt lat="49.42094" lon="1.23462">
        <ele>86</ele>
        <time>2024-10-29T13:12:37+00:00</time>
      </trkpt>
      <trkpt lat="49.42096" lon="1.23465">
        <ele>86</ele>
        <time>2024-10-29T13:12:42+00:00</time>
      </trkpt>
      <trkpt lat="49.42098" lon="1.23468">
        <ele>88</ele>
        <time>2024-10-29T13:12:46+00:00</time>
      </trkpt>
      <trkpt lat="49.42102" lon="1.2347">
        <ele>88</ele>
        <time>2024-10-29T13:12:50+00:00</time>
      </trkpt>
      <trkpt lat="49.42107" lon="1.23469">
        <ele>88</ele>
        <time>2024-10-29T13:12:55+00:00</time>
      </trkpt>
      <trkpt lat="49.42111" lon="1.2347">
        <ele>88</ele>
        <time>2024-10-29T13:13:00+00:00</time>
      </trkpt>
      <trkpt lat="49.42117" lon="1.2347">
        <ele>88</ele>
        <time>2024-10-29T13:13:04.855+00:00</time>
      </trkpt>
      <trkpt lat="49.42121" lon="1.23471">
        <ele>88</ele>
        <time>2024-10-29T13:13:09+00:00</time>
      </trkpt>
      <trkpt lat="49.42125" lon="1.23473">
        <ele>88</ele>
        <time>2024-10-29T13:13:13.513+00:00</time>
      </trkpt>
      <trkpt lat="49.42132" lon="1.23476">
        <ele>88</ele>
        <time>2024-10-29T13:13:17.956+00:00</time>
      </trkpt>
      <trkpt lat="49.4214" lon="1.23477">
        <ele>88</ele>
        <time>2024-10-29T13:13:22.203+00:00</time>
      </trkpt>
      <trkpt lat="49.42146" lon="1.23478">
        <ele>88</ele>
        <time>2024-10-29T13:13:26.585+00:00</time>
      </trkpt>
      <trkpt lat="49.42154" lon="1.2348">
        <ele>88</ele>
        <time>2024-10-29T13:13:30.844+00:00</time>
      </trkpt>
      <trkpt lat="49.42158" lon="1.23482">
        <ele>88</ele>
        <time>2024-10-29T13:13:35.322+00:00</time>
      </trkpt>
      <trkpt lat="49.42163" lon="1.23484">
        <ele>88</ele>
        <time>2024-10-29T13:13:39.616+00:00</time>
      </trkpt>
      <trkpt lat="49.42168" lon="1.23485">
        <ele>88</ele>
        <time>2024-10-29T13:13:44+00:00</time>
      </trkpt>
      <trkpt lat="49.42174" lon="1.23485">
        <ele>88</ele>
        <time>2024-10-29T13:13:48.311+00:00</time>
      </trkpt>
      <trkpt lat="49.42178" lon="1.23486">
        <ele>88</ele>
        <time>2024-10-29T13:13:52.844+00:00</time>
      </trkpt>
      <trkpt lat="49.42184" lon="1.23485">
        <ele>88</ele>
        <time>2024-10-29T13:13:57.334+00:00</time>
      </trkpt>
      <trkpt lat="49.42192" lon="1.23484">
        <ele>88</ele>
        <time>2024-10-29T13:14:01.838+00:00</time>
      </trkpt>
      <trkpt lat="49.42197" lon="1.23485">
        <ele>88</ele>
        <time>2024-10-29T13:14:06.334+00:00</time>
      </trkpt>
      <trkpt lat="49.42201" lon="1.23486">
        <ele>88</ele>
        <time>2024-10-29T13:14:10.664+00:00</time>
      </trkpt>
      <trkpt lat="49.42206" lon="1.23485">
        <ele>88</ele>
        <time>2024-10-29T13:14:15.217+00:00</time>
      </trkpt>
      <trkpt lat="49.42211" lon="1.23483">
        <ele>88</ele>
        <time>2024-10-29T13:14:19.564+00:00</time>
      </trkpt>
      <trkpt lat="49.42217" lon="1.23482">
        <ele>88</ele>
        <time>2024-10-29T13:14:23.958+00:00</time>
      </trkpt>
      <trkpt lat="49.42221" lon="1.23482">
        <ele>88</ele>
        <time>2024-10-29T13:14:28.219+00:00</time>
      </trkpt>
      <trkpt lat="49.42225" lon="1.23482">
        <ele>88</ele>
        <time>2024-10-29T13:14:32.690+00:00</time>
      </trkpt>
      <trkpt lat="49.4223" lon="1.2348">
        <ele>88</ele>
        <time>2024-10-29T13:14:37+00:00</time>
      </trkpt>
      <trkpt lat="49.42235" lon="1.2348">
        <ele>88</ele>
        <time>2024-10-29T13:14:41+00:00</time>
      </trkpt>
      <trkpt lat="49.42236" lon="1.23493">
        <ele>91</ele>
        <time>2024-10-29T13:15:47.415+00:00</time>
      </trkpt>
      <trkpt lat="49.42238" lon="1.23496">
        <ele>93</ele>
        <time>2024-10-29T13:15:52+00:00</time>
      </trkpt>
      <trkpt lat="49.42238" lon="1.23501">
        <ele>93</ele>
        <time>2024-10-29T13:15:56.726+00:00</time>
      </trkpt>
      <trkpt lat="49.42237" lon="1.23507">
        <ele>93</ele>
        <time>2024-10-29T13:16:01+00:00</time>
      </trkpt>
      <trkpt lat="49.42237" lon="1.23514">
        <ele>94</ele>
        <time>2024-10-29T13:16:06+00:00</time>
      </trkpt>
      <trkpt lat="49.42235" lon="1.23519">
        <ele>94</ele>
        <time>2024-10-29T13:16:10.459+00:00</time>
      </trkpt>
      <trkpt lat="49.42234" lon="1.23522">
        <ele>94</ele>
        <time>2024-10-29T13:16:14.939+00:00</time>
      </trkpt>
      <trkpt lat="49.42237" lon="1.23528">
        <ele>94</ele>
        <time>2024-10-29T13:16:19.442+00:00</time>
      </trkpt>
      <trkpt lat="49.42241" lon="1.23531">
        <ele>94</ele>
        <time>2024-10-29T13:16:24+00:00</time>
      </trkpt>
      <trkpt lat="49.42246" lon="1.23534">
        <ele>94</ele>
        <time>2024-10-29T13:16:28+00:00</time>
      </trkpt>
      <trkpt lat="49.4225" lon="1.23535">
        <ele>94</ele>
        <time>2024-10-29T13:16:32+00:00</time>
      </trkpt>
      <trkpt lat="49.42254" lon="1.23538">
        <ele>94</ele>
        <time>2024-10-29T13:16:36.526+00:00</time>
      </trkpt>
      <trkpt lat="49.42259" lon="1.23538">
        <ele>94</ele>
        <time>2024-10-29T13:16:41+00:00</time>
      </trkpt>
      <trkpt lat="49.42258" lon="1.23543">
        <ele>96</ele>
        <time>2024-10-29T13:16:58.956+00:00</time>
      </trkpt>
      <trkpt lat="49.42257" lon="1.23545">
        <ele>96</ele>
        <time>2024-10-29T13:17:03.470+00:00</time>
      </trkpt>
      <trkpt lat="49.42257" lon="1.23547">
        <ele>96</ele>
        <time>2024-10-29T13:17:08+00:00</time>
      </trkpt>
      <trkpt lat="49.42258" lon="1.23551">
        <ele>96</ele>
        <time>2024-10-29T13:17:12.460+00:00</time>
      </trkpt>
      <trkpt lat="49.42257" lon="1.23555">
        <ele>96</ele>
        <time>2024-10-29T13:17:16.717+00:00</time>
      </trkpt>
      <trkpt lat="49.42258" lon="1.23562">
        <ele>96</ele>
        <time>2024-10-29T13:17:21+00:00</time>
      </trkpt>
      <trkpt lat="49.42258" lon="1.23567">
        <ele>96</ele>
        <time>2024-10-29T13:17:25.735+00:00</time>
      </trkpt>
      <trkpt lat="49.42258" lon="1.23572">
        <ele>99</ele>
        <time>2024-10-29T13:17:30.341+00:00</time>
      </trkpt>
      <trkpt lat="49.42258" lon="1.23577">
        <ele>99</ele>
        <time>2024-10-29T13:17:34.776+00:00</time>
      </trkpt>
      <trkpt lat="49.4226" lon="1.2358">
        <ele>99</ele>
        <time>2024-10-29T13:17:39.037+00:00</time>
      </trkpt>
      <trkpt lat="49.42262" lon="1.23585">
        <ele>99</ele>
        <time>2024-10-29T13:17:44.013+00:00</time>
      </trkpt>
      <trkpt lat="49.42266" lon="1.23591">
        <ele>100</ele>
        <time>2024-10-29T13:17:48.446+00:00</time>
      </trkpt>
      <trkpt lat="49.42267" lon="1.23595">
        <ele>100</ele>
        <time>2024-10-29T13:17:52.822+00:00</time>
      </trkpt>
      <trkpt lat="49.42266" lon="1.23599">
        <ele>103</ele>
        <time>2024-10-29T13:17:56.859+00:00</time>
      </trkpt>
      <trkpt lat="49.42267" lon="1.23605">
        <ele>103</ele>
        <time>2024-10-29T13:18:01+00:00</time>
      </trkpt>
      <trkpt lat="49.42267" lon="1.23611">
        <ele>103</ele>
        <time>2024-10-29T13:18:05.658+00:00</time>
      </trkpt>
      <trkpt lat="49.42269" lon="1.23613">
        <ele>103</ele>
        <time>2024-10-29T13:18:09.935+00:00</time>
      </trkpt>
      <trkpt lat="49.42273" lon="1.2362">
        <ele>103</ele>
        <time>2024-10-29T13:18:19.002+00:00</time>
      </trkpt>
      <trkpt lat="49.42273" lon="1.23623">
        <ele>103</ele>
        <time>2024-10-29T13:18:23.653+00:00</time>
      </trkpt>
      <trkpt lat="49.42272" lon="1.23624">
        <ele>103</ele>
        <time>2024-10-29T13:18:28.154+00:00</time>
      </trkpt>
      <trkpt lat="49.42272" lon="1.2363">
        <ele>107</ele>
        <time>2024-10-29T13:18:32.844+00:00</time>
      </trkpt>
      <trkpt lat="49.42272" lon="1.23636">
        <ele>107</ele>
        <time>2024-10-29T13:18:37.483+00:00</time>
      </trkpt>
      <trkpt lat="49.42272" lon="1.2365">
        <ele>107</ele>
        <time>2024-10-29T13:19:00+00:00</time>
      </trkpt>
      <trkpt lat="49.42272" lon="1.23651">
        <ele>107</ele>
        <time>2024-10-29T13:19:04.505+00:00</time>
      </trkpt>
      <trkpt lat="49.42272" lon="1.23655">
        <ele>111</ele>
        <time>2024-10-29T13:19:08.795+00:00</time>
      </trkpt>
      <trkpt lat="49.4227" lon="1.23662">
        <ele>111</ele>
        <time>2024-10-29T13:19:12.916+00:00</time>
      </trkpt>
      <trkpt lat="49.42268" lon="1.23665">
        <ele>111</ele>
        <time>2024-10-29T13:19:17+00:00</time>
      </trkpt>
      <trkpt lat="49.42269" lon="1.23669">
        <ele>111</ele>
        <time>2024-10-29T13:20:29+00:00</time>
      </trkpt>
      <trkpt lat="49.4227" lon="1.23671">
        <ele>111</ele>
        <time>2024-10-29T13:20:33.911+00:00</time>
      </trkpt>
      <trkpt lat="49.4227" lon="1.23673">
        <ele>111</ele>
        <time>2024-10-29T13:20:38.515+00:00</time>
      </trkpt>
      <trkpt lat="49.4227" lon="1.23678">
        <ele>111</ele>
        <time>2024-10-29T13:20:42.985+00:00</time>
      </trkpt>
      <trkpt lat="49.42271" lon="1.23681">
        <ele>113</ele>
        <time>2024-10-29T13:20:47.019+00:00</time>
      </trkpt>
      <trkpt lat="49.4227" lon="1.23683">
        <ele>113</ele>
        <time>2024-10-29T13:20:51+00:00</time>
      </trkpt>
      <trkpt lat="49.42271" lon="1.23686">
        <ele>113</ele>
        <time>2024-10-29T13:20:56+00:00</time>
      </trkpt>
      <trkpt lat="49.42271" lon="1.23689">
        <ele>113</ele>
        <time>2024-10-29T13:21:00.564+00:00</time>
      </trkpt>
      <trkpt lat="49.4227" lon="1.23696">
        <ele>113</ele>
        <time>2024-10-29T13:21:04.863+00:00</time>
      </trkpt>
      <trkpt lat="49.42271" lon="1.23702">
        <ele>113</ele>
        <time>2024-10-29T13:21:09+00:00</time>
      </trkpt>
      <trkpt lat="49.4227" lon="1.23707">
        <ele>113</ele>
        <time>2024-10-29T13:21:13.732+00:00</time>
      </trkpt>
      <trkpt lat="49.4227" lon="1.23715">
        <ele>115</ele>
        <time>2024-10-29T13:21:17.810+00:00</time>
      </trkpt>
      <trkpt lat="49.42269" lon="1.23724">
        <ele>115</ele>
        <time>2024-10-29T13:21:21.970+00:00</time>
      </trkpt>
      <trkpt lat="49.42266" lon="1.23732">
        <ele>115</ele>
        <time>2024-10-29T13:21:26+00:00</time>
      </trkpt>
      <trkpt lat="49.42266" lon="1.23739">
        <ele>117</ele>
        <time>2024-10-29T13:21:30.944+00:00</time>
      </trkpt>
      <trkpt lat="49.42266" lon="1.23745">
        <ele>117</ele>
        <time>2024-10-29T13:21:35+00:00</time>
      </trkpt>
      <trkpt lat="49.42266" lon="1.23752">
        <ele>117</ele>
        <time>2024-10-29T13:21:40+00:00</time>
      </trkpt>
      <trkpt lat="49.42267" lon="1.23757">
        <ele>117</ele>
        <time>2024-10-29T13:21:44+00:00</time>
      </trkpt>
      <trkpt lat="49.42267" lon="1.23763">
        <ele>117</ele>
        <time>2024-10-29T13:21:53.019+00:00</time>
      </trkpt>
      <trkpt lat="49.42268" lon="1.23768">
        <ele>119</ele>
        <time>2024-10-29T13:21:58.015+00:00</time>
      </trkpt>
      <trkpt lat="49.4227" lon="1.23773">
        <ele>119</ele>
        <time>2024-10-29T13:22:02.595+00:00</time>
      </trkpt>
      <trkpt lat="49.4227" lon="1.23775">
        <ele>119</ele>
        <time>2024-10-29T13:22:07.398+00:00</time>
      </trkpt>
      <trkpt lat="49.4227" lon="1.23778">
        <ele>119</ele>
        <time>2024-10-29T13:22:11.838+00:00</time>
      </trkpt>
      <trkpt lat="49.42269" lon="1.23781">
        <ele>119</ele>
        <time>2024-10-29T13:22:15.847+00:00</time>
      </trkpt>
      <trkpt lat="49.42271" lon="1.23783">
        <ele>119</ele>
        <time>2024-10-29T13:22:20+00:00</time>
      </trkpt>
      <trkpt lat="49.42271" lon="1.23787">
        <ele>119</ele>
        <time>2024-10-29T13:22:24.460+00:00</time>
      </trkpt>
      <trkpt lat="49.42271" lon="1.23789">
        <ele>119</ele>
        <time>2024-10-29T13:22:28.582+00:00</time>
      </trkpt>
      <trkpt lat="49.42272" lon="1.23795">
        <ele>120</ele>
        <time>2024-10-29T13:22:32.834+00:00</time>
      </trkpt>
      <trkpt lat="49.42271" lon="1.23809">
        <ele>120</ele>
        <time>2024-10-29T13:23:00.952+00:00</time>
      </trkpt>
      <trkpt lat="49.42273" lon="1.23812">
        <ele>120</ele>
        <time>2024-10-29T13:23:05+00:00</time>
      </trkpt>
      <trkpt lat="49.42274" lon="1.23817">
        <ele>120</ele>
        <time>2024-10-29T13:23:09.686+00:00</time>
      </trkpt>
      <trkpt lat="49.42274" lon="1.23823">
        <ele>120</ele>
        <time>2024-10-29T13:23:14+00:00</time>
      </trkpt>
      <trkpt lat="49.42273" lon="1.23828">
        <ele>120</ele>
        <time>2024-10-29T13:23:18.401+00:00</time>
      </trkpt>
      <trkpt lat="49.42274" lon="1.23831">
        <ele>120</ele>
        <time>2024-10-29T13:23:22.820+00:00</time>
      </trkpt>
      <trkpt lat="49.42276" lon="1.23835">
        <ele>120</ele>
        <time>2024-10-29T13:23:27.015+00:00</time>
      </trkpt>
      <trkpt lat="49.42278" lon="1.23839">
        <ele>120</ele>
        <time>2024-10-29T13:23:32.019+00:00</time>
      </trkpt>
      <trkpt lat="49.4228" lon="1.23841">
        <ele>120</ele>
        <time>2024-10-29T13:23:36.420+00:00</time>
      </trkpt>
      <trkpt lat="49.42282" lon="1.23841">
        <ele>120</ele>
        <time>2024-10-29T13:23:41+00:00</time>
      </trkpt>
      <trkpt lat="49.42282" lon="1.23846">
        <ele>120</ele>
        <time>2024-10-29T13:23:45.728+00:00</time>
      </trkpt>
      <trkpt lat="49.4228" lon="1.23852">
        <ele>121</ele>
        <time>2024-10-29T13:23:50.008+00:00</time>
      </trkpt>
      <trkpt lat="49.42277" lon="1.23856">
        <ele>121</ele>
        <time>2024-10-29T13:23:55.012+00:00</time>
      </trkpt>
      <trkpt lat="49.42275" lon="1.2386">
        <ele>121</ele>
        <time>2024-10-29T13:23:59.924+00:00</time>
      </trkpt>
      <trkpt lat="49.42275" lon="1.23862">
        <ele>121</ele>
        <time>2024-10-29T13:24:04+00:00</time>
      </trkpt>
      <trkpt lat="49.42276" lon="1.23862">
        <ele>121</ele>
        <time>2024-10-29T13:24:08+00:00</time>
      </trkpt>
      <trkpt lat="49.42278" lon="1.23863">
        <ele>121</ele>
        <time>2024-10-29T13:24:12.598+00:00</time>
      </trkpt>
      <trkpt lat="49.42279" lon="1.23865">
        <ele>121</ele>
        <time>2024-10-29T13:24:16.922+00:00</time>
      </trkpt>
      <trkpt lat="49.42281" lon="1.23872">
        <ele>121</ele>
        <time>2024-10-29T13:24:21+00:00</time>
      </trkpt>
      <trkpt lat="49.42284" lon="1.23881">
        <ele>124</ele>
        <time>2024-10-29T13:24:26+00:00</time>
      </trkpt>
      <trkpt lat="49.42284" lon="1.23885">
        <ele>124</ele>
        <time>2024-10-29T13:24:30+00:00</time>
      </trkpt>
      <trkpt lat="49.42285" lon="1.2389">
        <ele>124</ele>
        <time>2024-10-29T13:24:34.693+00:00</time>
      </trkpt>
      <trkpt lat="49.42285" lon="1.23895">
        <ele>124</ele>
        <time>2024-10-29T13:24:39+00:00</time>
      </trkpt>
      <trkpt lat="49.42286" lon="1.23898">
        <ele>124</ele>
        <time>2024-10-29T13:24:43.023+00:00</time>
      </trkpt>
      <trkpt lat="49.42287" lon="1.23902">
        <ele>124</ele>
        <time>2024-10-29T13:24:48+00:00</time>
      </trkpt>
      <trkpt lat="49.42287" lon="1.23908">
        <ele>125</ele>
        <time>2024-10-29T13:24:53.019+00:00</time>
      </trkpt>
      <trkpt lat="49.42287" lon="1.23913">
        <ele>125</ele>
        <time>2024-10-29T13:24:57.618+00:00</time>
      </trkpt>
      <trkpt lat="49.42287" lon="1.23917">
        <ele>125</ele>
        <time>2024-10-29T13:25:01.778+00:00</time>
      </trkpt>
      <trkpt lat="49.42287" lon="1.23922">
        <ele>125</ele>
        <time>2024-10-29T13:25:05.983+00:00</time>
      </trkpt>
      <trkpt lat="49.42287" lon="1.23928">
        <ele>125</ele>
        <time>2024-10-29T13:25:10.920+00:00</time>
      </trkpt>
      <trkpt lat="49.4229" lon="1.23932">
        <ele>127</ele>
        <time>2024-10-29T13:25:15.698+00:00</time>
      </trkpt>
      <trkpt lat="49.42292" lon="1.23935">
        <ele>130</ele>
        <time>2024-10-29T13:25:20+00:00</time>
      </trkpt>
      <trkpt lat="49.42293" lon="1.23939">
        <ele>130</ele>
        <time>2024-10-29T13:25:24.458+00:00</time>
      </trkpt>
      <trkpt lat="49.42295" lon="1.23943">
        <ele>130</ele>
        <time>2024-10-29T13:25:28.480+00:00</time>
      </trkpt>
      <trkpt lat="49.42295" lon="1.23948">
        <ele>130</ele>
        <time>2024-10-29T13:25:33+00:00</time>
      </trkpt>
      <trkpt lat="49.42295" lon="1.23951">
        <ele>130</ele>
        <time>2024-10-29T13:25:38+00:00</time>
      </trkpt>
      <trkpt lat="49.42295" lon="1.23952">
        <ele>130</ele>
        <time>2024-10-29T13:25:42+00:00</time>
      </trkpt>
      <trkpt lat="49.42295" lon="1.23953">
        <ele>130</ele>
        <time>2024-10-29T13:25:46.637+00:00</time>
      </trkpt>
      <trkpt lat="49.42297" lon="1.23959">
        <ele>129</ele>
        <time>2024-10-29T13:25:51+00:00</time>
      </trkpt>
      <trkpt lat="49.42298" lon="1.23967">
        <ele>129</ele>
        <time>2024-10-29T13:25:55.754+00:00</time>
      </trkpt>
      <trkpt lat="49.42298" lon="1.23972">
        <ele>129</ele>
        <time>2024-10-29T13:26:00+00:00</time>
      </trkpt>
      <trkpt lat="49.423" lon="1.23975">
        <ele>129</ele>
        <time>2024-10-29T13:26:04+00:00</time>
      </trkpt>
      <trkpt lat="49.42301" lon="1.23979">
        <ele>129</ele>
        <time>2024-10-29T13:26:09+00:00</time>
      </trkpt>
      <trkpt lat="49.42303" lon="1.23984">
        <ele>129</ele>
        <time>2024-10-29T13:26:13.821+00:00</time>
      </trkpt>
      <trkpt lat="49.42304" lon="1.23988">
        <ele>130</ele>
        <time>2024-10-29T13:26:18.598+00:00</time>
      </trkpt>
      <trkpt lat="49.42302" lon="1.23996">
        <ele>130</ele>
        <time>2024-10-29T13:26:22.698+00:00</time>
      </trkpt>
      <trkpt lat="49.42301" lon="1.24002">
        <ele>130</ele>
        <time>2024-10-29T13:26:27.389+00:00</time>
      </trkpt>
      <trkpt lat="49.42302" lon="1.24006">
        <ele>130</ele>
        <time>2024-10-29T13:26:31.459+00:00</time>
      </trkpt>
      <trkpt lat="49.42304" lon="1.24009">
        <ele>130</ele>
        <time>2024-10-29T13:26:35.454+00:00</time>
      </trkpt>
      <trkpt lat="49.42306" lon="1.24014">
        <ele>132</ele>
        <time>2024-10-29T13:26:40+00:00</time>
      </trkpt>
      <trkpt lat="49.42307" lon="1.24021">
        <ele>132</ele>
        <time>2024-10-29T13:26:45.016+00:00</time>
      </trkpt>
      <trkpt lat="49.42307" lon="1.24026">
        <ele>132</ele>
        <time>2024-10-29T13:26:49+00:00</time>
      </trkpt>
      <trkpt lat="49.42307" lon="1.24033">
        <ele>132</ele>
        <time>2024-10-29T13:26:53.921+00:00</time>
      </trkpt>
      <trkpt lat="49.42307" lon="1.24038">
        <ele>132</ele>
        <time>2024-10-29T13:26:57.944+00:00</time>
      </trkpt>
      <trkpt lat="49.42308" lon="1.24045">
        <ele>133</ele>
        <time>2024-10-29T13:27:02.598+00:00</time>
      </trkpt>
      <trkpt lat="49.4231" lon="1.24049">
        <ele>133</ele>
        <time>2024-10-29T13:27:07+00:00</time>
      </trkpt>
      <trkpt lat="49.42311" lon="1.24054">
        <ele>133</ele>
        <time>2024-10-29T13:27:11+00:00</time>
      </trkpt>
      <trkpt lat="49.42311" lon="1.2406">
        <ele>133</ele>
        <time>2024-10-29T13:27:15.978+00:00</time>
      </trkpt>
      <trkpt lat="49.42312" lon="1.24064">
        <ele>133</ele>
        <time>2024-10-29T13:27:20+00:00</time>
      </trkpt>
      <trkpt lat="49.42311" lon="1.24067">
        <ele>133</ele>
        <time>2024-10-29T13:27:24+00:00</time>
      </trkpt>
      <trkpt lat="49.42309" lon="1.24069">
        <ele>133</ele>
        <time>2024-10-29T13:27:28+00:00</time>
      </trkpt>
      <trkpt lat="49.42309" lon="1.24072">
        <ele>135</ele>
        <time>2024-10-29T13:27:32.442+00:00</time>
      </trkpt>
      <trkpt lat="49.4231" lon="1.24077">
        <ele>135</ele>
        <time>2024-10-29T13:27:36.683+00:00</time>
      </trkpt>
      <trkpt lat="49.42309" lon="1.24083">
        <ele>135</ele>
        <time>2024-10-29T13:27:40.825+00:00</time>
      </trkpt>
      <trkpt lat="49.42307" lon="1.24086">
        <ele>135</ele>
        <time>2024-10-29T13:27:44.862+00:00</time>
      </trkpt>
      <trkpt lat="49.42304" lon="1.24089">
        <ele>135</ele>
        <time>2024-10-29T13:27:49.486+00:00</time>
      </trkpt>
      <trkpt lat="49.42302" lon="1.24093">
        <ele>135</ele>
        <time>2024-10-29T13:27:54+00:00</time>
      </trkpt>
      <trkpt lat="49.42301" lon="1.24098">
        <ele>137</ele>
        <time>2024-10-29T13:27:58.384+00:00</time>
      </trkpt>
      <trkpt lat="49.42301" lon="1.24104">
        <ele>137</ele>
        <time>2024-10-29T13:28:02.480+00:00</time>
      </trkpt>
      <trkpt lat="49.423" lon="1.2411">
        <ele>137</ele>
        <time>2024-10-29T13:28:07+00:00</time>
      </trkpt>
      <trkpt lat="49.42299" lon="1.24114">
        <ele>137</ele>
        <time>2024-10-29T13:32:14+00:00</time>
      </trkpt>
      <trkpt lat="49.423" lon="1.24115">
        <ele>137</ele>
        <time>2024-10-29T13:32:18+00:00</time>
      </trkpt>
      <trkpt lat="49.42296" lon="1.24122">
        <ele>137</ele>
        <time>2024-10-29T13:32:23+00:00</time>
      </trkpt>
      <trkpt lat="49.42295" lon="1.24131">
        <ele>139</ele>
        <time>2024-10-29T13:32:28+00:00</time>
      </trkpt>
      <trkpt lat="49.42294" lon="1.24137">
        <ele>139</ele>
        <time>2024-10-29T13:32:32.778+00:00</time>
      </trkpt>
      <trkpt lat="49.42292" lon="1.24144">
        <ele>139</ele>
        <time>2024-10-29T13:32:36.891+00:00</time>
      </trkpt>
      <trkpt lat="49.42293" lon="1.24152">
        <ele>139</ele>
        <time>2024-10-29T13:32:41.798+00:00</time>
      </trkpt>
      <trkpt lat="49.42293" lon="1.24159">
        <ele>141</ele>
        <time>2024-10-29T13:32:46.538+00:00</time>
      </trkpt>
      <trkpt lat="49.42293" lon="1.24164">
        <ele>141</ele>
        <time>2024-10-29T13:32:50.674+00:00</time>
      </trkpt>
      <trkpt lat="49.42293" lon="1.24169">
        <ele>141</ele>
        <time>2024-10-29T13:32:54.798+00:00</time>
      </trkpt>
      <trkpt lat="49.42294" lon="1.24173">
        <ele>141</ele>
        <time>2024-10-29T13:32:58.900+00:00</time>
      </trkpt>
      <trkpt lat="49.42295" lon="1.24178">
        <ele>141</ele>
        <time>2024-10-29T13:33:03.686+00:00</time>
      </trkpt>
      <trkpt lat="49.42294" lon="1.24184">
        <ele>141</ele>
        <time>2024-10-29T13:33:08.458+00:00</time>
      </trkpt>
      <trkpt lat="49.42292" lon="1.2419">
        <ele>141</ele>
        <time>2024-10-29T13:33:13+00:00</time>
      </trkpt>
      <trkpt lat="49.42292" lon="1.24195">
        <ele>138</ele>
        <time>2024-10-29T13:33:17.006+00:00</time>
      </trkpt>
      <trkpt lat="49.42291" lon="1.24201">
        <ele>138</ele>
        <time>2024-10-29T13:33:21.757+00:00</time>
      </trkpt>
      <trkpt lat="49.42291" lon="1.24208">
        <ele>138</ele>
        <time>2024-10-29T13:33:26.513+00:00</time>
      </trkpt>
      <trkpt lat="49.42293" lon="1.24212">
        <ele>140</ele>
        <time>2024-10-29T13:33:31+00:00</time>
      </trkpt>
      <trkpt lat="49.42292" lon="1.24218">
        <ele>140</ele>
        <time>2024-10-29T13:33:35.994+00:00</time>
      </trkpt>
      <trkpt lat="49.4229" lon="1.24224">
        <ele>137</ele>
        <time>2024-10-29T13:33:40.738+00:00</time>
      </trkpt>
      <trkpt lat="49.42288" lon="1.24229">
        <ele>137</ele>
        <time>2024-10-29T13:33:45.502+00:00</time>
      </trkpt>
      <trkpt lat="49.42287" lon="1.24233">
        <ele>137</ele>
        <time>2024-10-29T13:33:49.543+00:00</time>
      </trkpt>
      <trkpt lat="49.42285" lon="1.24238">
        <ele>139</ele>
        <time>2024-10-29T13:33:53.527+00:00</time>
      </trkpt>
      <trkpt lat="49.4228" lon="1.24242">
        <ele>139</ele>
        <time>2024-10-29T13:33:58+00:00</time>
      </trkpt>
      <trkpt lat="49.42281" lon="1.24247">
        <ele>139</ele>
        <time>2024-10-29T13:34:02.977+00:00</time>
      </trkpt>
      <trkpt lat="49.4228" lon="1.24247">
        <ele>139</ele>
        <time>2024-10-29T13:34:07.040+00:00</time>
      </trkpt>
      <trkpt lat="49.42277" lon="1.24248">
        <ele>139</ele>
        <time>2024-10-29T13:34:11.454+00:00</time>
      </trkpt>
      <trkpt lat="49.42274" lon="1.24251">
        <ele>139</ele>
        <time>2024-10-29T13:34:15.608+00:00</time>
      </trkpt>
      <trkpt lat="49.42271" lon="1.24253">
        <ele>139</ele>
        <time>2024-10-29T13:34:19.640+00:00</time>
      </trkpt>
      <trkpt lat="49.42267" lon="1.24258">
        <ele>139</ele>
        <time>2024-10-29T13:34:24+00:00</time>
      </trkpt>
      <trkpt lat="49.42265" lon="1.24263">
        <ele>139</ele>
        <time>2024-10-29T13:34:28.798+00:00</time>
      </trkpt>
      <trkpt lat="49.42262" lon="1.24269">
        <ele>141</ele>
        <time>2024-10-29T13:34:33.391+00:00</time>
      </trkpt>
      <trkpt lat="49.4226" lon="1.24274">
        <ele>141</ele>
        <time>2024-10-29T13:34:37.831+00:00</time>
      </trkpt>
      <trkpt lat="49.42258" lon="1.24279">
        <ele>141</ele>
        <time>2024-10-29T13:34:42+00:00</time>
      </trkpt>
      <trkpt lat="49.42256" lon="1.24283">
        <ele>141</ele>
        <time>2024-10-29T13:34:46.600+00:00</time>
      </trkpt>
      <trkpt lat="49.42254" lon="1.24287">
        <ele>141</ele>
        <time>2024-10-29T13:34:51.009+00:00</time>
      </trkpt>
      <trkpt lat="49.4225" lon="1.2429">
        <ele>141</ele>
        <time>2024-10-29T13:34:55+00:00</time>
      </trkpt>
      <trkpt lat="49.42247" lon="1.24294">
        <ele>142</ele>
        <time>2024-10-29T13:34:59.431+00:00</time>
      </trkpt>
      <trkpt lat="49.42244" lon="1.24298">
        <ele>142</ele>
        <time>2024-10-29T13:35:03.971+00:00</time>
      </trkpt>
      <trkpt lat="49.42239" lon="1.24304">
        <ele>142</ele>
        <time>2024-10-29T13:35:08.445+00:00</time>
      </trkpt>
      <trkpt lat="49.42236" lon="1.2431">
        <ele>143</ele>
        <time>2024-10-29T13:35:12.849+00:00</time>
      </trkpt>
      <trkpt lat="49.4223" lon="1.2432">
        <ele>143</ele>
        <time>2024-10-29T13:36:40+00:00</time>
      </trkpt>
      <trkpt lat="49.42225" lon="1.24318">
        <ele>143</ele>
        <time>2024-10-29T13:36:44+00:00</time>
      </trkpt>
      <trkpt lat="49.42222" lon="1.24316">
        <ele>143</ele>
        <time>2024-10-29T13:36:48.856+00:00</time>
      </trkpt>
      <trkpt lat="49.42218" lon="1.24316">
        <ele>143</ele>
        <time>2024-10-29T13:36:52.886+00:00</time>
      </trkpt>
      <trkpt lat="49.42214" lon="1.24312">
        <ele>143</ele>
        <time>2024-10-29T13:36:57.840+00:00</time>
      </trkpt>
      <trkpt lat="49.42211" lon="1.24311">
        <ele>143</ele>
        <time>2024-10-29T13:37:02+00:00</time>
      </trkpt>
      <trkpt lat="49.42208" lon="1.2431">
        <ele>145</ele>
        <time>2024-10-29T13:37:06.210+00:00</time>
      </trkpt>
      <trkpt lat="49.42204" lon="1.24309">
        <ele>145</ele>
        <time>2024-10-29T13:37:10.355+00:00</time>
      </trkpt>
      <trkpt lat="49.422" lon="1.24307">
        <ele>145</ele>
        <time>2024-10-29T13:37:14.494+00:00</time>
      </trkpt>
      <trkpt lat="49.42194" lon="1.24305">
        <ele>145</ele>
        <time>2024-10-29T13:37:19+00:00</time>
      </trkpt>
      <trkpt lat="49.42189" lon="1.24304">
        <ele>145</ele>
        <time>2024-10-29T13:37:23.015+00:00</time>
      </trkpt>
      <trkpt lat="49.42184" lon="1.24302">
        <ele>145</ele>
        <time>2024-10-29T13:37:27.542+00:00</time>
      </trkpt>
      <trkpt lat="49.42179" lon="1.243">
        <ele>147</ele>
        <time>2024-10-29T13:37:32.356+00:00</time>
      </trkpt>
      <trkpt lat="49.42174" lon="1.24299">
        <ele>147</ele>
        <time>2024-10-29T13:37:36.425+00:00</time>
      </trkpt>
      <trkpt lat="49.42169" lon="1.24296">
        <ele>147</ele>
        <time>2024-10-29T13:37:40.970+00:00</time>
      </trkpt>
      <trkpt lat="49.42165" lon="1.24293">
        <ele>147</ele>
        <time>2024-10-29T13:37:44.978+00:00</time>
      </trkpt>
      <trkpt lat="49.4216" lon="1.24288">
        <ele>146</ele>
        <time>2024-10-29T13:37:49.558+00:00</time>
      </trkpt>
      <trkpt lat="49.42154" lon="1.24288">
        <ele>146</ele>
        <time>2024-10-29T13:37:54.028+00:00</time>
      </trkpt>
      <trkpt lat="49.4215" lon="1.24289">
        <ele>147</ele>
        <time>2024-10-29T13:37:58.719+00:00</time>
      </trkpt>
      <trkpt lat="49.42145" lon="1.24287">
        <ele>147</ele>
        <time>2024-10-29T13:38:03.219+00:00</time>
      </trkpt>
      <trkpt lat="49.4214" lon="1.24284">
        <ele>147</ele>
        <time>2024-10-29T13:38:07.902+00:00</time>
      </trkpt>
      <trkpt lat="49.42135" lon="1.24282">
        <ele>147</ele>
        <time>2024-10-29T13:38:12.434+00:00</time>
      </trkpt>
      <trkpt lat="49.42131" lon="1.24282">
        <ele>147</ele>
        <time>2024-10-29T13:38:16.356+00:00</time>
      </trkpt>
      <trkpt lat="49.42126" lon="1.24281">
        <ele>147</ele>
        <time>2024-10-29T13:38:21+00:00</time>
      </trkpt>
      <trkpt lat="49.42121" lon="1.24279">
        <ele>149</ele>
        <time>2024-10-29T13:38:25.514+00:00</time>
      </trkpt>
      <trkpt lat="49.42116" lon="1.24276">
        <ele>149</ele>
        <time>2024-10-29T13:38:30+00:00</time>
      </trkpt>
      <trkpt lat="49.42112" lon="1.24273">
        <ele>149</ele>
        <time>2024-10-29T13:38:34+00:00</time>
      </trkpt>
      <trkpt lat="49.42108" lon="1.24272">
        <ele>149</ele>
        <time>2024-10-29T13:38:38+00:00</time>
      </trkpt>
      <trkpt lat="49.42104" lon="1.24271">
        <ele>149</ele>
        <time>2024-10-29T13:38:42.611+00:00</time>
      </trkpt>
      <trkpt lat="49.421" lon="1.24271">
        <ele>149</ele>
        <time>2024-10-29T13:38:47.010+00:00</time>
      </trkpt>
      <trkpt lat="49.42095" lon="1.24269">
        <ele>151</ele>
        <time>2024-10-29T13:38:51.731+00:00</time>
      </trkpt>
      <trkpt lat="49.4209" lon="1.24267">
        <ele>151</ele>
        <time>2024-10-29T13:38:56.464+00:00</time>
      </trkpt>
      <trkpt lat="49.42085" lon="1.24264">
        <ele>151</ele>
        <time>2024-10-29T13:39:00.915+00:00</time>
      </trkpt>
      <trkpt lat="49.42079" lon="1.24264">
        <ele>151</ele>
        <time>2024-10-29T13:39:05.631+00:00</time>
      </trkpt>
      <trkpt lat="49.42075" lon="1.24264">
        <ele>151</ele>
        <time>2024-10-29T13:39:10.004+00:00</time>
      </trkpt>
      <trkpt lat="49.4207" lon="1.24262">
        <ele>150</ele>
        <time>2024-10-29T13:39:14.823+00:00</time>
      </trkpt>
      <trkpt lat="49.42064" lon="1.24259">
        <ele>155</ele>
        <time>2024-10-29T13:39:19.332+00:00</time>
      </trkpt>
      <trkpt lat="49.42059" lon="1.24257">
        <ele>155</ele>
        <time>2024-10-29T13:39:24+00:00</time>
      </trkpt>
      <trkpt lat="49.42053" lon="1.24254">
        <ele>155</ele>
        <time>2024-10-29T13:39:28.661+00:00</time>
      </trkpt>
      <trkpt lat="49.42049" lon="1.24252">
        <ele>155</ele>
        <time>2024-10-29T13:39:33+00:00</time>
      </trkpt>
      <trkpt lat="49.42044" lon="1.24249">
        <ele>155</ele>
        <time>2024-10-29T13:39:37.710+00:00</time>
      </trkpt>
      <trkpt lat="49.42039" lon="1.24248">
        <ele>158</ele>
        <time>2024-10-29T13:39:42.361+00:00</time>
      </trkpt>
      <trkpt lat="49.42037" lon="1.24251">
        <ele>158</ele>
        <time>2024-10-29T13:39:46.878+00:00</time>
      </trkpt>
      <trkpt lat="49.42033" lon="1.24247">
        <ele>158</ele>
        <time>2024-10-29T13:39:51.357+00:00</time>
      </trkpt>
      <trkpt lat="49.42027" lon="1.24243">
        <ele>158</ele>
        <time>2024-10-29T13:39:55.799+00:00</time>
      </trkpt>
      <trkpt lat="49.42022" lon="1.24242">
        <ele>158</ele>
        <time>2024-10-29T13:40:00+00:00</time>
      </trkpt>
      <trkpt lat="49.42017" lon="1.24239">
        <ele>158</ele>
        <time>2024-10-29T13:40:04.600+00:00</time>
      </trkpt>
      <trkpt lat="49.4201" lon="1.24239">
        <ele>158</ele>
        <time>2024-10-29T13:40:08.996+00:00</time>
      </trkpt>
      <trkpt lat="49.42006" lon="1.2424">
        <ele>158</ele>
        <time>2024-10-29T13:40:13.302+00:00</time>
      </trkpt>
      <trkpt lat="49.42002" lon="1.24241">
        <ele>158</ele>
        <time>2024-10-29T13:40:17.484+00:00</time>
      </trkpt>
      <trkpt lat="49.41997" lon="1.24235">
        <ele>157</ele>
        <time>2024-10-29T13:40:21.755+00:00</time>
      </trkpt>
      <trkpt lat="49.41993" lon="1.24231">
        <ele>157</ele>
        <time>2024-10-29T13:40:26.254+00:00</time>
      </trkpt>
      <trkpt lat="49.41987" lon="1.2423">
        <ele>157</ele>
        <time>2024-10-29T13:40:30.698+00:00</time>
      </trkpt>
      <trkpt lat="49.41982" lon="1.24228">
        <ele>157</ele>
        <time>2024-10-29T13:40:35+00:00</time>
      </trkpt>
      <trkpt lat="49.41977" lon="1.24227">
        <ele>157</ele>
        <time>2024-10-29T13:40:39.618+00:00</time>
      </trkpt>
      <trkpt lat="49.41972" lon="1.24225">
        <ele>157</ele>
        <time>2024-10-29T13:40:43.888+00:00</time>
      </trkpt>
      <trkpt lat="49.41967" lon="1.24226">
        <ele>157</ele>
        <time>2024-10-29T13:40:48.549+00:00</time>
      </trkpt>
      <trkpt lat="49.41962" lon="1.24224">
        <ele>157</ele>
        <time>2024-10-29T13:40:52.982+00:00</time>
      </trkpt>
      <trkpt lat="49.41957" lon="1.24223">
        <ele>158</ele>
        <time>2024-10-29T13:40:57.457+00:00</time>
      </trkpt>
      <trkpt lat="49.41952" lon="1.24223">
        <ele>158</ele>
        <time>2024-10-29T13:41:01.923+00:00</time>
      </trkpt>
      <trkpt lat="49.41948" lon="1.2422">
        <ele>158</ele>
        <time>2024-10-29T13:41:06.301+00:00</time>
      </trkpt>
      <trkpt lat="49.41944" lon="1.24218">
        <ele>158</ele>
        <time>2024-10-29T13:41:10.714+00:00</time>
      </trkpt>
      <trkpt lat="49.41939" lon="1.24215">
        <ele>158</ele>
        <time>2024-10-29T13:41:15+00:00</time>
      </trkpt>
      <trkpt lat="49.41934" lon="1.24213">
        <ele>158</ele>
        <time>2024-10-29T13:41:19.606+00:00</time>
      </trkpt>
      <trkpt lat="49.4193" lon="1.2421">
        <ele>159</ele>
        <time>2024-10-29T13:41:23.958+00:00</time>
      </trkpt>
      <trkpt lat="49.41925" lon="1.24208">
        <ele>159</ele>
        <time>2024-10-29T13:41:28.514+00:00</time>
      </trkpt>
      <trkpt lat="49.41919" lon="1.24207">
        <ele>159</ele>
        <time>2024-10-29T13:41:32.914+00:00</time>
      </trkpt>
      <trkpt lat="49.41915" lon="1.24204">
        <ele>159</ele>
        <time>2024-10-29T13:41:37+00:00</time>
      </trkpt>
      <trkpt lat="49.41911" lon="1.24202">
        <ele>159</ele>
        <time>2024-10-29T13:41:41.570+00:00</time>
      </trkpt>
      <trkpt lat="49.41906" lon="1.242">
        <ele>159</ele>
        <time>2024-10-29T13:41:45.963+00:00</time>
      </trkpt>
      <trkpt lat="49.41901" lon="1.242">
        <ele>157</ele>
        <time>2024-10-29T13:41:50+00:00</time>
      </trkpt>
      <trkpt lat="49.41896" lon="1.24199">
        <ele>157</ele>
        <time>2024-10-29T13:41:54.731+00:00</time>
      </trkpt>
      <trkpt lat="49.41891" lon="1.24198">
        <ele>157</ele>
        <time>2024-10-29T13:41:59.025+00:00</time>
      </trkpt>
      <trkpt lat="49.41886" lon="1.24197">
        <ele>157</ele>
        <time>2024-10-29T13:42:03.447+00:00</time>
      </trkpt>
      <trkpt lat="49.41882" lon="1.24192">
        <ele>157</ele>
        <time>2024-10-29T13:42:07.844+00:00</time>
      </trkpt>
      <trkpt lat="49.41878" lon="1.24189">
        <ele>157</ele>
        <time>2024-10-29T13:42:12+00:00</time>
      </trkpt>
      <trkpt lat="49.41873" lon="1.24189">
        <ele>157</ele>
        <time>2024-10-29T13:42:15.957+00:00</time>
      </trkpt>
      <trkpt lat="49.41869" lon="1.24188">
        <ele>157</ele>
        <time>2024-10-29T13:42:20.347+00:00</time>
      </trkpt>
      <trkpt lat="49.41864" lon="1.24187">
        <ele>157</ele>
        <time>2024-10-29T13:42:24.563+00:00</time>
      </trkpt>
      <trkpt lat="49.4186" lon="1.24183">
        <ele>157</ele>
        <time>2024-10-29T13:42:28.926+00:00</time>
      </trkpt>
      <trkpt lat="49.41855" lon="1.24179">
        <ele>156</ele>
        <time>2024-10-29T13:42:33.435+00:00</time>
      </trkpt>
      <trkpt lat="49.4185" lon="1.24176">
        <ele>156</ele>
        <time>2024-10-29T13:42:37.734+00:00</time>
      </trkpt>
      <trkpt lat="49.41846" lon="1.24174">
        <ele>155</ele>
        <time>2024-10-29T13:42:42+00:00</time>
      </trkpt>
      <trkpt lat="49.4184" lon="1.24172">
        <ele>155</ele>
        <time>2024-10-29T13:42:46.457+00:00</time>
      </trkpt>
      <trkpt lat="49.41835" lon="1.24173">
        <ele>155</ele>
        <time>2024-10-29T13:42:50.709+00:00</time>
      </trkpt>
      <trkpt lat="49.4183" lon="1.24173">
        <ele>155</ele>
        <time>2024-10-29T13:42:54.995+00:00</time>
      </trkpt>
      <trkpt lat="49.41826" lon="1.24173">
        <ele>155</ele>
        <time>2024-10-29T13:42:59.360+00:00</time>
      </trkpt>
      <trkpt lat="49.41822" lon="1.2417">
        <ele>155</ele>
        <time>2024-10-29T13:43:03.755+00:00</time>
      </trkpt>
      <trkpt lat="49.41817" lon="1.24168">
        <ele>154</ele>
        <time>2024-10-29T13:43:08.223+00:00</time>
      </trkpt>
      <trkpt lat="49.41812" lon="1.24165">
        <ele>154</ele>
        <time>2024-10-29T13:43:12.558+00:00</time>
      </trkpt>
      <trkpt lat="49.41807" lon="1.24163">
        <ele>154</ele>
        <time>2024-10-29T13:43:16.958+00:00</time>
      </trkpt>
      <trkpt lat="49.41801" lon="1.2416">
        <ele>154</ele>
        <time>2024-10-29T13:43:21.310+00:00</time>
      </trkpt>
      <trkpt lat="49.41796" lon="1.24158">
        <ele>154</ele>
        <time>2024-10-29T13:43:25.778+00:00</time>
      </trkpt>
      <trkpt lat="49.41792" lon="1.24156">
        <ele>153</ele>
        <time>2024-10-29T13:43:30.197+00:00</time>
      </trkpt>
      <trkpt lat="49.41787" lon="1.24155">
        <ele>153</ele>
        <time>2024-10-29T13:43:34.676+00:00</time>
      </trkpt>
      <trkpt lat="49.41784" lon="1.24154">
        <ele>153</ele>
        <time>2024-10-29T13:43:39.176+00:00</time>
      </trkpt>
      <trkpt lat="49.41779" lon="1.24154">
        <ele>153</ele>
        <time>2024-10-29T13:43:43.608+00:00</time>
      </trkpt>
      <trkpt lat="49.41774" lon="1.24154">
        <ele>153</ele>
        <time>2024-10-29T13:43:48.002+00:00</time>
      </trkpt>
      <trkpt lat="49.4177" lon="1.24155">
        <ele>153</ele>
        <time>2024-10-29T13:43:52+00:00</time>
      </trkpt>
      <trkpt lat="49.41765" lon="1.24157">
        <ele>153</ele>
        <time>2024-10-29T13:43:56.484+00:00</time>
      </trkpt>
      <trkpt lat="49.41762" lon="1.24161">
        <ele>152</ele>
        <time>2024-10-29T13:44:00.938+00:00</time>
      </trkpt>
      <trkpt lat="49.41769" lon="1.24175">
        <ele>153</ele>
        <time>2024-10-29T13:45:34+00:00</time>
      </trkpt>
      <trkpt lat="49.41768" lon="1.24178">
        <ele>153</ele>
        <time>2024-10-29T13:45:39+00:00</time>
      </trkpt>
      <trkpt lat="49.41766" lon="1.24184">
        <ele>153</ele>
        <time>2024-10-29T13:45:44+00:00</time>
      </trkpt>
      <trkpt lat="49.41766" lon="1.2419">
        <ele>153</ele>
        <time>2024-10-29T13:45:49+00:00</time>
      </trkpt>
      <trkpt lat="49.41765" lon="1.24196">
        <ele>153</ele>
        <time>2024-10-29T13:45:53+00:00</time>
      </trkpt>
      <trkpt lat="49.41763" lon="1.24205">
        <ele>153</ele>
        <time>2024-10-29T13:45:58+00:00</time>
      </trkpt>
      <trkpt lat="49.41762" lon="1.24212">
        <ele>153</ele>
        <time>2024-10-29T13:46:02.377+00:00</time>
      </trkpt>
      <trkpt lat="49.41761" lon="1.24218">
        <ele>153</ele>
        <time>2024-10-29T13:46:07+00:00</time>
      </trkpt>
      <trkpt lat="49.41763" lon="1.24223">
        <ele>153</ele>
        <time>2024-10-29T13:46:11.460+00:00</time>
      </trkpt>
      <trkpt lat="49.41763" lon="1.2423">
        <ele>153</ele>
        <time>2024-10-29T13:46:16+00:00</time>
      </trkpt>
      <trkpt lat="49.41761" lon="1.24239">
        <ele>154</ele>
        <time>2024-10-29T13:46:20.549+00:00</time>
      </trkpt>
      <trkpt lat="49.4176" lon="1.24249">
        <ele>154</ele>
        <time>2024-10-29T13:46:25+00:00</time>
      </trkpt>
      <trkpt lat="49.41758" lon="1.24258">
        <ele>154</ele>
        <time>2024-10-29T13:46:29.562+00:00</time>
      </trkpt>
      <trkpt lat="49.41756" lon="1.24267">
        <ele>152</ele>
        <time>2024-10-29T13:46:34+00:00</time>
      </trkpt>
      <trkpt lat="49.41754" lon="1.24273">
        <ele>152</ele>
        <time>2024-10-29T13:46:37.965+00:00</time>
      </trkpt>
      <trkpt lat="49.41753" lon="1.2428">
        <ele>152</ele>
        <time>2024-10-29T13:46:42.323+00:00</time>
      </trkpt>
      <trkpt lat="49.41753" lon="1.24287">
        <ele>152</ele>
        <time>2024-10-29T13:46:46.824+00:00</time>
      </trkpt>
      <trkpt lat="49.41754" lon="1.2429">
        <ele>152</ele>
        <time>2024-10-29T13:46:51.210+00:00</time>
      </trkpt>
      <trkpt lat="49.41754" lon="1.24298">
        <ele>151</ele>
        <time>2024-10-29T13:46:55.538+00:00</time>
      </trkpt>
      <trkpt lat="49.41753" lon="1.2431">
        <ele>151</ele>
        <time>2024-10-29T13:46:59.763+00:00</time>
      </trkpt>
      <trkpt lat="49.41752" lon="1.24319">
        <ele>151</ele>
        <time>2024-10-29T13:47:04.275+00:00</time>
      </trkpt>
      <trkpt lat="49.41754" lon="1.24322">
        <ele>150</ele>
        <time>2024-10-29T13:47:08.536+00:00</time>
      </trkpt>
      <trkpt lat="49.41758" lon="1.24326">
        <ele>150</ele>
        <time>2024-10-29T13:47:12.916+00:00</time>
      </trkpt>
      <trkpt lat="49.41756" lon="1.24334">
        <ele>150</ele>
        <time>2024-10-29T13:47:17.728+00:00</time>
      </trkpt>
      <trkpt lat="49.41756" lon="1.24338">
        <ele>150</ele>
        <time>2024-10-29T13:47:23+00:00</time>
      </trkpt>
      <trkpt lat="49.41755" lon="1.24346">
        <ele>150</ele>
        <time>2024-10-29T13:47:27.879+00:00</time>
      </trkpt>
      <trkpt lat="49.41752" lon="1.24356">
        <ele>151</ele>
        <time>2024-10-29T13:47:32.493+00:00</time>
      </trkpt>
      <trkpt lat="49.4175" lon="1.24363">
        <ele>151</ele>
        <time>2024-10-29T13:47:36.499+00:00</time>
      </trkpt>
      <trkpt lat="49.41751" lon="1.24369">
        <ele>151</ele>
        <time>2024-10-29T13:47:41+00:00</time>
      </trkpt>
      <trkpt lat="49.41751" lon="1.24377">
        <ele>150</ele>
        <time>2024-10-29T13:47:45.903+00:00</time>
      </trkpt>
      <trkpt lat="49.41752" lon="1.24382">
        <ele>150</ele>
        <time>2024-10-29T13:47:51+00:00</time>
      </trkpt>
      <trkpt lat="49.41754" lon="1.24382">
        <ele>150</ele>
        <time>2024-10-29T13:47:55.460+00:00</time>
      </trkpt>
      <trkpt lat="49.41756" lon="1.24386">
        <ele>150</ele>
        <time>2024-10-29T13:48:00.027+00:00</time>
      </trkpt>
      <trkpt lat="49.41754" lon="1.24393">
        <ele>150</ele>
        <time>2024-10-29T13:48:04.494+00:00</time>
      </trkpt>
      <trkpt lat="49.41752" lon="1.24401">
        <ele>150</ele>
        <time>2024-10-29T13:48:08.914+00:00</time>
      </trkpt>
      <trkpt lat="49.4175" lon="1.24409">
        <ele>150</ele>
        <time>2024-10-29T13:48:13.375+00:00</time>
      </trkpt>
      <trkpt lat="49.41748" lon="1.24417">
        <ele>150</ele>
        <time>2024-10-29T13:48:17.924+00:00</time>
      </trkpt>
      <trkpt lat="49.41746" lon="1.24425">
        <ele>150</ele>
        <time>2024-10-29T13:48:22.355+00:00</time>
      </trkpt>
      <trkpt lat="49.41745" lon="1.24433">
        <ele>151</ele>
        <time>2024-10-29T13:48:26.756+00:00</time>
      </trkpt>
      <trkpt lat="49.41744" lon="1.24441">
        <ele>151</ele>
        <time>2024-10-29T13:48:31.015+00:00</time>
      </trkpt>
      <trkpt lat="49.41746" lon="1.24447">
        <ele>151</ele>
        <time>2024-10-29T13:48:35.377+00:00</time>
      </trkpt>
      <trkpt lat="49.41745" lon="1.24456">
        <ele>151</ele>
        <time>2024-10-29T13:48:39.617+00:00</time>
      </trkpt>
      <trkpt lat="49.41744" lon="1.24465">
        <ele>151</ele>
        <time>2024-10-29T13:48:44+00:00</time>
      </trkpt>
      <trkpt lat="49.41744" lon="1.24473">
        <ele>151</ele>
        <time>2024-10-29T13:48:48.536+00:00</time>
      </trkpt>
      <trkpt lat="49.41743" lon="1.24481">
        <ele>151</ele>
        <time>2024-10-29T13:48:52.822+00:00</time>
      </trkpt>
      <trkpt lat="49.41744" lon="1.24488">
        <ele>150</ele>
        <time>2024-10-29T13:48:57.011+00:00</time>
      </trkpt>
      <trkpt lat="49.41744" lon="1.24495">
        <ele>150</ele>
        <time>2024-10-29T13:49:01.377+00:00</time>
      </trkpt>
      <trkpt lat="49.41743" lon="1.24503">
        <ele>150</ele>
        <time>2024-10-29T13:49:05.725+00:00</time>
      </trkpt>
      <trkpt lat="49.41742" lon="1.24511">
        <ele>150</ele>
        <time>2024-10-29T13:49:09.982+00:00</time>
      </trkpt>
      <trkpt lat="49.41741" lon="1.24519">
        <ele>151</ele>
        <time>2024-10-29T13:49:14.242+00:00</time>
      </trkpt>
      <trkpt lat="49.41742" lon="1.24526">
        <ele>151</ele>
        <time>2024-10-29T13:49:18.472+00:00</time>
      </trkpt>
      <trkpt lat="49.4174" lon="1.24536">
        <ele>151</ele>
        <time>2024-10-29T13:49:22.833+00:00</time>
      </trkpt>
      <trkpt lat="49.41739" lon="1.24546">
        <ele>152</ele>
        <time>2024-10-29T13:49:27+00:00</time>
      </trkpt>
      <trkpt lat="49.41736" lon="1.24555">
        <ele>150</ele>
        <time>2024-10-29T13:49:31.494+00:00</time>
      </trkpt>
      <trkpt lat="49.41734" lon="1.24563">
        <ele>150</ele>
        <time>2024-10-29T13:49:35.763+00:00</time>
      </trkpt>
      <trkpt lat="49.41736" lon="1.24571">
        <ele>151</ele>
        <time>2024-10-29T13:49:40.356+00:00</time>
      </trkpt>
      <trkpt lat="49.41735" lon="1.24576">
        <ele>151</ele>
        <time>2024-10-29T13:49:44.776+00:00</time>
      </trkpt>
      <trkpt lat="49.41733" lon="1.24582">
        <ele>151</ele>
        <time>2024-10-29T13:49:48.900+00:00</time>
      </trkpt>
      <trkpt lat="49.41732" lon="1.24588">
        <ele>151</ele>
        <time>2024-10-29T13:49:53.322+00:00</time>
      </trkpt>
      <trkpt lat="49.41731" lon="1.24595">
        <ele>151</ele>
        <time>2024-10-29T13:49:57.656+00:00</time>
      </trkpt>
      <trkpt lat="49.41733" lon="1.246">
        <ele>153</ele>
        <time>2024-10-29T13:50:02+00:00</time>
      </trkpt>
      <trkpt lat="49.41735" lon="1.24607">
        <ele>153</ele>
        <time>2024-10-29T13:50:06.369+00:00</time>
      </trkpt>
      <trkpt lat="49.41736" lon="1.24613">
        <ele>153</ele>
        <time>2024-10-29T13:50:10.470+00:00</time>
      </trkpt>
      <trkpt lat="49.41734" lon="1.2462">
        <ele>153</ele>
        <time>2024-10-29T13:50:14.736+00:00</time>
      </trkpt>
      <trkpt lat="49.41734" lon="1.24629">
        <ele>153</ele>
        <time>2024-10-29T13:50:19+00:00</time>
      </trkpt>
      <trkpt lat="49.41731" lon="1.24636">
        <ele>153</ele>
        <time>2024-10-29T13:50:23.562+00:00</time>
      </trkpt>
      <trkpt lat="49.4173" lon="1.24645">
        <ele>153</ele>
        <time>2024-10-29T13:50:27.724+00:00</time>
      </trkpt>
      <trkpt lat="49.41728" lon="1.24653">
        <ele>154</ele>
        <time>2024-10-29T13:50:31.880+00:00</time>
      </trkpt>
      <trkpt lat="49.41729" lon="1.24659">
        <ele>154</ele>
        <time>2024-10-29T13:50:36.170+00:00</time>
      </trkpt>
      <trkpt lat="49.41729" lon="1.24667">
        <ele>154</ele>
        <time>2024-10-29T13:50:40.622+00:00</time>
      </trkpt>
      <trkpt lat="49.41731" lon="1.24672">
        <ele>154</ele>
        <time>2024-10-29T13:50:44.958+00:00</time>
      </trkpt>
      <trkpt lat="49.41731" lon="1.2468">
        <ele>154</ele>
        <time>2024-10-29T13:50:49.334+00:00</time>
      </trkpt>
      <trkpt lat="49.41729" lon="1.24689">
        <ele>154</ele>
        <time>2024-10-29T13:50:53.821+00:00</time>
      </trkpt>
      <trkpt lat="49.41728" lon="1.24695">
        <ele>154</ele>
        <time>2024-10-29T13:50:57.966+00:00</time>
      </trkpt>
      <trkpt lat="49.41727" lon="1.24703">
        <ele>154</ele>
        <time>2024-10-29T13:51:02.377+00:00</time>
      </trkpt>
      <trkpt lat="49.41727" lon="1.24711">
        <ele>154</ele>
        <time>2024-10-29T13:51:06.735+00:00</time>
      </trkpt>
      <trkpt lat="49.41728" lon="1.24717">
        <ele>154</ele>
        <time>2024-10-29T13:51:11+00:00</time>
      </trkpt>
      <trkpt lat="49.41728" lon="1.24722">
        <ele>154</ele>
        <time>2024-10-29T13:51:15.446+00:00</time>
      </trkpt>
      <trkpt lat="49.41731" lon="1.24728">
        <ele>154</ele>
        <time>2024-10-29T13:51:19.537+00:00</time>
      </trkpt>
      <trkpt lat="49.41732" lon="1.24735">
        <ele>154</ele>
        <time>2024-10-29T13:51:23.855+00:00</time>
      </trkpt>
      <trkpt lat="49.4173" lon="1.24743">
        <ele>154</ele>
        <time>2024-10-29T13:51:28+00:00</time>
      </trkpt>
      <trkpt lat="49.41729" lon="1.24751">
        <ele>154</ele>
        <time>2024-10-29T13:51:31.997+00:00</time>
      </trkpt>
      <trkpt lat="49.41729" lon="1.24758">
        <ele>154</ele>
        <time>2024-10-29T13:51:36.242+00:00</time>
      </trkpt>
      <trkpt lat="49.41727" lon="1.24766">
        <ele>154</ele>
        <time>2024-10-29T13:51:40.565+00:00</time>
      </trkpt>
      <trkpt lat="49.41726" lon="1.24774">
        <ele>154</ele>
        <time>2024-10-29T13:51:44.734+00:00</time>
      </trkpt>
      <trkpt lat="49.41723" lon="1.24782">
        <ele>154</ele>
        <time>2024-10-29T13:51:49+00:00</time>
      </trkpt>
      <trkpt lat="49.41722" lon="1.2479">
        <ele>154</ele>
        <time>2024-10-29T13:51:53.763+00:00</time>
      </trkpt>
      <trkpt lat="49.41721" lon="1.24799">
        <ele>154</ele>
        <time>2024-10-29T13:51:58.195+00:00</time>
      </trkpt>
      <trkpt lat="49.41721" lon="1.24808">
        <ele>154</ele>
        <time>2024-10-29T13:52:02.596+00:00</time>
      </trkpt>
      <trkpt lat="49.4172" lon="1.24817">
        <ele>154</ele>
        <time>2024-10-29T13:52:06.777+00:00</time>
      </trkpt>
      <trkpt lat="49.41718" lon="1.24827">
        <ele>154</ele>
        <time>2024-10-29T13:52:11.198+00:00</time>
      </trkpt>
      <trkpt lat="49.41718" lon="1.24835">
        <ele>154</ele>
        <time>2024-10-29T13:52:15.448+00:00</time>
      </trkpt>
      <trkpt lat="49.41718" lon="1.24842">
        <ele>154</ele>
        <time>2024-10-29T13:52:19.840+00:00</time>
      </trkpt>
      <trkpt lat="49.41717" lon="1.24851">
        <ele>154</ele>
        <time>2024-10-29T13:52:24.155+00:00</time>
      </trkpt>
      <trkpt lat="49.41717" lon="1.24859">
        <ele>154</ele>
        <time>2024-10-29T13:52:28.585+00:00</time>
      </trkpt>
      <trkpt lat="49.41717" lon="1.24866">
        <ele>154</ele>
        <time>2024-10-29T13:52:32.723+00:00</time>
      </trkpt>
      <trkpt lat="49.41716" lon="1.24873">
        <ele>154</ele>
        <time>2024-10-29T13:52:37+00:00</time>
      </trkpt>
      <trkpt lat="49.41715" lon="1.2488">
        <ele>155</ele>
        <time>2024-10-29T13:52:41.496+00:00</time>
      </trkpt>
      <trkpt lat="49.41714" lon="1.24888">
        <ele>155</ele>
        <time>2024-10-29T13:52:46+00:00</time>
      </trkpt>
      <trkpt lat="49.41713" lon="1.24896">
        <ele>155</ele>
        <time>2024-10-29T13:52:50.595+00:00</time>
      </trkpt>
      <trkpt lat="49.41713" lon="1.24903">
        <ele>156</ele>
        <time>2024-10-29T13:52:54.913+00:00</time>
      </trkpt>
      <trkpt lat="49.41713" lon="1.24912">
        <ele>156</ele>
        <time>2024-10-29T13:52:59+00:00</time>
      </trkpt>
      <trkpt lat="49.41713" lon="1.24918">
        <ele>156</ele>
        <time>2024-10-29T13:53:03.235+00:00</time>
      </trkpt>
      <trkpt lat="49.41713" lon="1.24925">
        <ele>156</ele>
        <time>2024-10-29T13:53:07.604+00:00</time>
      </trkpt>
      <trkpt lat="49.41715" lon="1.24932">
        <ele>157</ele>
        <time>2024-10-29T13:53:12+00:00</time>
      </trkpt>
      <trkpt lat="49.41714" lon="1.2494">
        <ele>157</ele>
        <time>2024-10-29T13:53:16.277+00:00</time>
      </trkpt>
      <trkpt lat="49.41714" lon="1.24946">
        <ele>157</ele>
        <time>2024-10-29T13:53:20.536+00:00</time>
      </trkpt>
      <trkpt lat="49.41713" lon="1.24952">
        <ele>157</ele>
        <time>2024-10-29T13:53:24.801+00:00</time>
      </trkpt>
      <trkpt lat="49.41713" lon="1.24959">
        <ele>158</ele>
        <time>2024-10-29T13:53:28.930+00:00</time>
      </trkpt>
      <trkpt lat="49.41714" lon="1.24965">
        <ele>158</ele>
        <time>2024-10-29T13:53:33+00:00</time>
      </trkpt>
      <trkpt lat="49.41711" lon="1.24974">
        <ele>158</ele>
        <time>2024-10-29T13:53:37+00:00</time>
      </trkpt>
      <trkpt lat="49.41708" lon="1.24985">
        <ele>158</ele>
        <time>2024-10-29T13:53:41.574+00:00</time>
      </trkpt>
      <trkpt lat="49.41708" lon="1.24992">
        <ele>159</ele>
        <time>2024-10-29T13:53:46+00:00</time>
      </trkpt>
      <trkpt lat="49.41709" lon="1.24997">
        <ele>159</ele>
        <time>2024-10-29T13:53:50.117+00:00</time>
      </trkpt>
      <trkpt lat="49.4171" lon="1.25004">
        <ele>159</ele>
        <time>2024-10-29T13:53:54.437+00:00</time>
      </trkpt>
      <trkpt lat="49.41709" lon="1.25011">
        <ele>159</ele>
        <time>2024-10-29T13:53:58.514+00:00</time>
      </trkpt>
      <trkpt lat="49.41707" lon="1.25019">
        <ele>159</ele>
        <time>2024-10-29T13:54:02.655+00:00</time>
      </trkpt>
      <trkpt lat="49.41709" lon="1.25025">
        <ele>160</ele>
        <time>2024-10-29T13:54:06.696+00:00</time>
      </trkpt>
      <trkpt lat="49.41709" lon="1.25034">
        <ele>160</ele>
        <time>2024-10-29T13:54:10.983+00:00</time>
      </trkpt>
      <trkpt lat="49.41709" lon="1.25041">
        <ele>160</ele>
        <time>2024-10-29T13:54:15.115+00:00</time>
      </trkpt>
      <trkpt lat="49.41709" lon="1.25048">
        <ele>159</ele>
        <time>2024-10-29T13:54:19.473+00:00</time>
      </trkpt>
      <trkpt lat="49.41708" lon="1.25056">
        <ele>158</ele>
        <time>2024-10-29T13:54:23.617+00:00</time>
      </trkpt>
      <trkpt lat="49.41707" lon="1.25064">
        <ele>158</ele>
        <time>2024-10-29T13:54:27.821+00:00</time>
      </trkpt>
      <trkpt lat="49.41706" lon="1.25072">
        <ele>157</ele>
        <time>2024-10-29T13:54:31.958+00:00</time>
      </trkpt>
      <trkpt lat="49.41705" lon="1.2508">
        <ele>157</ele>
        <time>2024-10-29T13:54:36.234+00:00</time>
      </trkpt>
      <trkpt lat="49.41703" lon="1.25088">
        <ele>157</ele>
        <time>2024-10-29T13:54:40.361+00:00</time>
      </trkpt>
      <trkpt lat="49.41703" lon="1.25096">
        <ele>157</ele>
        <time>2024-10-29T13:54:44.677+00:00</time>
      </trkpt>
      <trkpt lat="49.41703" lon="1.25102">
        <ele>156</ele>
        <time>2024-10-29T13:54:48.891+00:00</time>
      </trkpt>
      <trkpt lat="49.41705" lon="1.25108">
        <ele>156</ele>
        <time>2024-10-29T13:54:52.979+00:00</time>
      </trkpt>
      <trkpt lat="49.41707" lon="1.25113">
        <ele>156</ele>
        <time>2024-10-29T13:54:57.072+00:00</time>
      </trkpt>
      <trkpt lat="49.41708" lon="1.25121">
        <ele>156</ele>
        <time>2024-10-29T13:55:01.312+00:00</time>
      </trkpt>
      <trkpt lat="49.41705" lon="1.25129">
        <ele>155</ele>
        <time>2024-10-29T13:55:05.496+00:00</time>
      </trkpt>
      <trkpt lat="49.41703" lon="1.25137">
        <ele>155</ele>
        <time>2024-10-29T13:55:09.677+00:00</time>
      </trkpt>
      <trkpt lat="49.41702" lon="1.25145">
        <ele>155</ele>
        <time>2024-10-29T13:55:13.811+00:00</time>
      </trkpt>
      <trkpt lat="49.41701" lon="1.25153">
        <ele>154</ele>
        <time>2024-10-29T13:55:18+00:00</time>
      </trkpt>
      <trkpt lat="49.41701" lon="1.25161">
        <ele>154</ele>
        <time>2024-10-29T13:55:22.139+00:00</time>
      </trkpt>
      <trkpt lat="49.417" lon="1.25169">
        <ele>154</ele>
        <time>2024-10-29T13:55:26.427+00:00</time>
      </trkpt>
      <trkpt lat="49.417" lon="1.25177">
        <ele>154</ele>
        <time>2024-10-29T13:55:30.616+00:00</time>
      </trkpt>
      <trkpt lat="49.417" lon="1.25183">
        <ele>154</ele>
        <time>2024-10-29T13:55:34.834+00:00</time>
      </trkpt>
      <trkpt lat="49.417" lon="1.25191">
        <ele>154</ele>
        <time>2024-10-29T13:55:38.993+00:00</time>
      </trkpt>
      <trkpt lat="49.41699" lon="1.25198">
        <ele>154</ele>
        <time>2024-10-29T13:55:43.563+00:00</time>
      </trkpt>
      <trkpt lat="49.41698" lon="1.25205">
        <ele>154</ele>
        <time>2024-10-29T13:55:48+00:00</time>
      </trkpt>
      <trkpt lat="49.41697" lon="1.25216">
        <ele>154</ele>
        <time>2024-10-29T13:55:52.933+00:00</time>
      </trkpt>
      <trkpt lat="49.41696" lon="1.25227">
        <ele>154</ele>
        <time>2024-10-29T13:55:57.822+00:00</time>
      </trkpt>
      <trkpt lat="49.41696" lon="1.25234">
        <ele>154</ele>
        <time>2024-10-29T13:56:01.938+00:00</time>
      </trkpt>
      <trkpt lat="49.41695" lon="1.25242">
        <ele>155</ele>
        <time>2024-10-29T13:56:06+00:00</time>
      </trkpt>
      <trkpt lat="49.41693" lon="1.25249">
        <ele>155</ele>
        <time>2024-10-29T13:56:10.106+00:00</time>
      </trkpt>
      <trkpt lat="49.41694" lon="1.25256">
        <ele>155</ele>
        <time>2024-10-29T13:56:14.462+00:00</time>
      </trkpt>
      <trkpt lat="49.41697" lon="1.2526">
        <ele>155</ele>
        <time>2024-10-29T13:56:19+00:00</time>
      </trkpt>
      <trkpt lat="49.41698" lon="1.25264">
        <ele>155</ele>
        <time>2024-10-29T13:56:23.082+00:00</time>
      </trkpt>
      <trkpt lat="49.41698" lon="1.25271">
        <ele>155</ele>
        <time>2024-10-29T13:56:27.379+00:00</time>
      </trkpt>
      <trkpt lat="49.41696" lon="1.25279">
        <ele>155</ele>
        <time>2024-10-29T13:56:31.483+00:00</time>
      </trkpt>
      <trkpt lat="49.41694" lon="1.25288">
        <ele>155</ele>
        <time>2024-10-29T13:56:35.496+00:00</time>
      </trkpt>
      <trkpt lat="49.41693" lon="1.25295">
        <ele>155</ele>
        <time>2024-10-29T13:56:39.584+00:00</time>
      </trkpt>
      <trkpt lat="49.41692" lon="1.25305">
        <ele>155</ele>
        <time>2024-10-29T13:56:43.957+00:00</time>
      </trkpt>
      <trkpt lat="49.41692" lon="1.25312">
        <ele>155</ele>
        <time>2024-10-29T13:56:48.020+00:00</time>
      </trkpt>
      <trkpt lat="49.4169" lon="1.25321">
        <ele>155</ele>
        <time>2024-10-29T13:56:52.447+00:00</time>
      </trkpt>
      <trkpt lat="49.41689" lon="1.25328">
        <ele>155</ele>
        <time>2024-10-29T13:56:56.537+00:00</time>
      </trkpt>
      <trkpt lat="49.41687" lon="1.25336">
        <ele>155</ele>
        <time>2024-10-29T13:57:00.584+00:00</time>
      </trkpt>
      <trkpt lat="49.41687" lon="1.25343">
        <ele>155</ele>
        <time>2024-10-29T13:57:04.856+00:00</time>
      </trkpt>
      <trkpt lat="49.41688" lon="1.25349">
        <ele>155</ele>
        <time>2024-10-29T13:57:09+00:00</time>
      </trkpt>
      <trkpt lat="49.41689" lon="1.25356">
        <ele>155</ele>
        <time>2024-10-29T13:57:13+00:00</time>
      </trkpt>
      <trkpt lat="49.41689" lon="1.25363">
        <ele>155</ele>
        <time>2024-10-29T13:57:17.490+00:00</time>
      </trkpt>
      <trkpt lat="49.41689" lon="1.2537">
        <ele>155</ele>
        <time>2024-10-29T13:57:21.654+00:00</time>
      </trkpt>
      <trkpt lat="49.41688" lon="1.25377">
        <ele>155</ele>
        <time>2024-10-29T13:57:25.916+00:00</time>
      </trkpt>
      <trkpt lat="49.41686" lon="1.25385">
        <ele>155</ele>
        <time>2024-10-29T13:57:30+00:00</time>
      </trkpt>
      <trkpt lat="49.41685" lon="1.25394">
        <ele>155</ele>
        <time>2024-10-29T13:57:34.982+00:00</time>
      </trkpt>
      <trkpt lat="49.41683" lon="1.25403">
        <ele>155</ele>
        <time>2024-10-29T13:57:39+00:00</time>
      </trkpt>
      <trkpt lat="49.41683" lon="1.2541">
        <ele>154</ele>
        <time>2024-10-29T13:57:43+00:00</time>
      </trkpt>
      <trkpt lat="49.41683" lon="1.25418">
        <ele>154</ele>
        <time>2024-10-29T13:57:47.367+00:00</time>
      </trkpt>
      <trkpt lat="49.41683" lon="1.25425">
        <ele>154</ele>
        <time>2024-10-29T13:57:51.959+00:00</time>
      </trkpt>
      <trkpt lat="49.41683" lon="1.25432">
        <ele>154</ele>
        <time>2024-10-29T13:57:56.218+00:00</time>
      </trkpt>
      <trkpt lat="49.41683" lon="1.25441">
        <ele>154</ele>
        <time>2024-10-29T13:58:00.537+00:00</time>
      </trkpt>
      <trkpt lat="49.4168" lon="1.25448">
        <ele>153</ele>
        <time>2024-10-29T13:58:04.676+00:00</time>
      </trkpt>
      <trkpt lat="49.41679" lon="1.25454">
        <ele>153</ele>
        <time>2024-10-29T13:58:09+00:00</time>
      </trkpt>
      <trkpt lat="49.41679" lon="1.25462">
        <ele>153</ele>
        <time>2024-10-29T13:58:13.574+00:00</time>
      </trkpt>
      <trkpt lat="49.41678" lon="1.2547">
        <ele>153</ele>
        <time>2024-10-29T13:58:17.831+00:00</time>
      </trkpt>
      <trkpt lat="49.41678" lon="1.25477">
        <ele>153</ele>
        <time>2024-10-29T13:58:22.074+00:00</time>
      </trkpt>
      <trkpt lat="49.41677" lon="1.25485">
        <ele>153</ele>
        <time>2024-10-29T13:58:26.662+00:00</time>
      </trkpt>
      <trkpt lat="49.41678" lon="1.25492">
        <ele>153</ele>
        <time>2024-10-29T13:58:30.743+00:00</time>
      </trkpt>
      <trkpt lat="49.41681" lon="1.25498">
        <ele>152</ele>
        <time>2024-10-29T13:58:35+00:00</time>
      </trkpt>
      <trkpt lat="49.41681" lon="1.25505">
        <ele>152</ele>
        <time>2024-10-29T13:58:39.141+00:00</time>
      </trkpt>
      <trkpt lat="49.41679" lon="1.25512">
        <ele>153</ele>
        <time>2024-10-29T13:58:43.458+00:00</time>
      </trkpt>
      <trkpt lat="49.41678" lon="1.25519">
        <ele>153</ele>
        <time>2024-10-29T13:58:47.716+00:00</time>
      </trkpt>
      <trkpt lat="49.41678" lon="1.25527">
        <ele>153</ele>
        <time>2024-10-29T13:58:52.084+00:00</time>
      </trkpt>
      <trkpt lat="49.41677" lon="1.25535">
        <ele>153</ele>
        <time>2024-10-29T13:58:56.244+00:00</time>
      </trkpt>
      <trkpt lat="49.41676" lon="1.25543">
        <ele>152</ele>
        <time>2024-10-29T13:59:00.514+00:00</time>
      </trkpt>
      <trkpt lat="49.41676" lon="1.25552">
        <ele>152</ele>
        <time>2024-10-29T13:59:04.638+00:00</time>
      </trkpt>
      <trkpt lat="49.41676" lon="1.25558">
        <ele>152</ele>
        <time>2024-10-29T13:59:08.833+00:00</time>
      </trkpt>
      <trkpt lat="49.41675" lon="1.25566">
        <ele>152</ele>
        <time>2024-10-29T13:59:13.218+00:00</time>
      </trkpt>
      <trkpt lat="49.41674" lon="1.25573">
        <ele>151</ele>
        <time>2024-10-29T13:59:17.470+00:00</time>
      </trkpt>
      <trkpt lat="49.41675" lon="1.25579">
        <ele>151</ele>
        <time>2024-10-29T13:59:21.616+00:00</time>
      </trkpt>
      <trkpt lat="49.41674" lon="1.25585">
        <ele>151</ele>
        <time>2024-10-29T13:59:26.005+00:00</time>
      </trkpt>
      <trkpt lat="49.41675" lon="1.25592">
        <ele>151</ele>
        <time>2024-10-29T13:59:30.403+00:00</time>
      </trkpt>
      <trkpt lat="49.41687" lon="1.25598">
        <ele>150</ele>
        <time>2024-10-29T14:02:47+00:00</time>
      </trkpt>
      <trkpt lat="49.41689" lon="1.25602">
        <ele>150</ele>
        <time>2024-10-29T14:02:52+00:00</time>
      </trkpt>
      <trkpt lat="49.41691" lon="1.25606">
        <ele>150</ele>
        <time>2024-10-29T14:02:56+00:00</time>
      </trkpt>
      <trkpt lat="49.41694" lon="1.25607">
        <ele>150</ele>
        <time>2024-10-29T14:03:00+00:00</time>
      </trkpt>
      <trkpt lat="49.41699" lon="1.2561">
        <ele>150</ele>
        <time>2024-10-29T14:03:05+00:00</time>
      </trkpt>
      <trkpt lat="49.41703" lon="1.25613">
        <ele>150</ele>
        <time>2024-10-29T14:03:09+00:00</time>
      </trkpt>
      <trkpt lat="49.41707" lon="1.25617">
        <ele>150</ele>
        <time>2024-10-29T14:03:13.445+00:00</time>
      </trkpt>
      <trkpt lat="49.41711" lon="1.25621">
        <ele>149</ele>
        <time>2024-10-29T14:03:17.878+00:00</time>
      </trkpt>
      <trkpt lat="49.41715" lon="1.25626">
        <ele>149</ele>
        <time>2024-10-29T14:03:22+00:00</time>
      </trkpt>
      <trkpt lat="49.41718" lon="1.25631">
        <ele>149</ele>
        <time>2024-10-29T14:03:26.358+00:00</time>
      </trkpt>
      <trkpt lat="49.41722" lon="1.25636">
        <ele>149</ele>
        <time>2024-10-29T14:03:30.461+00:00</time>
      </trkpt>
      <trkpt lat="49.41724" lon="1.2564">
        <ele>149</ele>
        <time>2024-10-29T14:03:34.698+00:00</time>
      </trkpt>
      <trkpt lat="49.41725" lon="1.25647">
        <ele>149</ele>
        <time>2024-10-29T14:03:38.979+00:00</time>
      </trkpt>
      <trkpt lat="49.41726" lon="1.25658">
        <ele>149</ele>
        <time>2024-10-29T14:03:43.197+00:00</time>
      </trkpt>
      <trkpt lat="49.41726" lon="1.25666">
        <ele>149</ele>
        <time>2024-10-29T14:03:47.525+00:00</time>
      </trkpt>
      <trkpt lat="49.41728" lon="1.25673">
        <ele>149</ele>
        <time>2024-10-29T14:03:51.657+00:00</time>
      </trkpt>
      <trkpt lat="49.41729" lon="1.25678">
        <ele>149</ele>
        <time>2024-10-29T14:03:55.904+00:00</time>
      </trkpt>
      <trkpt lat="49.41733" lon="1.25681">
        <ele>149</ele>
        <time>2024-10-29T14:04:00.334+00:00</time>
      </trkpt>
      <trkpt lat="49.41737" lon="1.25684">
        <ele>146</ele>
        <time>2024-10-29T14:04:04.324+00:00</time>
      </trkpt>
      <trkpt lat="49.4174" lon="1.25689">
        <ele>146</ele>
        <time>2024-10-29T14:04:08.458+00:00</time>
      </trkpt>
      <trkpt lat="49.41743" lon="1.25694">
        <ele>146</ele>
        <time>2024-10-29T14:04:12.700+00:00</time>
      </trkpt>
      <trkpt lat="49.41747" lon="1.25697">
        <ele>146</ele>
        <time>2024-10-29T14:04:16.901+00:00</time>
      </trkpt>
      <trkpt lat="49.4175" lon="1.25702">
        <ele>146</ele>
        <time>2024-10-29T14:04:20.936+00:00</time>
      </trkpt>
      <trkpt lat="49.41754" lon="1.25704">
        <ele>146</ele>
        <time>2024-10-29T14:04:25.139+00:00</time>
      </trkpt>
      <trkpt lat="49.41758" lon="1.25705">
        <ele>146</ele>
        <time>2024-10-29T14:04:29.262+00:00</time>
      </trkpt>
      <trkpt lat="49.41762" lon="1.25707">
        <ele>146</ele>
        <time>2024-10-29T14:04:33.361+00:00</time>
      </trkpt>
      <trkpt lat="49.41765" lon="1.2571">
        <ele>140</ele>
        <time>2024-10-29T14:04:37.580+00:00</time>
      </trkpt>
      <trkpt lat="49.41768" lon="1.25714">
        <ele>140</ele>
        <time>2024-10-29T14:04:41.797+00:00</time>
      </trkpt>
      <trkpt lat="49.41769" lon="1.25722">
        <ele>140</ele>
        <time>2024-10-29T14:04:46+00:00</time>
      </trkpt>
      <trkpt lat="49.41771" lon="1.25731">
        <ele>140</ele>
        <time>2024-10-29T14:04:50.197+00:00</time>
      </trkpt>
      <trkpt lat="49.41774" lon="1.25738">
        <ele>139</ele>
        <time>2024-10-29T14:04:54.448+00:00</time>
      </trkpt>
      <trkpt lat="49.41777" lon="1.25741">
        <ele>139</ele>
        <time>2024-10-29T14:04:59+00:00</time>
      </trkpt>
      <trkpt lat="49.41776" lon="1.25741">
        <ele>139</ele>
        <time>2024-10-29T14:05:04+00:00</time>
      </trkpt>
      <trkpt lat="49.41779" lon="1.25745">
        <ele>139</ele>
        <time>2024-10-29T14:05:08.559+00:00</time>
      </trkpt>
      <trkpt lat="49.41783" lon="1.2575">
        <ele>139</ele>
        <time>2024-10-29T14:05:12.699+00:00</time>
      </trkpt>
      <trkpt lat="49.41786" lon="1.25753">
        <ele>139</ele>
        <time>2024-10-29T14:05:16.904+00:00</time>
      </trkpt>
      <trkpt lat="49.41786" lon="1.25757">
        <ele>139</ele>
        <time>2024-10-29T14:05:21.154+00:00</time>
      </trkpt>
      <trkpt lat="49.41787" lon="1.25763">
        <ele>139</ele>
        <time>2024-10-29T14:05:25.343+00:00</time>
      </trkpt>
      <trkpt lat="49.41788" lon="1.25771">
        <ele>138</ele>
        <time>2024-10-29T14:05:29.495+00:00</time>
      </trkpt>
      <trkpt lat="49.41791" lon="1.25774">
        <ele>138</ele>
        <time>2024-10-29T14:05:33.560+00:00</time>
      </trkpt>
      <trkpt lat="49.41793" lon="1.25782">
        <ele>137</ele>
        <time>2024-10-29T14:05:37.718+00:00</time>
      </trkpt>
      <trkpt lat="49.41794" lon="1.2579">
        <ele>137</ele>
        <time>2024-10-29T14:05:41.904+00:00</time>
      </trkpt>
      <trkpt lat="49.41794" lon="1.25799">
        <ele>136</ele>
        <time>2024-10-29T14:05:46+00:00</time>
      </trkpt>
      <trkpt lat="49.41794" lon="1.25806">
        <ele>136</ele>
        <time>2024-10-29T14:05:50.536+00:00</time>
      </trkpt>
      <trkpt lat="49.41794" lon="1.25813">
        <ele>136</ele>
        <time>2024-10-29T14:05:55+00:00</time>
      </trkpt>
      <trkpt lat="49.41794" lon="1.25818">
        <ele>136</ele>
        <time>2024-10-29T14:05:59.905+00:00</time>
      </trkpt>
      <trkpt lat="49.41795" lon="1.25822">
        <ele>133</ele>
        <time>2024-10-29T14:06:04+00:00</time>
      </trkpt>
      <trkpt lat="49.41796" lon="1.25827">
        <ele>133</ele>
        <time>2024-10-29T14:06:08.595+00:00</time>
      </trkpt>
      <trkpt lat="49.41796" lon="1.25834">
        <ele>133</ele>
        <time>2024-10-29T14:06:13+00:00</time>
      </trkpt>
      <trkpt lat="49.41795" lon="1.25841">
        <ele>133</ele>
        <time>2024-10-29T14:06:17.277+00:00</time>
      </trkpt>
      <trkpt lat="49.41797" lon="1.25843">
        <ele>133</ele>
        <time>2024-10-29T14:06:21.447+00:00</time>
      </trkpt>
      <trkpt lat="49.41798" lon="1.25849">
        <ele>130</ele>
        <time>2024-10-29T14:06:25.641+00:00</time>
      </trkpt>
      <trkpt lat="49.41798" lon="1.25858">
        <ele>130</ele>
        <time>2024-10-29T14:06:30.009+00:00</time>
      </trkpt>
      <trkpt lat="49.41796" lon="1.25865">
        <ele>130</ele>
        <time>2024-10-29T14:06:34.195+00:00</time>
      </trkpt>
      <trkpt lat="49.41796" lon="1.25874">
        <ele>130</ele>
        <time>2024-10-29T14:06:38.447+00:00</time>
      </trkpt>
      <trkpt lat="49.41797" lon="1.25882">
        <ele>126</ele>
        <time>2024-10-29T14:06:42.754+00:00</time>
      </trkpt>
      <trkpt lat="49.41796" lon="1.25895">
        <ele>126</ele>
        <time>2024-10-29T14:06:47.220+00:00</time>
      </trkpt>
      <trkpt lat="49.41796" lon="1.25902">
        <ele>126</ele>
        <time>2024-10-29T14:06:51.516+00:00</time>
      </trkpt>
      <trkpt lat="49.41798" lon="1.25907">
        <ele>125</ele>
        <time>2024-10-29T14:07:29+00:00</time>
      </trkpt>
      <trkpt lat="49.41798" lon="1.25916">
        <ele>125</ele>
        <time>2024-10-29T14:07:33+00:00</time>
      </trkpt>
      <trkpt lat="49.418" lon="1.25918">
        <ele>125</ele>
        <time>2024-10-29T14:07:37.741+00:00</time>
      </trkpt>
      <trkpt lat="49.41802" lon="1.25918">
        <ele>125</ele>
        <time>2024-10-29T14:07:42+00:00</time>
      </trkpt>
      <trkpt lat="49.418" lon="1.25923">
        <ele>125</ele>
        <time>2024-10-29T14:07:47+00:00</time>
      </trkpt>
      <trkpt lat="49.41797" lon="1.25927">
        <ele>125</ele>
        <time>2024-10-29T14:16:13+00:00</time>
      </trkpt>
      <trkpt lat="49.41794" lon="1.25919">
        <ele>125</ele>
        <time>2024-10-29T14:16:17+00:00</time>
      </trkpt>
      <trkpt lat="49.41792" lon="1.25912">
        <ele>125</ele>
        <time>2024-10-29T14:16:22+00:00</time>
      </trkpt>
      <trkpt lat="49.41794" lon="1.25907">
        <ele>125</ele>
        <time>2024-10-29T14:16:27+00:00</time>
      </trkpt>
      <trkpt lat="49.41796" lon="1.25903">
        <ele>125</ele>
        <time>2024-10-29T14:16:32+00:00</time>
      </trkpt>
      <trkpt lat="49.41798" lon="1.25903">
        <ele>125</ele>
        <time>2024-10-29T14:17:04+00:00</time>
      </trkpt>
      <trkpt lat="49.41799" lon="1.25903">
        <ele>125</ele>
        <time>2024-10-29T14:17:09+00:00</time>
      </trkpt>
      <trkpt lat="49.41804" lon="1.25904">
        <ele>125</ele>
        <time>2024-10-29T14:17:14+00:00</time>
      </trkpt>
      <trkpt lat="49.41803" lon="1.25912">
        <ele>125</ele>
        <time>2024-10-29T14:17:19+00:00</time>
      </trkpt>
      <trkpt lat="49.41807" lon="1.25915">
        <ele>125</ele>
        <time>2024-10-29T14:17:24+00:00</time>
      </trkpt>
      <trkpt lat="49.41801" lon="1.25933">
        <ele>125</ele>
        <time>2024-10-29T14:18:38+00:00</time>
      </trkpt>
      <trkpt lat="49.41801" lon="1.25934">
        <ele>125</ele>
        <time>2024-10-29T14:18:43+00:00</time>
      </trkpt>
      <trkpt lat="49.418" lon="1.25935">
        <ele>125</ele>
        <time>2024-10-29T14:18:48+00:00</time>
      </trkpt>
      <trkpt lat="49.418" lon="1.25937">
        <ele>125</ele>
        <time>2024-10-29T14:18:53+00:00</time>
      </trkpt>
      <trkpt lat="49.41799" lon="1.25937">
        <ele>125</ele>
        <time>2024-10-29T14:18:58+00:00</time>
      </trkpt>
      <trkpt lat="49.41803" lon="1.25934">
        <ele>125</ele>
        <time>2024-10-29T14:19:03+00:00</time>
      </trkpt>
      <trkpt lat="49.41807" lon="1.2593">
        <ele>125</ele>
        <time>2024-10-29T14:19:08+00:00</time>
      </trkpt>
      <trkpt lat="49.41811" lon="1.25927">
        <ele>125</ele>
        <time>2024-10-29T14:19:13+00:00</time>
      </trkpt>
      <trkpt lat="49.41815" lon="1.25925">
        <ele>125</ele>
        <time>2024-10-29T14:19:18+00:00</time>
      </trkpt>
      <trkpt lat="49.41818" lon="1.25921">
        <ele>125</ele>
        <time>2024-10-29T14:19:22.676+00:00</time>
      </trkpt>
      <trkpt lat="49.41823" lon="1.25918">
        <ele>124</ele>
        <time>2024-10-29T14:19:27.006+00:00</time>
      </trkpt>
      <trkpt lat="49.4183" lon="1.25919">
        <ele>124</ele>
        <time>2024-10-29T14:19:31.128+00:00</time>
      </trkpt>
      <trkpt lat="49.41837" lon="1.2592">
        <ele>124</ele>
        <time>2024-10-29T14:19:35.677+00:00</time>
      </trkpt>
      <trkpt lat="49.41843" lon="1.25924">
        <ele>124</ele>
        <time>2024-10-29T14:19:39.867+00:00</time>
      </trkpt>
      <trkpt lat="49.4185" lon="1.25927">
        <ele>123</ele>
        <time>2024-10-29T14:19:43.937+00:00</time>
      </trkpt>
      <trkpt lat="49.41856" lon="1.25928">
        <ele>123</ele>
        <time>2024-10-29T14:19:48+00:00</time>
      </trkpt>
      <trkpt lat="49.41862" lon="1.25929">
        <ele>123</ele>
        <time>2024-10-29T14:19:52.263+00:00</time>
      </trkpt>
      <trkpt lat="49.41868" lon="1.25931">
        <ele>126</ele>
        <time>2024-10-29T14:19:56.639+00:00</time>
      </trkpt>
      <trkpt lat="49.41873" lon="1.25933">
        <ele>126</ele>
        <time>2024-10-29T14:20:00.896+00:00</time>
      </trkpt>
      <trkpt lat="49.41877" lon="1.25936">
        <ele>126</ele>
        <time>2024-10-29T14:20:05+00:00</time>
      </trkpt>
      <trkpt lat="49.41882" lon="1.25939">
        <ele>126</ele>
        <time>2024-10-29T14:20:09.429+00:00</time>
      </trkpt>
      <trkpt lat="49.41887" lon="1.25942">
        <ele>126</ele>
        <time>2024-10-29T14:20:13.618+00:00</time>
      </trkpt>
      <trkpt lat="49.41892" lon="1.25946">
        <ele>126</ele>
        <time>2024-10-29T14:20:17.855+00:00</time>
      </trkpt>
      <trkpt lat="49.41896" lon="1.25949">
        <ele>126</ele>
        <time>2024-10-29T14:20:22+00:00</time>
      </trkpt>
      <trkpt lat="49.41901" lon="1.25952">
        <ele>126</ele>
        <time>2024-10-29T14:20:26.378+00:00</time>
      </trkpt>
      <trkpt lat="49.41907" lon="1.25955">
        <ele>128</ele>
        <time>2024-10-29T14:20:30.743+00:00</time>
      </trkpt>
      <trkpt lat="49.41911" lon="1.2596">
        <ele>131</ele>
        <time>2024-10-29T14:20:35.478+00:00</time>
      </trkpt>
      <trkpt lat="49.41913" lon="1.25966">
        <ele>131</ele>
        <time>2024-10-29T14:20:39.639+00:00</time>
      </trkpt>
      <trkpt lat="49.41914" lon="1.25972">
        <ele>131</ele>
        <time>2024-10-29T14:20:43.910+00:00</time>
      </trkpt>
      <trkpt lat="49.41918" lon="1.25976">
        <ele>131</ele>
        <time>2024-10-29T14:20:48.005+00:00</time>
      </trkpt>
      <trkpt lat="49.41921" lon="1.25979">
        <ele>131</ele>
        <time>2024-10-29T14:20:53+00:00</time>
      </trkpt>
      <trkpt lat="49.41926" lon="1.25982">
        <ele>131</ele>
        <time>2024-10-29T14:20:57.894+00:00</time>
      </trkpt>
      <trkpt lat="49.41928" lon="1.25985">
        <ele>131</ele>
        <time>2024-10-29T14:21:02+00:00</time>
      </trkpt>
      <trkpt lat="49.41931" lon="1.25989">
        <ele>134</ele>
        <time>2024-10-29T14:21:06.619+00:00</time>
      </trkpt>
      <trkpt lat="49.41934" lon="1.25991">
        <ele>134</ele>
        <time>2024-10-29T14:21:10.824+00:00</time>
      </trkpt>
      <trkpt lat="49.41937" lon="1.25993">
        <ele>134</ele>
        <time>2024-10-29T14:21:14.894+00:00</time>
      </trkpt>
      <trkpt lat="49.4194" lon="1.25995">
        <ele>134</ele>
        <time>2024-10-29T14:21:18.891+00:00</time>
      </trkpt>
      <trkpt lat="49.41941" lon="1.25998">
        <ele>134</ele>
        <time>2024-10-29T14:21:22.990+00:00</time>
      </trkpt>
      <trkpt lat="49.41943" lon="1.26004">
        <ele>134</ele>
        <time>2024-10-29T14:21:28+00:00</time>
      </trkpt>
      <trkpt lat="49.41946" lon="1.26011">
        <ele>134</ele>
        <time>2024-10-29T14:21:32.820+00:00</time>
      </trkpt>
      <trkpt lat="49.41948" lon="1.26015">
        <ele>138</ele>
        <time>2024-10-29T14:21:37.469+00:00</time>
      </trkpt>
      <trkpt lat="49.41948" lon="1.26021">
        <ele>138</ele>
        <time>2024-10-29T14:21:41.688+00:00</time>
      </trkpt>
      <trkpt lat="49.41951" lon="1.26029">
        <ele>138</ele>
        <time>2024-10-29T14:21:46.539+00:00</time>
      </trkpt>
      <trkpt lat="49.41953" lon="1.26034">
        <ele>138</ele>
        <time>2024-10-29T14:21:51+00:00</time>
      </trkpt>
      <trkpt lat="49.41955" lon="1.26041">
        <ele>138</ele>
        <time>2024-10-29T14:21:56.002+00:00</time>
      </trkpt>
      <trkpt lat="49.41956" lon="1.26048">
        <ele>142</ele>
        <time>2024-10-29T14:22:00.851+00:00</time>
      </trkpt>
      <trkpt lat="49.41958" lon="1.26049">
        <ele>142</ele>
        <time>2024-10-29T14:22:05.637+00:00</time>
      </trkpt>
      <trkpt lat="49.4196" lon="1.2605">
        <ele>139</ele>
        <time>2024-10-29T14:22:09.798+00:00</time>
      </trkpt>
      <trkpt lat="49.41962" lon="1.26054">
        <ele>139</ele>
        <time>2024-10-29T14:22:14.022+00:00</time>
      </trkpt>
      <trkpt lat="49.41964" lon="1.26056">
        <ele>139</ele>
        <time>2024-10-29T14:22:18.522+00:00</time>
      </trkpt>
      <trkpt lat="49.41965" lon="1.26058">
        <ele>139</ele>
        <time>2024-10-29T14:22:22.957+00:00</time>
      </trkpt>
      <trkpt lat="49.41967" lon="1.26064">
        <ele>139</ele>
        <time>2024-10-29T14:22:27.776+00:00</time>
      </trkpt>
      <trkpt lat="49.41968" lon="1.26069">
        <ele>139</ele>
        <time>2024-10-29T14:22:31.860+00:00</time>
      </trkpt>
      <trkpt lat="49.41971" lon="1.26072">
        <ele>141</ele>
        <time>2024-10-29T14:22:36.787+00:00</time>
      </trkpt>
      <trkpt lat="49.41973" lon="1.26073">
        <ele>141</ele>
        <time>2024-10-29T14:22:40.982+00:00</time>
      </trkpt>
      <trkpt lat="49.41973" lon="1.26079">
        <ele>141</ele>
        <time>2024-10-29T14:22:45.721+00:00</time>
      </trkpt>
      <trkpt lat="49.41973" lon="1.26087">
        <ele>141</ele>
        <time>2024-10-29T14:22:49.814+00:00</time>
      </trkpt>
      <trkpt lat="49.41972" lon="1.26094">
        <ele>141</ele>
        <time>2024-10-29T14:22:54.652+00:00</time>
      </trkpt>
      <trkpt lat="49.41972" lon="1.26098">
        <ele>143</ele>
        <time>2024-10-29T14:22:58.797+00:00</time>
      </trkpt>
      <trkpt lat="49.4197" lon="1.26102">
        <ele>143</ele>
        <time>2024-10-29T14:23:02.938+00:00</time>
      </trkpt>
      <trkpt lat="49.41966" lon="1.26106">
        <ele>143</ele>
        <time>2024-10-29T14:23:07.719+00:00</time>
      </trkpt>
      <trkpt lat="49.41962" lon="1.26108">
        <ele>143</ele>
        <time>2024-10-29T14:23:12+00:00</time>
      </trkpt>
      <trkpt lat="49.41959" lon="1.26108">
        <ele>143</ele>
        <time>2024-10-29T14:23:16.356+00:00</time>
      </trkpt>
      <trkpt lat="49.41955" lon="1.26107">
        <ele>146</ele>
        <time>2024-10-29T14:23:21+00:00</time>
      </trkpt>
      <trkpt lat="49.41951" lon="1.26106">
        <ele>146</ele>
        <time>2024-10-29T14:23:25.437+00:00</time>
      </trkpt>
      <trkpt lat="49.41948" lon="1.26104">
        <ele>146</ele>
        <time>2024-10-29T14:23:29.537+00:00</time>
      </trkpt>
      <trkpt lat="49.41945" lon="1.26107">
        <ele>146</ele>
        <time>2024-10-29T14:23:34+00:00</time>
      </trkpt>
      <trkpt lat="49.41941" lon="1.26107">
        <ele>146</ele>
        <time>2024-10-29T14:23:38.746+00:00</time>
      </trkpt>
      <trkpt lat="49.41937" lon="1.26107">
        <ele>146</ele>
        <time>2024-10-29T14:23:43+00:00</time>
      </trkpt>
      <trkpt lat="49.41933" lon="1.26109">
        <ele>146</ele>
        <time>2024-10-29T14:23:47.877+00:00</time>
      </trkpt>
      <trkpt lat="49.4193" lon="1.26111">
        <ele>146</ele>
        <time>2024-10-29T14:23:52.234+00:00</time>
      </trkpt>
      <trkpt lat="49.41927" lon="1.26111">
        <ele>146</ele>
        <time>2024-10-29T14:23:56.362+00:00</time>
      </trkpt>
      <trkpt lat="49.41924" lon="1.26112">
        <ele>146</ele>
        <time>2024-10-29T14:24:00.739+00:00</time>
      </trkpt>
      <trkpt lat="49.4192" lon="1.26114">
        <ele>146</ele>
        <time>2024-10-29T14:24:05+00:00</time>
      </trkpt>
      <trkpt lat="49.41916" lon="1.26116">
        <ele>146</ele>
        <time>2024-10-29T14:24:09.764+00:00</time>
      </trkpt>
      <trkpt lat="49.41913" lon="1.26117">
        <ele>146</ele>
        <time>2024-10-29T14:24:14+00:00</time>
      </trkpt>
      <trkpt lat="49.41909" lon="1.26118">
        <ele>146</ele>
        <time>2024-10-29T14:24:18.800+00:00</time>
      </trkpt>
      <trkpt lat="49.41905" lon="1.26119">
        <ele>146</ele>
        <time>2024-10-29T14:24:23.298+00:00</time>
      </trkpt>
      <trkpt lat="49.41902" lon="1.26123">
        <ele>146</ele>
        <time>2024-10-29T14:24:27.570+00:00</time>
      </trkpt>
      <trkpt lat="49.41897" lon="1.26126">
        <ele>146</ele>
        <time>2024-10-29T14:24:31.938+00:00</time>
      </trkpt>
      <trkpt lat="49.41892" lon="1.26127">
        <ele>146</ele>
        <time>2024-10-29T14:24:36.482+00:00</time>
      </trkpt>
      <trkpt lat="49.41887" lon="1.26126">
        <ele>146</ele>
        <time>2024-10-29T14:24:40.665+00:00</time>
      </trkpt>
      <trkpt lat="49.41883" lon="1.26127">
        <ele>146</ele>
        <time>2024-10-29T14:24:44.961+00:00</time>
      </trkpt>
      <trkpt lat="49.4188" lon="1.26127">
        <ele>146</ele>
        <time>2024-10-29T14:24:49.275+00:00</time>
      </trkpt>
      <trkpt lat="49.41876" lon="1.2613">
        <ele>146</ele>
        <time>2024-10-29T14:24:53.594+00:00</time>
      </trkpt>
      <trkpt lat="49.41872" lon="1.26131">
        <ele>145</ele>
        <time>2024-10-29T14:24:57.655+00:00</time>
      </trkpt>
      <trkpt lat="49.41868" lon="1.26136">
        <ele>145</ele>
        <time>2024-10-29T14:25:02.396+00:00</time>
      </trkpt>
      <trkpt lat="49.41865" lon="1.2614">
        <ele>145</ele>
        <time>2024-10-29T14:25:06.755+00:00</time>
      </trkpt>
      <trkpt lat="49.41865" lon="1.26145">
        <ele>145</ele>
        <time>2024-10-29T14:25:11+00:00</time>
      </trkpt>
      <trkpt lat="49.41859" lon="1.26148">
        <ele>145</ele>
        <time>2024-10-29T14:25:15.745+00:00</time>
      </trkpt>
      <trkpt lat="49.41855" lon="1.26149">
        <ele>145</ele>
        <time>2024-10-29T14:25:20.429+00:00</time>
      </trkpt>
      <trkpt lat="49.41852" lon="1.2615">
        <ele>145</ele>
        <time>2024-10-29T14:25:24.447+00:00</time>
      </trkpt>
      <trkpt lat="49.41849" lon="1.26151">
        <ele>145</ele>
        <time>2024-10-29T14:25:28.514+00:00</time>
      </trkpt>
      <trkpt lat="49.41843" lon="1.2615">
        <ele>145</ele>
        <time>2024-10-29T14:25:33+00:00</time>
      </trkpt>
      <trkpt lat="49.41838" lon="1.2615">
        <ele>145</ele>
        <time>2024-10-29T14:25:37+00:00</time>
      </trkpt>
      <trkpt lat="49.41837" lon="1.26154">
        <ele>146</ele>
        <time>2024-10-29T14:25:41+00:00</time>
      </trkpt>
      <trkpt lat="49.41833" lon="1.26155">
        <ele>146</ele>
        <time>2024-10-29T14:25:45.828+00:00</time>
      </trkpt>
      <trkpt lat="49.41828" lon="1.26156">
        <ele>146</ele>
        <time>2024-10-29T14:25:50.598+00:00</time>
      </trkpt>
      <trkpt lat="49.41823" lon="1.26158">
        <ele>146</ele>
        <time>2024-10-29T14:25:55.198+00:00</time>
      </trkpt>
      <trkpt lat="49.41818" lon="1.26159">
        <ele>147</ele>
        <time>2024-10-29T14:25:59.822+00:00</time>
      </trkpt>
      <trkpt lat="49.41813" lon="1.26161">
        <ele>147</ele>
        <time>2024-10-29T14:26:03.913+00:00</time>
      </trkpt>
      <trkpt lat="49.41809" lon="1.26165">
        <ele>147</ele>
        <time>2024-10-29T14:26:08.435+00:00</time>
      </trkpt>
      <trkpt lat="49.41805" lon="1.26168">
        <ele>147</ele>
        <time>2024-10-29T14:26:12.379+00:00</time>
      </trkpt>
      <trkpt lat="49.418" lon="1.2617">
        <ele>147</ele>
        <time>2024-10-29T14:26:17+00:00</time>
      </trkpt>
      <trkpt lat="49.41796" lon="1.26172">
        <ele>147</ele>
        <time>2024-10-29T14:26:21.739+00:00</time>
      </trkpt>
      <trkpt lat="49.41791" lon="1.26173">
        <ele>148</ele>
        <time>2024-10-29T14:26:26.338+00:00</time>
      </trkpt>
      <trkpt lat="49.41787" lon="1.26174">
        <ele>148</ele>
        <time>2024-10-29T14:26:30.824+00:00</time>
      </trkpt>
      <trkpt lat="49.41784" lon="1.26177">
        <ele>148</ele>
        <time>2024-10-29T14:26:35.551+00:00</time>
      </trkpt>
      <trkpt lat="49.41779" lon="1.26177">
        <ele>148</ele>
        <time>2024-10-29T14:26:40+00:00</time>
      </trkpt>
      <trkpt lat="49.41774" lon="1.26178">
        <ele>148</ele>
        <time>2024-10-29T14:26:44.220+00:00</time>
      </trkpt>
      <trkpt lat="49.4177" lon="1.2618">
        <ele>148</ele>
        <time>2024-10-29T14:26:48.337+00:00</time>
      </trkpt>
      <trkpt lat="49.41767" lon="1.26185">
        <ele>150</ele>
        <time>2024-10-29T14:26:52.310+00:00</time>
      </trkpt>
      <trkpt lat="49.41762" lon="1.26189">
        <ele>151</ele>
        <time>2024-10-29T14:26:56.888+00:00</time>
      </trkpt>
      <trkpt lat="49.41757" lon="1.26191">
        <ele>151</ele>
        <time>2024-10-29T14:27:00.859+00:00</time>
      </trkpt>
      <trkpt lat="49.41752" lon="1.26193">
        <ele>151</ele>
        <time>2024-10-29T14:27:05.457+00:00</time>
      </trkpt>
      <trkpt lat="49.41747" lon="1.26194">
        <ele>151</ele>
        <time>2024-10-29T14:27:10+00:00</time>
      </trkpt>
      <trkpt lat="49.41743" lon="1.26195">
        <ele>151</ele>
        <time>2024-10-29T14:27:14.460+00:00</time>
      </trkpt>
      <trkpt lat="49.41739" lon="1.26196">
        <ele>151</ele>
        <time>2024-10-29T14:27:19+00:00</time>
      </trkpt>
      <trkpt lat="49.41736" lon="1.26199">
        <ele>151</ele>
        <time>2024-10-29T14:27:23.175+00:00</time>
      </trkpt>
      <trkpt lat="49.41733" lon="1.262">
        <ele>151</ele>
        <time>2024-10-29T14:27:27.865+00:00</time>
      </trkpt>
      <trkpt lat="49.41728" lon="1.26202">
        <ele>151</ele>
        <time>2024-10-29T14:27:31.834+00:00</time>
      </trkpt>
      <trkpt lat="49.41724" lon="1.26204">
        <ele>151</ele>
        <time>2024-10-29T14:27:36.243+00:00</time>
      </trkpt>
      <trkpt lat="49.41721" lon="1.26206">
        <ele>151</ele>
        <time>2024-10-29T14:27:40.255+00:00</time>
      </trkpt>
      <trkpt lat="49.41717" lon="1.26208">
        <ele>151</ele>
        <time>2024-10-29T14:27:44.984+00:00</time>
      </trkpt>
      <trkpt lat="49.41713" lon="1.26209">
        <ele>152</ele>
        <time>2024-10-29T14:27:49.480+00:00</time>
      </trkpt>
      <trkpt lat="49.41708" lon="1.26212">
        <ele>151</ele>
        <time>2024-10-29T14:27:53.973+00:00</time>
      </trkpt>
      <trkpt lat="49.41704" lon="1.26213">
        <ele>151</ele>
        <time>2024-10-29T14:27:58.298+00:00</time>
      </trkpt>
      <trkpt lat="49.417" lon="1.26216">
        <ele>151</ele>
        <time>2024-10-29T14:28:02.937+00:00</time>
      </trkpt>
      <trkpt lat="49.41696" lon="1.26218">
        <ele>151</ele>
        <time>2024-10-29T14:28:07.344+00:00</time>
      </trkpt>
      <trkpt lat="49.41691" lon="1.2622">
        <ele>151</ele>
        <time>2024-10-29T14:28:11.461+00:00</time>
      </trkpt>
      <trkpt lat="49.41688" lon="1.26222">
        <ele>151</ele>
        <time>2024-10-29T14:28:15.861+00:00</time>
      </trkpt>
      <trkpt lat="49.41682" lon="1.26225">
        <ele>151</ele>
        <time>2024-10-29T14:28:20.574+00:00</time>
      </trkpt>
      <trkpt lat="49.41676" lon="1.26225">
        <ele>151</ele>
        <time>2024-10-29T14:28:25+00:00</time>
      </trkpt>
      <trkpt lat="49.41672" lon="1.26225">
        <ele>151</ele>
        <time>2024-10-29T14:28:28.999+00:00</time>
      </trkpt>
      <trkpt lat="49.41667" lon="1.26227">
        <ele>151</ele>
        <time>2024-10-29T14:28:33.442+00:00</time>
      </trkpt>
      <trkpt lat="49.41664" lon="1.26229">
        <ele>151</ele>
        <time>2024-10-29T14:28:38+00:00</time>
      </trkpt>
      <trkpt lat="49.4166" lon="1.26232">
        <ele>151</ele>
        <time>2024-10-29T14:28:42.557+00:00</time>
      </trkpt>
      <trkpt lat="49.41656" lon="1.26235">
        <ele>151</ele>
        <time>2024-10-29T14:28:46.958+00:00</time>
      </trkpt>
      <trkpt lat="49.41651" lon="1.26236">
        <ele>152</ele>
        <time>2024-10-29T14:28:51.514+00:00</time>
      </trkpt>
      <trkpt lat="49.41647" lon="1.26239">
        <ele>152</ele>
        <time>2024-10-29T14:28:55.935+00:00</time>
      </trkpt>
      <trkpt lat="49.41643" lon="1.26241">
        <ele>152</ele>
        <time>2024-10-29T14:29:00.535+00:00</time>
      </trkpt>
      <trkpt lat="49.41638" lon="1.26243">
        <ele>152</ele>
        <time>2024-10-29T14:29:05+00:00</time>
      </trkpt>
      <trkpt lat="49.41634" lon="1.26245">
        <ele>152</ele>
        <time>2024-10-29T14:29:09.517+00:00</time>
      </trkpt>
      <trkpt lat="49.41629" lon="1.26248">
        <ele>152</ele>
        <time>2024-10-29T14:29:13.878+00:00</time>
      </trkpt>
      <trkpt lat="49.41624" lon="1.26252">
        <ele>152</ele>
        <time>2024-10-29T14:29:18.553+00:00</time>
      </trkpt>
      <trkpt lat="49.41621" lon="1.26255">
        <ele>152</ele>
        <time>2024-10-29T14:29:22.892+00:00</time>
      </trkpt>
      <trkpt lat="49.41617" lon="1.26256">
        <ele>152</ele>
        <time>2024-10-29T14:29:27.586+00:00</time>
      </trkpt>
      <trkpt lat="49.41613" lon="1.26258">
        <ele>152</ele>
        <time>2024-10-29T14:29:32+00:00</time>
      </trkpt>
      <trkpt lat="49.41607" lon="1.26262">
        <ele>152</ele>
        <time>2024-10-29T14:29:36.408+00:00</time>
      </trkpt>
      <trkpt lat="49.41603" lon="1.26266">
        <ele>152</ele>
        <time>2024-10-29T14:29:40.600+00:00</time>
      </trkpt>
      <trkpt lat="49.41602" lon="1.26266">
        <ele>152</ele>
        <time>2024-10-29T14:29:44.605+00:00</time>
      </trkpt>
      <trkpt lat="49.41601" lon="1.26265">
        <ele>152</ele>
        <time>2024-10-29T14:29:48.899+00:00</time>
      </trkpt>
      <trkpt lat="49.41596" lon="1.26263">
        <ele>151</ele>
        <time>2024-10-29T14:29:53+00:00</time>
      </trkpt>
      <trkpt lat="49.41592" lon="1.26267">
        <ele>151</ele>
        <time>2024-10-29T14:29:57.673+00:00</time>
      </trkpt>
      <trkpt lat="49.41586" lon="1.26272">
        <ele>151</ele>
        <time>2024-10-29T14:30:02+00:00</time>
      </trkpt>
      <trkpt lat="49.41581" lon="1.26273">
        <ele>151</ele>
        <time>2024-10-29T14:30:06+00:00</time>
      </trkpt>
      <trkpt lat="49.41575" lon="1.26275">
        <ele>151</ele>
        <time>2024-10-29T14:30:10.009+00:00</time>
      </trkpt>
      <trkpt lat="49.41569" lon="1.26276">
        <ele>151</ele>
        <time>2024-10-29T14:30:14.538+00:00</time>
      </trkpt>
      <trkpt lat="49.41565" lon="1.2628">
        <ele>151</ele>
        <time>2024-10-29T14:30:19+00:00</time>
      </trkpt>
      <trkpt lat="49.41562" lon="1.26284">
        <ele>151</ele>
        <time>2024-10-29T14:30:23.606+00:00</time>
      </trkpt>
      <trkpt lat="49.41559" lon="1.26287">
        <ele>151</ele>
        <time>2024-10-29T14:30:28.001+00:00</time>
      </trkpt>
      <trkpt lat="49.41556" lon="1.26289">
        <ele>151</ele>
        <time>2024-10-29T14:30:32.443+00:00</time>
      </trkpt>
      <trkpt lat="49.41553" lon="1.26291">
        <ele>151</ele>
        <time>2024-10-29T14:31:34+00:00</time>
      </trkpt>
      <trkpt lat="49.41549" lon="1.26292">
        <ele>151</ele>
        <time>2024-10-29T14:31:38+00:00</time>
      </trkpt>
      <trkpt lat="49.41546" lon="1.26295">
        <ele>151</ele>
        <time>2024-10-29T14:31:43+00:00</time>
      </trkpt>
      <trkpt lat="49.41542" lon="1.26296">
        <ele>151</ele>
        <time>2024-10-29T14:31:47+00:00</time>
      </trkpt>
      <trkpt lat="49.41535" lon="1.26298">
        <ele>151</ele>
        <time>2024-10-29T14:31:52+00:00</time>
      </trkpt>
      <trkpt lat="49.4153" lon="1.26299">
        <ele>151</ele>
        <time>2024-10-29T14:31:57+00:00</time>
      </trkpt>
      <trkpt lat="49.41525" lon="1.26301">
        <ele>151</ele>
        <time>2024-10-29T14:32:02+00:00</time>
      </trkpt>
      <trkpt lat="49.4152" lon="1.26304">
        <ele>151</ele>
        <time>2024-10-29T14:32:07+00:00</time>
      </trkpt>
      <trkpt lat="49.41515" lon="1.26301">
        <ele>151</ele>
        <time>2024-10-29T14:32:12+00:00</time>
      </trkpt>
      <trkpt lat="49.4151" lon="1.26301">
        <ele>149</ele>
        <time>2024-10-29T14:32:16.998+00:00</time>
      </trkpt>
      <trkpt lat="49.41508" lon="1.26304">
        <ele>149</ele>
        <time>2024-10-29T14:32:21.998+00:00</time>
      </trkpt>
      <trkpt lat="49.41503" lon="1.26306">
        <ele>149</ele>
        <time>2024-10-29T14:32:26+00:00</time>
      </trkpt>
      <trkpt lat="49.415" lon="1.26307">
        <ele>149</ele>
        <time>2024-10-29T14:32:30+00:00</time>
      </trkpt>
      <trkpt lat="49.41501" lon="1.26307">
        <ele>149</ele>
        <time>2024-10-29T14:32:35+00:00</time>
      </trkpt>
      <trkpt lat="49.41501" lon="1.26306">
        <ele>149</ele>
        <time>2024-10-29T14:32:39.845+00:00</time>
      </trkpt>
      <trkpt lat="49.41499" lon="1.26307">
        <ele>149</ele>
        <time>2024-10-29T14:32:44+00:00</time>
      </trkpt>
      <trkpt lat="49.41493" lon="1.26306">
        <ele>149</ele>
        <time>2024-10-29T14:32:48.582+00:00</time>
      </trkpt>
      <trkpt lat="49.41487" lon="1.2631">
        <ele>149</ele>
        <time>2024-10-29T14:32:52.690+00:00</time>
      </trkpt>
      <trkpt lat="49.41482" lon="1.26312">
        <ele>146</ele>
        <time>2024-10-29T14:32:57+00:00</time>
      </trkpt>
      <trkpt lat="49.41477" lon="1.26309">
        <ele>146</ele>
        <time>2024-10-29T14:33:02.013+00:00</time>
      </trkpt>
      <trkpt lat="49.41472" lon="1.26312">
        <ele>146</ele>
        <time>2024-10-29T14:33:06.560+00:00</time>
      </trkpt>
      <trkpt lat="49.41467" lon="1.26315">
        <ele>146</ele>
        <time>2024-10-29T14:33:10.895+00:00</time>
      </trkpt>
      <trkpt lat="49.41463" lon="1.26316">
        <ele>146</ele>
        <time>2024-10-29T14:33:15.197+00:00</time>
      </trkpt>
      <trkpt lat="49.41457" lon="1.26316">
        <ele>142</ele>
        <time>2024-10-29T14:33:19.437+00:00</time>
      </trkpt>
      <trkpt lat="49.41453" lon="1.26318">
        <ele>142</ele>
        <time>2024-10-29T14:33:23.697+00:00</time>
      </trkpt>
      <trkpt lat="49.41449" lon="1.26318">
        <ele>142</ele>
        <time>2024-10-29T14:33:27.994+00:00</time>
      </trkpt>
      <trkpt lat="49.41445" lon="1.26318">
        <ele>142</ele>
        <time>2024-10-29T14:33:32.323+00:00</time>
      </trkpt>
      <trkpt lat="49.4144" lon="1.26319">
        <ele>142</ele>
        <time>2024-10-29T14:33:36.654+00:00</time>
      </trkpt>
      <trkpt lat="49.41436" lon="1.26318">
        <ele>142</ele>
        <time>2024-10-29T14:33:40.993+00:00</time>
      </trkpt>
      <trkpt lat="49.41431" lon="1.26316">
        <ele>142</ele>
        <time>2024-10-29T14:33:45.232+00:00</time>
      </trkpt>
      <trkpt lat="49.41426" lon="1.26313">
        <ele>137</ele>
        <time>2024-10-29T14:33:49.435+00:00</time>
      </trkpt>
      <trkpt lat="49.41422" lon="1.26312">
        <ele>137</ele>
        <time>2024-10-29T14:33:53.595+00:00</time>
      </trkpt>
      <trkpt lat="49.41418" lon="1.26311">
        <ele>137</ele>
        <time>2024-10-29T14:33:57.937+00:00</time>
      </trkpt>
      <trkpt lat="49.41415" lon="1.26307">
        <ele>137</ele>
        <time>2024-10-29T14:34:02.318+00:00</time>
      </trkpt>
      <trkpt lat="49.41413" lon="1.263">
        <ele>137</ele>
        <time>2024-10-29T14:34:06.788+00:00</time>
      </trkpt>
      <trkpt lat="49.41411" lon="1.26295">
        <ele>137</ele>
        <time>2024-10-29T14:34:11+00:00</time>
      </trkpt>
      <trkpt lat="49.41409" lon="1.26291">
        <ele>138</ele>
        <time>2024-10-29T14:34:15.638+00:00</time>
      </trkpt>
      <trkpt lat="49.41406" lon="1.26286">
        <ele>138</ele>
        <time>2024-10-29T14:34:19.878+00:00</time>
      </trkpt>
      <trkpt lat="49.41404" lon="1.26277">
        <ele>138</ele>
        <time>2024-10-29T14:34:24.297+00:00</time>
      </trkpt>
      <trkpt lat="49.41401" lon="1.26269">
        <ele>131</ele>
        <time>2024-10-29T14:34:28.726+00:00</time>
      </trkpt>
      <trkpt lat="49.414" lon="1.26265">
        <ele>131</ele>
        <time>2024-10-29T14:34:32.999+00:00</time>
      </trkpt>
      <trkpt lat="49.41397" lon="1.26259">
        <ele>132</ele>
        <time>2024-10-29T14:34:37.380+00:00</time>
      </trkpt>
      <trkpt lat="49.41396" lon="1.26253">
        <ele>132</ele>
        <time>2024-10-29T14:34:41.789+00:00</time>
      </trkpt>
      <trkpt lat="49.41395" lon="1.26246">
        <ele>132</ele>
        <time>2024-10-29T14:34:46.185+00:00</time>
      </trkpt>
      <trkpt lat="49.41393" lon="1.26237">
        <ele>132</ele>
        <time>2024-10-29T14:34:50.584+00:00</time>
      </trkpt>
      <trkpt lat="49.41391" lon="1.26231">
        <ele>134</ele>
        <time>2024-10-29T14:34:54.903+00:00</time>
      </trkpt>
      <trkpt lat="49.41389" lon="1.26227">
        <ele>134</ele>
        <time>2024-10-29T14:34:59.877+00:00</time>
      </trkpt>
      <trkpt lat="49.41388" lon="1.26222">
        <ele>134</ele>
        <time>2024-10-29T14:35:04.265+00:00</time>
      </trkpt>
      <trkpt lat="49.41387" lon="1.26215">
        <ele>134</ele>
        <time>2024-10-29T14:35:08.662+00:00</time>
      </trkpt>
      <trkpt lat="49.41384" lon="1.26208">
        <ele>135</ele>
        <time>2024-10-29T14:35:13+00:00</time>
      </trkpt>
      <trkpt lat="49.41382" lon="1.26201">
        <ele>135</ele>
        <time>2024-10-29T14:35:17.480+00:00</time>
      </trkpt>
      <trkpt lat="49.4138" lon="1.26193">
        <ele>135</ele>
        <time>2024-10-29T14:35:21.797+00:00</time>
      </trkpt>
      <trkpt lat="49.41378" lon="1.26186">
        <ele>135</ele>
        <time>2024-10-29T14:35:25.998+00:00</time>
      </trkpt>
      <trkpt lat="49.41376" lon="1.26182">
        <ele>135</ele>
        <time>2024-10-29T14:35:30.431+00:00</time>
      </trkpt>
      <trkpt lat="49.41374" lon="1.26177">
        <ele>128</ele>
        <time>2024-10-29T14:35:34.752+00:00</time>
      </trkpt>
      <trkpt lat="49.41371" lon="1.26172">
        <ele>128</ele>
        <time>2024-10-29T14:35:38.998+00:00</time>
      </trkpt>
      <trkpt lat="49.41367" lon="1.26165">
        <ele>128</ele>
        <time>2024-10-29T14:35:43.443+00:00</time>
      </trkpt>
      <trkpt lat="49.41364" lon="1.26159">
        <ele>128</ele>
        <time>2024-10-29T14:35:47.693+00:00</time>
      </trkpt>
      <trkpt lat="49.41364" lon="1.26152">
        <ele>128</ele>
        <time>2024-10-29T14:35:51.851+00:00</time>
      </trkpt>
      <trkpt lat="49.41361" lon="1.2615">
        <ele>128</ele>
        <time>2024-10-29T14:35:56+00:00</time>
      </trkpt>
      <trkpt lat="49.41356" lon="1.26149">
        <ele>128</ele>
        <time>2024-10-29T14:36:01+00:00</time>
      </trkpt>
      <trkpt lat="49.41354" lon="1.26143">
        <ele>128</ele>
        <time>2024-10-29T14:36:05.594+00:00</time>
      </trkpt>
      <trkpt lat="49.41352" lon="1.26139">
        <ele>128</ele>
        <time>2024-10-29T14:36:09.665+00:00</time>
      </trkpt>
      <trkpt lat="49.41353" lon="1.26132">
        <ele>128</ele>
        <time>2024-10-29T14:36:13.854+00:00</time>
      </trkpt>
      <trkpt lat="49.41352" lon="1.26121">
        <ele>126</ele>
        <time>2024-10-29T14:36:18.174+00:00</time>
      </trkpt>
      <trkpt lat="49.41349" lon="1.26113">
        <ele>126</ele>
        <time>2024-10-29T14:36:22.551+00:00</time>
      </trkpt>
      <trkpt lat="49.41346" lon="1.26107">
        <ele>120</ele>
        <time>2024-10-29T14:36:26.995+00:00</time>
      </trkpt>
      <trkpt lat="49.41344" lon="1.261">
        <ele>120</ele>
        <time>2024-10-29T14:36:31.483+00:00</time>
      </trkpt>
      <trkpt lat="49.41343" lon="1.26095">
        <ele>119</ele>
        <time>2024-10-29T14:36:35.786+00:00</time>
      </trkpt>
      <trkpt lat="49.4134" lon="1.26087">
        <ele>119</ele>
        <time>2024-10-29T14:36:40.169+00:00</time>
      </trkpt>
      <trkpt lat="49.41337" lon="1.2608">
        <ele>119</ele>
        <time>2024-10-29T14:36:44.538+00:00</time>
      </trkpt>
      <trkpt lat="49.41334" lon="1.26074">
        <ele>119</ele>
        <time>2024-10-29T14:36:48.934+00:00</time>
      </trkpt>
      <trkpt lat="49.41334" lon="1.26068">
        <ele>117</ele>
        <time>2024-10-29T14:36:53.164+00:00</time>
      </trkpt>
      <trkpt lat="49.41332" lon="1.2606">
        <ele>117</ele>
        <time>2024-10-29T14:36:57.494+00:00</time>
      </trkpt>
      <trkpt lat="49.41329" lon="1.26054">
        <ele>117</ele>
        <time>2024-10-29T14:37:01.937+00:00</time>
      </trkpt>
      <trkpt lat="49.41326" lon="1.26048">
        <ele>117</ele>
        <time>2024-10-29T14:37:06.175+00:00</time>
      </trkpt>
      <trkpt lat="49.41324" lon="1.26042">
        <ele>117</ele>
        <time>2024-10-29T14:37:10.673+00:00</time>
      </trkpt>
      <trkpt lat="49.41321" lon="1.26034">
        <ele>116</ele>
        <time>2024-10-29T14:37:14.991+00:00</time>
      </trkpt>
      <trkpt lat="49.4132" lon="1.26027">
        <ele>116</ele>
        <time>2024-10-29T14:37:19.360+00:00</time>
      </trkpt>
      <trkpt lat="49.41319" lon="1.2602">
        <ele>116</ele>
        <time>2024-10-29T14:37:23.918+00:00</time>
      </trkpt>
      <trkpt lat="49.41319" lon="1.26012">
        <ele>115</ele>
        <time>2024-10-29T14:37:28.430+00:00</time>
      </trkpt>
      <trkpt lat="49.4132" lon="1.26007">
        <ele>115</ele>
        <time>2024-10-29T14:37:32.753+00:00</time>
      </trkpt>
      <trkpt lat="49.41322" lon="1.26003">
        <ele>115</ele>
        <time>2024-10-29T14:37:36.834+00:00</time>
      </trkpt>
      <trkpt lat="49.41327" lon="1.25999">
        <ele>115</ele>
        <time>2024-10-29T14:37:41+00:00</time>
      </trkpt>
      <trkpt lat="49.41331" lon="1.25993">
        <ele>115</ele>
        <time>2024-10-29T14:37:45.538+00:00</time>
      </trkpt>
      <trkpt lat="49.41333" lon="1.25987">
        <ele>115</ele>
        <time>2024-10-29T14:37:49.890+00:00</time>
      </trkpt>
      <trkpt lat="49.41333" lon="1.25984">
        <ele>114</ele>
        <time>2024-10-29T14:41:12+00:00</time>
      </trkpt>
      <trkpt lat="49.41329" lon="1.2598">
        <ele>114</ele>
        <time>2024-10-29T14:41:17+00:00</time>
      </trkpt>
      <trkpt lat="49.41324" lon="1.25983">
        <ele>114</ele>
        <time>2024-10-29T14:41:22+00:00</time>
      </trkpt>
      <trkpt lat="49.4132" lon="1.25986">
        <ele>115</ele>
        <time>2024-10-29T14:41:27+00:00</time>
      </trkpt>
      <trkpt lat="49.41318" lon="1.25974">
        <ele>114</ele>
        <time>2024-10-29T14:41:31.822+00:00</time>
      </trkpt>
      <trkpt lat="49.4131" lon="1.25976">
        <ele>114</ele>
        <time>2024-10-29T14:41:36.244+00:00</time>
      </trkpt>
      <trkpt lat="49.41302" lon="1.25981">
        <ele>114</ele>
        <time>2024-10-29T14:41:40.856+00:00</time>
      </trkpt>
      <trkpt lat="49.41297" lon="1.25985">
        <ele>114</ele>
        <time>2024-10-29T14:41:45.332+00:00</time>
      </trkpt>
      <trkpt lat="49.41293" lon="1.25987">
        <ele>115</ele>
        <time>2024-10-29T14:41:49.940+00:00</time>
      </trkpt>
      <trkpt lat="49.41289" lon="1.25988">
        <ele>115</ele>
        <time>2024-10-29T14:41:54.364+00:00</time>
      </trkpt>
      <trkpt lat="49.41285" lon="1.25987">
        <ele>115</ele>
        <time>2024-10-29T14:41:58.995+00:00</time>
      </trkpt>
      <trkpt lat="49.41281" lon="1.25983">
        <ele>115</ele>
        <time>2024-10-29T14:42:03.636+00:00</time>
      </trkpt>
      <trkpt lat="49.41277" lon="1.25977">
        <ele>115</ele>
        <time>2024-10-29T14:42:07.612+00:00</time>
      </trkpt>
      <trkpt lat="49.41274" lon="1.2597">
        <ele>115</ele>
        <time>2024-10-29T14:42:12+00:00</time>
      </trkpt>
      <trkpt lat="49.41272" lon="1.25963">
        <ele>115</ele>
        <time>2024-10-29T14:42:16.493+00:00</time>
      </trkpt>
      <trkpt lat="49.41271" lon="1.25955">
        <ele>115</ele>
        <time>2024-10-29T14:42:20.630+00:00</time>
      </trkpt>
      <trkpt lat="49.41271" lon="1.25948">
        <ele>115</ele>
        <time>2024-10-29T14:42:25.322+00:00</time>
      </trkpt>
      <trkpt lat="49.41271" lon="1.25942">
        <ele>115</ele>
        <time>2024-10-29T14:42:29.957+00:00</time>
      </trkpt>
      <trkpt lat="49.41273" lon="1.25937">
        <ele>115</ele>
        <time>2024-10-29T14:42:34.502+00:00</time>
      </trkpt>
      <trkpt lat="49.41274" lon="1.25931">
        <ele>115</ele>
        <time>2024-10-29T14:42:38.471+00:00</time>
      </trkpt>
      <trkpt lat="49.41276" lon="1.25924">
        <ele>115</ele>
        <time>2024-10-29T14:42:42.994+00:00</time>
      </trkpt>
      <trkpt lat="49.41277" lon="1.25916">
        <ele>115</ele>
        <time>2024-10-29T14:42:47.676+00:00</time>
      </trkpt>
      <trkpt lat="49.41279" lon="1.25908">
        <ele>115</ele>
        <time>2024-10-29T14:42:52.218+00:00</time>
      </trkpt>
      <trkpt lat="49.4128" lon="1.25902">
        <ele>116</ele>
        <time>2024-10-29T14:42:56.766+00:00</time>
      </trkpt>
      <trkpt lat="49.41283" lon="1.25896">
        <ele>116</ele>
        <time>2024-10-29T14:43:01.197+00:00</time>
      </trkpt>
      <trkpt lat="49.41284" lon="1.25889">
        <ele>116</ele>
        <time>2024-10-29T14:43:05.822+00:00</time>
      </trkpt>
      <trkpt lat="49.41285" lon="1.25881">
        <ele>116</ele>
        <time>2024-10-29T14:43:10.322+00:00</time>
      </trkpt>
      <trkpt lat="49.41286" lon="1.25873">
        <ele>116</ele>
        <time>2024-10-29T14:43:14.956+00:00</time>
      </trkpt>
      <trkpt lat="49.41286" lon="1.25866">
        <ele>116</ele>
        <time>2024-10-29T14:43:19.447+00:00</time>
      </trkpt>
      <trkpt lat="49.41287" lon="1.25859">
        <ele>116</ele>
        <time>2024-10-29T14:43:23.536+00:00</time>
      </trkpt>
      <trkpt lat="49.41287" lon="1.25851">
        <ele>116</ele>
        <time>2024-10-29T14:43:27.999+00:00</time>
      </trkpt>
      <trkpt lat="49.41288" lon="1.25842">
        <ele>117</ele>
        <time>2024-10-29T14:43:32.596+00:00</time>
      </trkpt>
      <trkpt lat="49.41288" lon="1.25835">
        <ele>117</ele>
        <time>2024-10-29T14:43:37.038+00:00</time>
      </trkpt>
      <trkpt lat="49.41289" lon="1.25829">
        <ele>117</ele>
        <time>2024-10-29T14:43:41+00:00</time>
      </trkpt>
      <trkpt lat="49.41291" lon="1.25824">
        <ele>117</ele>
        <time>2024-10-29T14:43:45.797+00:00</time>
      </trkpt>
      <trkpt lat="49.41293" lon="1.25817">
        <ele>115</ele>
        <time>2024-10-29T14:43:50.505+00:00</time>
      </trkpt>
      <trkpt lat="49.41294" lon="1.25811">
        <ele>115</ele>
        <time>2024-10-29T14:43:55+00:00</time>
      </trkpt>
      <trkpt lat="49.41295" lon="1.25805">
        <ele>115</ele>
        <time>2024-10-29T14:43:58.995+00:00</time>
      </trkpt>
      <trkpt lat="49.41296" lon="1.25797">
        <ele>115</ele>
        <time>2024-10-29T14:44:03.676+00:00</time>
      </trkpt>
      <trkpt lat="49.41297" lon="1.25789">
        <ele>117</ele>
        <time>2024-10-29T14:44:07.697+00:00</time>
      </trkpt>
      <trkpt lat="49.41297" lon="1.25782">
        <ele>117</ele>
        <time>2024-10-29T14:44:12.300+00:00</time>
      </trkpt>
      <trkpt lat="49.41297" lon="1.25775">
        <ele>117</ele>
        <time>2024-10-29T14:44:16.948+00:00</time>
      </trkpt>
      <trkpt lat="49.413" lon="1.25768">
        <ele>117</ele>
        <time>2024-10-29T14:44:21.483+00:00</time>
      </trkpt>
      <trkpt lat="49.41302" lon="1.25762">
        <ele>120</ele>
        <time>2024-10-29T14:44:25.505+00:00</time>
      </trkpt>
      <trkpt lat="49.41303" lon="1.25754">
        <ele>120</ele>
        <time>2024-10-29T14:44:29.994+00:00</time>
      </trkpt>
      <trkpt lat="49.41303" lon="1.25745">
        <ele>120</ele>
        <time>2024-10-29T14:44:34.651+00:00</time>
      </trkpt>
      <trkpt lat="49.41303" lon="1.25738">
        <ele>120</ele>
        <time>2024-10-29T14:44:38.647+00:00</time>
      </trkpt>
      <trkpt lat="49.41303" lon="1.25732">
        <ele>122</ele>
        <time>2024-10-29T14:44:43+00:00</time>
      </trkpt>
      <trkpt lat="49.41304" lon="1.25725">
        <ele>122</ele>
        <time>2024-10-29T14:44:47.295+00:00</time>
      </trkpt>
      <trkpt lat="49.41305" lon="1.25715">
        <ele>122</ele>
        <time>2024-10-29T14:44:51.891+00:00</time>
      </trkpt>
      <trkpt lat="49.41305" lon="1.25706">
        <ele>122</ele>
        <time>2024-10-29T14:44:56.450+00:00</time>
      </trkpt>
      <trkpt lat="49.41303" lon="1.25698">
        <ele>122</ele>
        <time>2024-10-29T14:45:00.876+00:00</time>
      </trkpt>
      <trkpt lat="49.41301" lon="1.25691">
        <ele>122</ele>
        <time>2024-10-29T14:45:05.514+00:00</time>
      </trkpt>
      <trkpt lat="49.41298" lon="1.25684">
        <ele>122</ele>
        <time>2024-10-29T14:45:09.912+00:00</time>
      </trkpt>
      <trkpt lat="49.41295" lon="1.25677">
        <ele>121</ele>
        <time>2024-10-29T14:45:14.561+00:00</time>
      </trkpt>
      <trkpt lat="49.41292" lon="1.25671">
        <ele>121</ele>
        <time>2024-10-29T14:45:19+00:00</time>
      </trkpt>
      <trkpt lat="49.41289" lon="1.25665">
        <ele>123</ele>
        <time>2024-10-29T14:45:23.654+00:00</time>
      </trkpt>
      <trkpt lat="49.41286" lon="1.25661">
        <ele>123</ele>
        <time>2024-10-29T14:45:27.676+00:00</time>
      </trkpt>
      <trkpt lat="49.41283" lon="1.25657">
        <ele>123</ele>
        <time>2024-10-29T14:45:31.699+00:00</time>
      </trkpt>
      <trkpt lat="49.4128" lon="1.25651">
        <ele>122</ele>
        <time>2024-10-29T14:45:36.152+00:00</time>
      </trkpt>
      <trkpt lat="49.41277" lon="1.25646">
        <ele>122</ele>
        <time>2024-10-29T14:45:40.870+00:00</time>
      </trkpt>
      <trkpt lat="49.41273" lon="1.25643">
        <ele>122</ele>
        <time>2024-10-29T14:45:45.323+00:00</time>
      </trkpt>
      <trkpt lat="49.41268" lon="1.25639">
        <ele>122</ele>
        <time>2024-10-29T14:45:49.978+00:00</time>
      </trkpt>
      <trkpt lat="49.41263" lon="1.25634">
        <ele>125</ele>
        <time>2024-10-29T14:45:54.513+00:00</time>
      </trkpt>
      <trkpt lat="49.41258" lon="1.25629">
        <ele>125</ele>
        <time>2024-10-29T14:45:59+00:00</time>
      </trkpt>
      <trkpt lat="49.41254" lon="1.25625">
        <ele>124</ele>
        <time>2024-10-29T14:46:02.876+00:00</time>
      </trkpt>
      <trkpt lat="49.41249" lon="1.2562">
        <ele>124</ele>
        <time>2024-10-29T14:46:07.537+00:00</time>
      </trkpt>
      <trkpt lat="49.41245" lon="1.25616">
        <ele>124</ele>
        <time>2024-10-29T14:46:11.999+00:00</time>
      </trkpt>
      <trkpt lat="49.41241" lon="1.25612">
        <ele>124</ele>
        <time>2024-10-29T14:46:16.735+00:00</time>
      </trkpt>
      <trkpt lat="49.41236" lon="1.25607">
        <ele>124</ele>
        <time>2024-10-29T14:46:21.447+00:00</time>
      </trkpt>
      <trkpt lat="49.41232" lon="1.25603">
        <ele>127</ele>
        <time>2024-10-29T14:46:25.999+00:00</time>
      </trkpt>
      <trkpt lat="49.41227" lon="1.25598">
        <ele>127</ele>
        <time>2024-10-29T14:46:30.677+00:00</time>
      </trkpt>
      <trkpt lat="49.41224" lon="1.25595">
        <ele>125</ele>
        <time>2024-10-29T14:46:34.735+00:00</time>
      </trkpt>
      <trkpt lat="49.41219" lon="1.25591">
        <ele>125</ele>
        <time>2024-10-29T14:46:39.276+00:00</time>
      </trkpt>
      <trkpt lat="49.41215" lon="1.25588">
        <ele>125</ele>
        <time>2024-10-29T14:46:44.003+00:00</time>
      </trkpt>
      <trkpt lat="49.4121" lon="1.25584">
        <ele>125</ele>
        <time>2024-10-29T14:46:48.517+00:00</time>
      </trkpt>
      <trkpt lat="49.41206" lon="1.25579">
        <ele>127</ele>
        <time>2024-10-29T14:46:53+00:00</time>
      </trkpt>
      <trkpt lat="49.41201" lon="1.25574">
        <ele>127</ele>
        <time>2024-10-29T14:46:57.736+00:00</time>
      </trkpt>
      <trkpt lat="49.41196" lon="1.2557">
        <ele>127</ele>
        <time>2024-10-29T14:47:02.380+00:00</time>
      </trkpt>
      <trkpt lat="49.41192" lon="1.25565">
        <ele>127</ele>
        <time>2024-10-29T14:47:06.937+00:00</time>
      </trkpt>
      <trkpt lat="49.41189" lon="1.25562">
        <ele>127</ele>
        <time>2024-10-29T14:47:10.979+00:00</time>
      </trkpt>
      <trkpt lat="49.41186" lon="1.25559">
        <ele>127</ele>
        <time>2024-10-29T14:47:15.617+00:00</time>
      </trkpt>
      <trkpt lat="49.41183" lon="1.25555">
        <ele>127</ele>
        <time>2024-10-29T14:47:20.098+00:00</time>
      </trkpt>
      <trkpt lat="49.41179" lon="1.25553">
        <ele>131</ele>
        <time>2024-10-29T14:47:24.757+00:00</time>
      </trkpt>
      <trkpt lat="49.41176" lon="1.25549">
        <ele>131</ele>
        <time>2024-10-29T14:47:29+00:00</time>
      </trkpt>
      <trkpt lat="49.41173" lon="1.25546">
        <ele>131</ele>
        <time>2024-10-29T14:47:33.276+00:00</time>
      </trkpt>
      <trkpt lat="49.4117" lon="1.25541">
        <ele>131</ele>
        <time>2024-10-29T14:47:37.955+00:00</time>
      </trkpt>
      <trkpt lat="49.41167" lon="1.25537">
        <ele>131</ele>
        <time>2024-10-29T14:47:42.439+00:00</time>
      </trkpt>
      <trkpt lat="49.41163" lon="1.25534">
        <ele>131</ele>
        <time>2024-10-29T14:47:46.999+00:00</time>
      </trkpt>
      <trkpt lat="49.41161" lon="1.25529">
        <ele>131</ele>
        <time>2024-10-29T14:47:50.999+00:00</time>
      </trkpt>
      <trkpt lat="49.41159" lon="1.25523">
        <ele>131</ele>
        <time>2024-10-29T14:47:54.994+00:00</time>
      </trkpt>
      <trkpt lat="49.41155" lon="1.25518">
        <ele>131</ele>
        <time>2024-10-29T14:47:59.597+00:00</time>
      </trkpt>
      <trkpt lat="49.41152" lon="1.25513">
        <ele>134</ele>
        <time>2024-10-29T14:48:03.605+00:00</time>
      </trkpt>
      <trkpt lat="49.41148" lon="1.25508">
        <ele>134</ele>
        <time>2024-10-29T14:48:08.322+00:00</time>
      </trkpt>
      <trkpt lat="49.41145" lon="1.25502">
        <ele>134</ele>
        <time>2024-10-29T14:48:12.891+00:00</time>
      </trkpt>
      <trkpt lat="49.41141" lon="1.25497">
        <ele>134</ele>
        <time>2024-10-29T14:48:17.618+00:00</time>
      </trkpt>
      <trkpt lat="49.41137" lon="1.25492">
        <ele>134</ele>
        <time>2024-10-29T14:48:21.994+00:00</time>
      </trkpt>
      <trkpt lat="49.41134" lon="1.25487">
        <ele>134</ele>
        <time>2024-10-29T14:48:26+00:00</time>
      </trkpt>
      <trkpt lat="49.41131" lon="1.25482">
        <ele>133</ele>
        <time>2024-10-29T14:48:30.014+00:00</time>
      </trkpt>
      <trkpt lat="49.41127" lon="1.25475">
        <ele>133</ele>
        <time>2024-10-29T14:48:34.802+00:00</time>
      </trkpt>
      <trkpt lat="49.41124" lon="1.25469">
        <ele>137</ele>
        <time>2024-10-29T14:48:39.356+00:00</time>
      </trkpt>
      <trkpt lat="49.41121" lon="1.25462">
        <ele>137</ele>
        <time>2024-10-29T14:48:43.992+00:00</time>
      </trkpt>
      <trkpt lat="49.41118" lon="1.25457">
        <ele>135</ele>
        <time>2024-10-29T14:48:48.537+00:00</time>
      </trkpt>
      <trkpt lat="49.41114" lon="1.2545">
        <ele>135</ele>
        <time>2024-10-29T14:48:53+00:00</time>
      </trkpt>
      <trkpt lat="49.4111" lon="1.25445">
        <ele>135</ele>
        <time>2024-10-29T14:48:57.734+00:00</time>
      </trkpt>
      <trkpt lat="49.41107" lon="1.25438">
        <ele>135</ele>
        <time>2024-10-29T14:49:02.569+00:00</time>
      </trkpt>
      <trkpt lat="49.41104" lon="1.25433">
        <ele>135</ele>
        <time>2024-10-29T14:49:06.624+00:00</time>
      </trkpt>
      <trkpt lat="49.41101" lon="1.25428">
        <ele>135</ele>
        <time>2024-10-29T14:49:11.299+00:00</time>
      </trkpt>
      <trkpt lat="49.41098" lon="1.25426">
        <ele>135</ele>
        <time>2024-10-29T14:49:15.994+00:00</time>
      </trkpt>
      <trkpt lat="49.41094" lon="1.25422">
        <ele>138</ele>
        <time>2024-10-29T14:49:20.742+00:00</time>
      </trkpt>
      <trkpt lat="49.41094" lon="1.25416">
        <ele>138</ele>
        <time>2024-10-29T14:49:24.904+00:00</time>
      </trkpt>
      <trkpt lat="49.41092" lon="1.25408">
        <ele>138</ele>
        <time>2024-10-29T14:49:29.653+00:00</time>
      </trkpt>
      <trkpt lat="49.41088" lon="1.25408">
        <ele>138</ele>
        <time>2024-10-29T14:49:33.998+00:00</time>
      </trkpt>
      <trkpt lat="49.41087" lon="1.25409">
        <ele>138</ele>
        <time>2024-10-29T14:50:21+00:00</time>
      </trkpt>
      <trkpt lat="49.41086" lon="1.25407">
        <ele>138</ele>
        <time>2024-10-29T14:50:26+00:00</time>
      </trkpt>
      <trkpt lat="49.41083" lon="1.25401">
        <ele>138</ele>
        <time>2024-10-29T14:50:31+00:00</time>
      </trkpt>
      <trkpt lat="49.41083" lon="1.25394">
        <ele>138</ele>
        <time>2024-10-29T14:50:35.998+00:00</time>
      </trkpt>
      <trkpt lat="49.41082" lon="1.25386">
        <ele>138</ele>
        <time>2024-10-29T14:50:41+00:00</time>
      </trkpt>
      <trkpt lat="49.41082" lon="1.25378">
        <ele>138</ele>
        <time>2024-10-29T14:50:45.139+00:00</time>
      </trkpt>
      <trkpt lat="49.41081" lon="1.25371">
        <ele>138</ele>
        <time>2024-10-29T14:50:49.458+00:00</time>
      </trkpt>
      <trkpt lat="49.41079" lon="1.25364">
        <ele>138</ele>
        <time>2024-10-29T14:50:53.730+00:00</time>
      </trkpt>
      <trkpt lat="49.41079" lon="1.25356">
        <ele>138</ele>
        <time>2024-10-29T14:50:57.991+00:00</time>
      </trkpt>
      <trkpt lat="49.41079" lon="1.25348">
        <ele>138</ele>
        <time>2024-10-29T14:51:02.448+00:00</time>
      </trkpt>
      <trkpt lat="49.41078" lon="1.2534">
        <ele>138</ele>
        <time>2024-10-29T14:51:06.865+00:00</time>
      </trkpt>
      <trkpt lat="49.41076" lon="1.25334">
        <ele>138</ele>
        <time>2024-10-29T14:51:11.119+00:00</time>
      </trkpt>
      <trkpt lat="49.41077" lon="1.25325">
        <ele>138</ele>
        <time>2024-10-29T14:51:15.756+00:00</time>
      </trkpt>
      <trkpt lat="49.41078" lon="1.25318">
        <ele>138</ele>
        <time>2024-10-29T14:51:20.138+00:00</time>
      </trkpt>
      <trkpt lat="49.41078" lon="1.25311">
        <ele>138</ele>
        <time>2024-10-29T14:51:24.711+00:00</time>
      </trkpt>
      <trkpt lat="49.41077" lon="1.25304">
        <ele>138</ele>
        <time>2024-10-29T14:51:28.897+00:00</time>
      </trkpt>
      <trkpt lat="49.41074" lon="1.253">
        <ele>138</ele>
        <time>2024-10-29T14:51:32.996+00:00</time>
      </trkpt>
      <trkpt lat="49.41075" lon="1.25301">
        <ele>138</ele>
        <time>2024-10-29T14:51:45.997+00:00</time>
      </trkpt>
      <trkpt lat="49.41074" lon="1.25299">
        <ele>138</ele>
        <time>2024-10-29T14:51:51+00:00</time>
      </trkpt>
      <trkpt lat="49.4107" lon="1.25302">
        <ele>138</ele>
        <time>2024-10-29T14:51:55.277+00:00</time>
      </trkpt>
      <trkpt lat="49.41065" lon="1.25299">
        <ele>139</ele>
        <time>2024-10-29T14:51:59.429+00:00</time>
      </trkpt>
      <trkpt lat="49.4106" lon="1.25297">
        <ele>139</ele>
        <time>2024-10-29T14:52:03.558+00:00</time>
      </trkpt>
      <trkpt lat="49.41055" lon="1.25295">
        <ele>139</ele>
        <time>2024-10-29T14:52:07.692+00:00</time>
      </trkpt>
      <trkpt lat="49.41051" lon="1.2529">
        <ele>139</ele>
        <time>2024-10-29T14:52:11.973+00:00</time>
      </trkpt>
      <trkpt lat="49.41047" lon="1.25284">
        <ele>139</ele>
        <time>2024-10-29T14:52:16.335+00:00</time>
      </trkpt>
      <trkpt lat="49.41042" lon="1.2528">
        <ele>139</ele>
        <time>2024-10-29T14:52:20.654+00:00</time>
      </trkpt>
      <trkpt lat="49.41038" lon="1.25275">
        <ele>141</ele>
        <time>2024-10-29T14:52:25+00:00</time>
      </trkpt>
      <trkpt lat="49.41034" lon="1.25269">
        <ele>141</ele>
        <time>2024-10-29T14:52:29.290+00:00</time>
      </trkpt>
      <trkpt lat="49.4103" lon="1.25263">
        <ele>142</ele>
        <time>2024-10-29T14:52:33.678+00:00</time>
      </trkpt>
      <trkpt lat="49.41027" lon="1.25258">
        <ele>142</ele>
        <time>2024-10-29T14:52:37.926+00:00</time>
      </trkpt>
      <trkpt lat="49.41023" lon="1.25253">
        <ele>142</ele>
        <time>2024-10-29T14:52:42.376+00:00</time>
      </trkpt>
      <trkpt lat="49.41019" lon="1.25248">
        <ele>142</ele>
        <time>2024-10-29T14:52:46.655+00:00</time>
      </trkpt>
      <trkpt lat="49.41015" lon="1.25243">
        <ele>142</ele>
        <time>2024-10-29T14:52:51.013+00:00</time>
      </trkpt>
      <trkpt lat="49.41013" lon="1.25238">
        <ele>143</ele>
        <time>2024-10-29T14:52:55.311+00:00</time>
      </trkpt>
      <trkpt lat="49.41009" lon="1.25233">
        <ele>144</ele>
        <time>2024-10-29T14:52:59.710+00:00</time>
      </trkpt>
      <trkpt lat="49.41005" lon="1.25229">
        <ele>144</ele>
        <time>2024-10-29T14:53:04+00:00</time>
      </trkpt>
      <trkpt lat="49.41001" lon="1.25225">
        <ele>144</ele>
        <time>2024-10-29T14:53:07.993+00:00</time>
      </trkpt>
      <trkpt lat="49.40996" lon="1.25219">
        <ele>144</ele>
        <time>2024-10-29T14:53:12.357+00:00</time>
      </trkpt>
      <trkpt lat="49.40992" lon="1.25214">
        <ele>144</ele>
        <time>2024-10-29T14:53:16.765+00:00</time>
      </trkpt>
      <trkpt lat="49.40989" lon="1.25207">
        <ele>146</ele>
        <time>2024-10-29T14:53:21+00:00</time>
      </trkpt>
      <trkpt lat="49.40985" lon="1.25202">
        <ele>147</ele>
        <time>2024-10-29T14:53:25.562+00:00</time>
      </trkpt>
      <trkpt lat="49.40981" lon="1.25198">
        <ele>147</ele>
        <time>2024-10-29T14:53:29.834+00:00</time>
      </trkpt>
      <trkpt lat="49.40977" lon="1.25193">
        <ele>147</ele>
        <time>2024-10-29T14:53:34.234+00:00</time>
      </trkpt>
      <trkpt lat="49.40973" lon="1.25187">
        <ele>147</ele>
        <time>2024-10-29T14:53:38.596+00:00</time>
      </trkpt>
      <trkpt lat="49.4097" lon="1.25182">
        <ele>147</ele>
        <time>2024-10-29T14:53:42.957+00:00</time>
      </trkpt>
      <trkpt lat="49.40966" lon="1.25176">
        <ele>147</ele>
        <time>2024-10-29T14:53:47.276+00:00</time>
      </trkpt>
      <trkpt lat="49.40962" lon="1.2517">
        <ele>147</ele>
        <time>2024-10-29T14:53:51.688+00:00</time>
      </trkpt>
      <trkpt lat="49.40959" lon="1.25168">
        <ele>147</ele>
        <time>2024-10-29T14:53:55.926+00:00</time>
      </trkpt>
      <trkpt lat="49.40957" lon="1.25163">
        <ele>149</ele>
        <time>2024-10-29T14:54:00.277+00:00</time>
      </trkpt>
      <trkpt lat="49.40954" lon="1.25157">
        <ele>149</ele>
        <time>2024-10-29T14:54:04.935+00:00</time>
      </trkpt>
      <trkpt lat="49.40951" lon="1.25152">
        <ele>149</ele>
        <time>2024-10-29T14:54:09.235+00:00</time>
      </trkpt>
      <trkpt lat="49.40947" lon="1.25147">
        <ele>149</ele>
        <time>2024-10-29T14:54:13.658+00:00</time>
      </trkpt>
      <trkpt lat="49.40944" lon="1.25143">
        <ele>149</ele>
        <time>2024-10-29T14:54:17.776+00:00</time>
      </trkpt>
      <trkpt lat="49.4094" lon="1.25138">
        <ele>149</ele>
        <time>2024-10-29T14:54:21.999+00:00</time>
      </trkpt>
      <trkpt lat="49.40934" lon="1.25131">
        <ele>149</ele>
        <time>2024-10-29T14:54:26.493+00:00</time>
      </trkpt>
      <trkpt lat="49.40931" lon="1.25128">
        <ele>149</ele>
        <time>2024-10-29T14:54:30.859+00:00</time>
      </trkpt>
      <trkpt lat="49.40926" lon="1.25122">
        <ele>152</ele>
        <time>2024-10-29T14:54:35.088+00:00</time>
      </trkpt>
      <trkpt lat="49.40923" lon="1.25116">
        <ele>152</ele>
        <time>2024-10-29T14:54:39.459+00:00</time>
      </trkpt>
      <trkpt lat="49.40919" lon="1.25111">
        <ele>152</ele>
        <time>2024-10-29T14:54:43.618+00:00</time>
      </trkpt>
      <trkpt lat="49.40915" lon="1.25106">
        <ele>152</ele>
        <time>2024-10-29T14:54:47.922+00:00</time>
      </trkpt>
      <trkpt lat="49.40911" lon="1.25099">
        <ele>152</ele>
        <time>2024-10-29T14:54:52.301+00:00</time>
      </trkpt>
      <trkpt lat="49.40907" lon="1.25093">
        <ele>152</ele>
        <time>2024-10-29T14:54:56.562+00:00</time>
      </trkpt>
      <trkpt lat="49.40904" lon="1.25089">
        <ele>152</ele>
        <time>2024-10-29T14:55:00.837+00:00</time>
      </trkpt>
      <trkpt lat="49.40901" lon="1.25085">
        <ele>154</ele>
        <time>2024-10-29T14:55:05+00:00</time>
      </trkpt>
      <trkpt lat="49.40898" lon="1.25081">
        <ele>154</ele>
        <time>2024-10-29T14:55:09.256+00:00</time>
      </trkpt>
      <trkpt lat="49.40893" lon="1.25078">
        <ele>154</ele>
        <time>2024-10-29T14:55:13.653+00:00</time>
      </trkpt>
      <trkpt lat="49.40889" lon="1.25075">
        <ele>154</ele>
        <time>2024-10-29T14:55:17.877+00:00</time>
      </trkpt>
      <trkpt lat="49.40885" lon="1.25072">
        <ele>154</ele>
        <time>2024-10-29T14:55:22.275+00:00</time>
      </trkpt>
      <trkpt lat="49.40881" lon="1.25068">
        <ele>153</ele>
        <time>2024-10-29T14:55:26.449+00:00</time>
      </trkpt>
      <trkpt lat="49.40877" lon="1.25065">
        <ele>153</ele>
        <time>2024-10-29T14:55:30.877+00:00</time>
      </trkpt>
      <trkpt lat="49.40872" lon="1.25063">
        <ele>154</ele>
        <time>2024-10-29T14:55:34.985+00:00</time>
      </trkpt>
      <trkpt lat="49.40868" lon="1.25061">
        <ele>154</ele>
        <time>2024-10-29T14:55:39.265+00:00</time>
      </trkpt>
      <trkpt lat="49.40864" lon="1.25062">
        <ele>154</ele>
        <time>2024-10-29T14:55:43.310+00:00</time>
      </trkpt>
      <trkpt lat="49.40859" lon="1.25056">
        <ele>154</ele>
        <time>2024-10-29T14:55:47.697+00:00</time>
      </trkpt>
      <trkpt lat="49.40855" lon="1.25053">
        <ele>154</ele>
        <time>2024-10-29T14:55:51.843+00:00</time>
      </trkpt>
      <trkpt lat="49.40851" lon="1.2505">
        <ele>154</ele>
        <time>2024-10-29T14:55:55.992+00:00</time>
      </trkpt>
      <trkpt lat="49.40846" lon="1.25048">
        <ele>153</ele>
        <time>2024-10-29T14:56:00.116+00:00</time>
      </trkpt>
      <trkpt lat="49.40841" lon="1.25045">
        <ele>153</ele>
        <time>2024-10-29T14:56:04.369+00:00</time>
      </trkpt>
      <trkpt lat="49.40837" lon="1.25043">
        <ele>153</ele>
        <time>2024-10-29T14:56:08.470+00:00</time>
      </trkpt>
      <trkpt lat="49.40832" lon="1.25039">
        <ele>153</ele>
        <time>2024-10-29T14:56:12.536+00:00</time>
      </trkpt>
      <trkpt lat="49.40827" lon="1.25038">
        <ele>153</ele>
        <time>2024-10-29T14:56:16.697+00:00</time>
      </trkpt>
      <trkpt lat="49.40823" lon="1.25036">
        <ele>153</ele>
        <time>2024-10-29T14:56:20.992+00:00</time>
      </trkpt>
      <trkpt lat="49.4082" lon="1.25037">
        <ele>153</ele>
        <time>2024-10-29T14:56:25.504+00:00</time>
      </trkpt>
      <trkpt lat="49.40814" lon="1.25034">
        <ele>153</ele>
        <time>2024-10-29T14:56:29.983+00:00</time>
      </trkpt>
      <trkpt lat="49.4081" lon="1.25032">
        <ele>153</ele>
        <time>2024-10-29T14:56:34.496+00:00</time>
      </trkpt>
      <trkpt lat="49.40808" lon="1.25031">
        <ele>153</ele>
        <time>2024-10-29T14:56:38.934+00:00</time>
      </trkpt>
      <trkpt lat="49.40803" lon="1.25032">
        <ele>153</ele>
        <time>2024-10-29T14:56:43.416+00:00</time>
      </trkpt>
      <trkpt lat="49.40798" lon="1.25033">
        <ele>153</ele>
        <time>2024-10-29T14:56:47.788+00:00</time>
      </trkpt>
      <trkpt lat="49.4079" lon="1.25035">
        <ele>154</ele>
        <time>2024-10-29T14:56:52.617+00:00</time>
      </trkpt>
      <trkpt lat="49.40784" lon="1.25035">
        <ele>154</ele>
        <time>2024-10-29T14:56:56.956+00:00</time>
      </trkpt>
      <trkpt lat="49.4078" lon="1.25035">
        <ele>154</ele>
        <time>2024-10-29T14:57:01.167+00:00</time>
      </trkpt>
      <trkpt lat="49.40775" lon="1.25033">
        <ele>154</ele>
        <time>2024-10-29T14:57:05.610+00:00</time>
      </trkpt>
      <trkpt lat="49.4077" lon="1.25034">
        <ele>154</ele>
        <time>2024-10-29T14:57:09.759+00:00</time>
      </trkpt>
      <trkpt lat="49.40766" lon="1.25034">
        <ele>154</ele>
        <time>2024-10-29T14:57:13.997+00:00</time>
      </trkpt>
      <trkpt lat="49.40763" lon="1.25034">
        <ele>155</ele>
        <time>2024-10-29T14:57:18.351+00:00</time>
      </trkpt>
      <trkpt lat="49.40757" lon="1.25032">
        <ele>155</ele>
        <time>2024-10-29T14:57:22.602+00:00</time>
      </trkpt>
      <trkpt lat="49.40752" lon="1.25032">
        <ele>155</ele>
        <time>2024-10-29T14:57:26.778+00:00</time>
      </trkpt>
      <trkpt lat="49.40746" lon="1.25032">
        <ele>155</ele>
        <time>2024-10-29T14:57:30.997+00:00</time>
      </trkpt>
      <trkpt lat="49.40741" lon="1.25032">
        <ele>155</ele>
        <time>2024-10-29T14:57:35.402+00:00</time>
      </trkpt>
      <trkpt lat="49.40736" lon="1.2503">
        <ele>155</ele>
        <time>2024-10-29T14:57:39.639+00:00</time>
      </trkpt>
      <trkpt lat="49.40731" lon="1.2503">
        <ele>155</ele>
        <time>2024-10-29T14:57:43.687+00:00</time>
      </trkpt>
      <trkpt lat="49.40727" lon="1.25029">
        <ele>155</ele>
        <time>2024-10-29T14:57:47.845+00:00</time>
      </trkpt>
      <trkpt lat="49.40722" lon="1.2503">
        <ele>155</ele>
        <time>2024-10-29T14:57:51.979+00:00</time>
      </trkpt>
      <trkpt lat="49.40717" lon="1.25032">
        <ele>155</ele>
        <time>2024-10-29T14:57:56.221+00:00</time>
      </trkpt>
      <trkpt lat="49.40712" lon="1.25031">
        <ele>155</ele>
        <time>2024-10-29T14:58:00.367+00:00</time>
      </trkpt>
      <trkpt lat="49.40707" lon="1.2503">
        <ele>154</ele>
        <time>2024-10-29T14:58:04.526+00:00</time>
      </trkpt>
      <trkpt lat="49.40702" lon="1.2503">
        <ele>154</ele>
        <time>2024-10-29T14:58:08.574+00:00</time>
      </trkpt>
      <trkpt lat="49.40697" lon="1.2503">
        <ele>154</ele>
        <time>2024-10-29T14:58:12.709+00:00</time>
      </trkpt>
      <trkpt lat="49.40692" lon="1.25029">
        <ele>154</ele>
        <time>2024-10-29T14:58:16.728+00:00</time>
      </trkpt>
      <trkpt lat="49.40687" lon="1.25029">
        <ele>154</ele>
        <time>2024-10-29T14:58:20.734+00:00</time>
      </trkpt>
      <trkpt lat="49.40683" lon="1.2503">
        <ele>154</ele>
        <time>2024-10-29T14:58:24.797+00:00</time>
      </trkpt>
      <trkpt lat="49.40678" lon="1.25028">
        <ele>153</ele>
        <time>2024-10-29T14:58:28.915+00:00</time>
      </trkpt>
      <trkpt lat="49.40674" lon="1.25029">
        <ele>153</ele>
        <time>2024-10-29T14:58:32.993+00:00</time>
      </trkpt>
      <trkpt lat="49.40669" lon="1.25029">
        <ele>153</ele>
        <time>2024-10-29T14:58:36.997+00:00</time>
      </trkpt>
      <trkpt lat="49.40664" lon="1.25028">
        <ele>153</ele>
        <time>2024-10-29T14:58:41.163+00:00</time>
      </trkpt>
      <trkpt lat="49.40659" lon="1.25028">
        <ele>153</ele>
        <time>2024-10-29T14:58:45.338+00:00</time>
      </trkpt>
      <trkpt lat="49.40654" lon="1.25028">
        <ele>153</ele>
        <time>2024-10-29T14:58:49.485+00:00</time>
      </trkpt>
      <trkpt lat="49.40649" lon="1.25027">
        <ele>153</ele>
        <time>2024-10-29T14:58:53.638+00:00</time>
      </trkpt>
      <trkpt lat="49.40644" lon="1.25026">
        <ele>153</ele>
        <time>2024-10-29T14:58:57.664+00:00</time>
      </trkpt>
      <trkpt lat="49.4064" lon="1.25025">
        <ele>153</ele>
        <time>2024-10-29T14:59:01.797+00:00</time>
      </trkpt>
      <trkpt lat="49.40635" lon="1.25023">
        <ele>153</ele>
        <time>2024-10-29T14:59:05.877+00:00</time>
      </trkpt>
      <trkpt lat="49.4063" lon="1.25022">
        <ele>153</ele>
        <time>2024-10-29T14:59:09.993+00:00</time>
      </trkpt>
      <trkpt lat="49.40625" lon="1.25021">
        <ele>152</ele>
        <time>2024-10-29T14:59:14.174+00:00</time>
      </trkpt>
      <trkpt lat="49.40621" lon="1.25019">
        <ele>152</ele>
        <time>2024-10-29T14:59:18.424+00:00</time>
      </trkpt>
      <trkpt lat="49.40616" lon="1.25017">
        <ele>152</ele>
        <time>2024-10-29T14:59:22.514+00:00</time>
      </trkpt>
      <trkpt lat="49.4061" lon="1.25017">
        <ele>152</ele>
        <time>2024-10-29T14:59:27.002+00:00</time>
      </trkpt>
      <trkpt lat="49.40605" lon="1.25016">
        <ele>152</ele>
        <time>2024-10-29T14:59:30.996+00:00</time>
      </trkpt>
      <trkpt lat="49.406" lon="1.25015">
        <ele>152</ele>
        <time>2024-10-29T14:59:35.344+00:00</time>
      </trkpt>
      <trkpt lat="49.40595" lon="1.25012">
        <ele>151</ele>
        <time>2024-10-29T14:59:39.483+00:00</time>
      </trkpt>
      <trkpt lat="49.4059" lon="1.2501">
        <ele>151</ele>
        <time>2024-10-29T14:59:43.551+00:00</time>
      </trkpt>
      <trkpt lat="49.40585" lon="1.25009">
        <ele>151</ele>
        <time>2024-10-29T14:59:47.633+00:00</time>
      </trkpt>
      <trkpt lat="49.4058" lon="1.25008">
        <ele>151</ele>
        <time>2024-10-29T14:59:51.718+00:00</time>
      </trkpt>
      <trkpt lat="49.40575" lon="1.25007">
        <ele>151</ele>
        <time>2024-10-29T14:59:55.832+00:00</time>
      </trkpt>
      <trkpt lat="49.4057" lon="1.25006">
        <ele>151</ele>
        <time>2024-10-29T14:59:59.934+00:00</time>
      </trkpt>
      <trkpt lat="49.40565" lon="1.25004">
        <ele>148</ele>
        <time>2024-10-29T15:00:03.994+00:00</time>
      </trkpt>
      <trkpt lat="49.40561" lon="1.25001">
        <ele>148</ele>
        <time>2024-10-29T15:00:08.174+00:00</time>
      </trkpt>
      <trkpt lat="49.40556" lon="1.25">
        <ele>148</ele>
        <time>2024-10-29T15:00:12.297+00:00</time>
      </trkpt>
      <trkpt lat="49.4055" lon="1.24998">
        <ele>148</ele>
        <time>2024-10-29T15:00:16.857+00:00</time>
      </trkpt>
      <trkpt lat="49.40545" lon="1.24996">
        <ele>148</ele>
        <time>2024-10-29T15:00:20.919+00:00</time>
      </trkpt>
      <trkpt lat="49.40541" lon="1.24995">
        <ele>148</ele>
        <time>2024-10-29T15:00:25+00:00</time>
      </trkpt>
      <trkpt lat="49.40536" lon="1.24994">
        <ele>148</ele>
        <time>2024-10-29T15:00:29.117+00:00</time>
      </trkpt>
      <trkpt lat="49.40531" lon="1.24993">
        <ele>148</ele>
        <time>2024-10-29T15:00:33.257+00:00</time>
      </trkpt>
      <trkpt lat="49.40527" lon="1.24992">
        <ele>148</ele>
        <time>2024-10-29T15:00:37.276+00:00</time>
      </trkpt>
      <trkpt lat="49.40522" lon="1.2499">
        <ele>148</ele>
        <time>2024-10-29T15:00:41.484+00:00</time>
      </trkpt>
      <trkpt lat="49.40518" lon="1.24987">
        <ele>148</ele>
        <time>2024-10-29T15:00:45.616+00:00</time>
      </trkpt>
      <trkpt lat="49.40513" lon="1.24984">
        <ele>147</ele>
        <time>2024-10-29T15:00:50.156+00:00</time>
      </trkpt>
      <trkpt lat="49.40508" lon="1.24983">
        <ele>147</ele>
        <time>2024-10-29T15:00:54.231+00:00</time>
      </trkpt>
      <trkpt lat="49.40503" lon="1.24982">
        <ele>147</ele>
        <time>2024-10-29T15:00:58.372+00:00</time>
      </trkpt>
      <trkpt lat="49.40498" lon="1.2498">
        <ele>147</ele>
        <time>2024-10-29T15:01:02.471+00:00</time>
      </trkpt>
      <trkpt lat="49.40493" lon="1.24979">
        <ele>147</ele>
        <time>2024-10-29T15:01:07+00:00</time>
      </trkpt>
      <trkpt lat="49.40487" lon="1.24976">
        <ele>147</ele>
        <time>2024-10-29T15:01:11.663+00:00</time>
      </trkpt>
      <trkpt lat="49.40482" lon="1.24975">
        <ele>147</ele>
        <time>2024-10-29T15:01:15.718+00:00</time>
      </trkpt>
      <trkpt lat="49.40476" lon="1.24974">
        <ele>147</ele>
        <time>2024-10-29T15:01:19.798+00:00</time>
      </trkpt>
      <trkpt lat="49.40472" lon="1.24973">
        <ele>147</ele>
        <time>2024-10-29T15:01:23.819+00:00</time>
      </trkpt>
      <trkpt lat="49.40467" lon="1.24971">
        <ele>147</ele>
        <time>2024-10-29T15:01:27.958+00:00</time>
      </trkpt>
      <trkpt lat="49.40462" lon="1.24969">
        <ele>147</ele>
        <time>2024-10-29T15:01:31.992+00:00</time>
      </trkpt>
      <trkpt lat="49.40456" lon="1.24966">
        <ele>147</ele>
        <time>2024-10-29T15:01:36.744+00:00</time>
      </trkpt>
      <trkpt lat="49.40452" lon="1.24964">
        <ele>147</ele>
        <time>2024-10-29T15:01:40.857+00:00</time>
      </trkpt>
      <trkpt lat="49.40447" lon="1.24961">
        <ele>147</ele>
        <time>2024-10-29T15:01:44.873+00:00</time>
      </trkpt>
      <trkpt lat="49.40442" lon="1.24958">
        <ele>147</ele>
        <time>2024-10-29T15:01:48.996+00:00</time>
      </trkpt>
      <trkpt lat="49.40437" lon="1.24955">
        <ele>147</ele>
        <time>2024-10-29T15:01:52.995+00:00</time>
      </trkpt>
      <trkpt lat="49.40432" lon="1.24952">
        <ele>147</ele>
        <time>2024-10-29T15:01:57.686+00:00</time>
      </trkpt>
      <trkpt lat="49.40427" lon="1.2495">
        <ele>148</ele>
        <time>2024-10-29T15:02:01.710+00:00</time>
      </trkpt>
      <trkpt lat="49.40422" lon="1.24947">
        <ele>148</ele>
        <time>2024-10-29T15:02:05.757+00:00</time>
      </trkpt>
      <trkpt lat="49.40416" lon="1.24944">
        <ele>148</ele>
        <time>2024-10-29T15:02:09.891+00:00</time>
      </trkpt>
      <trkpt lat="49.40412" lon="1.24941">
        <ele>148</ele>
        <time>2024-10-29T15:02:13.991+00:00</time>
      </trkpt>
      <trkpt lat="49.40406" lon="1.24936">
        <ele>148</ele>
        <time>2024-10-29T15:02:18.742+00:00</time>
      </trkpt>
      <trkpt lat="49.40401" lon="1.24932">
        <ele>150</ele>
        <time>2024-10-29T15:02:22.796+00:00</time>
      </trkpt>
      <trkpt lat="49.40397" lon="1.24927">
        <ele>150</ele>
        <time>2024-10-29T15:02:26.797+00:00</time>
      </trkpt>
      <trkpt lat="49.40393" lon="1.24923">
        <ele>150</ele>
        <time>2024-10-29T15:02:30.970+00:00</time>
      </trkpt>
      <trkpt lat="49.40389" lon="1.24919">
        <ele>150</ele>
        <time>2024-10-29T15:02:35+00:00</time>
      </trkpt>
      <trkpt lat="49.40384" lon="1.24915">
        <ele>150</ele>
        <time>2024-10-29T15:02:39.661+00:00</time>
      </trkpt>
      <trkpt lat="49.40379" lon="1.24911">
        <ele>150</ele>
        <time>2024-10-29T15:02:43.895+00:00</time>
      </trkpt>
      <trkpt lat="49.40375" lon="1.24906">
        <ele>150</ele>
        <time>2024-10-29T15:02:47.989+00:00</time>
      </trkpt>
      <trkpt lat="49.40371" lon="1.24901">
        <ele>149</ele>
        <time>2024-10-29T15:02:51.995+00:00</time>
      </trkpt>
      <trkpt lat="49.40366" lon="1.24898">
        <ele>149</ele>
        <time>2024-10-29T15:02:56.145+00:00</time>
      </trkpt>
      <trkpt lat="49.40361" lon="1.24895">
        <ele>149</ele>
        <time>2024-10-29T15:03:00.840+00:00</time>
      </trkpt>
      <trkpt lat="49.40355" lon="1.24893">
        <ele>149</ele>
        <time>2024-10-29T15:03:05.514+00:00</time>
      </trkpt>
      <trkpt lat="49.40351" lon="1.2489">
        <ele>149</ele>
        <time>2024-10-29T15:03:09.650+00:00</time>
      </trkpt>
      <trkpt lat="49.40346" lon="1.2489">
        <ele>149</ele>
        <time>2024-10-29T15:03:13.676+00:00</time>
      </trkpt>
      <trkpt lat="49.4034" lon="1.2489">
        <ele>149</ele>
        <time>2024-10-29T15:03:17.914+00:00</time>
      </trkpt>
      <trkpt lat="49.40335" lon="1.2489">
        <ele>149</ele>
        <time>2024-10-29T15:03:21.997+00:00</time>
      </trkpt>
      <trkpt lat="49.40327" lon="1.24883">
        <ele>149</ele>
        <time>2024-10-29T15:05:27.995+00:00</time>
      </trkpt>
      <trkpt lat="49.40327" lon="1.24883">
        <ele>149</ele>
        <time>2024-10-29T15:05:33+00:00</time>
      </trkpt>
      <trkpt lat="49.40327" lon="1.24882">
        <ele>149</ele>
        <time>2024-10-29T15:05:37.991+00:00</time>
      </trkpt>
      <trkpt lat="49.40327" lon="1.24881">
        <ele>149</ele>
        <time>2024-10-29T15:05:41.999+00:00</time>
      </trkpt>
      <trkpt lat="49.40326" lon="1.24878">
        <ele>149</ele>
        <time>2024-10-29T15:05:46.274+00:00</time>
      </trkpt>
      <trkpt lat="49.4032" lon="1.24874">
        <ele>149</ele>
        <time>2024-10-29T15:05:50.579+00:00</time>
      </trkpt>
      <trkpt lat="49.40315" lon="1.2487">
        <ele>149</ele>
        <time>2024-10-29T15:05:54.765+00:00</time>
      </trkpt>
      <trkpt lat="49.40311" lon="1.24863">
        <ele>149</ele>
        <time>2024-10-29T15:05:58.945+00:00</time>
      </trkpt>
      <trkpt lat="49.40307" lon="1.2486">
        <ele>149</ele>
        <time>2024-10-29T15:06:03.200+00:00</time>
      </trkpt>
      <trkpt lat="49.40303" lon="1.24856">
        <ele>149</ele>
        <time>2024-10-29T15:06:07.340+00:00</time>
      </trkpt>
      <trkpt lat="49.403" lon="1.24852">
        <ele>149</ele>
        <time>2024-10-29T15:06:11.430+00:00</time>
      </trkpt>
      <trkpt lat="49.40297" lon="1.24848">
        <ele>149</ele>
        <time>2024-10-29T15:06:15.687+00:00</time>
      </trkpt>
      <trkpt lat="49.40293" lon="1.24845">
        <ele>149</ele>
        <time>2024-10-29T15:06:19.798+00:00</time>
      </trkpt>
      <trkpt lat="49.40288" lon="1.24841">
        <ele>148</ele>
        <time>2024-10-29T15:06:23.854+00:00</time>
      </trkpt>
      <trkpt lat="49.40284" lon="1.24837">
        <ele>148</ele>
        <time>2024-10-29T15:06:28.002+00:00</time>
      </trkpt>
      <trkpt lat="49.4028" lon="1.24833">
        <ele>148</ele>
        <time>2024-10-29T15:06:32.677+00:00</time>
      </trkpt>
      <trkpt lat="49.40275" lon="1.24829">
        <ele>148</ele>
        <time>2024-10-29T15:06:36.744+00:00</time>
      </trkpt>
      <trkpt lat="49.4027" lon="1.24826">
        <ele>148</ele>
        <time>2024-10-29T15:06:40.967+00:00</time>
      </trkpt>
      <trkpt lat="49.40266" lon="1.24823">
        <ele>148</ele>
        <time>2024-10-29T15:06:44.990+00:00</time>
      </trkpt>
      <trkpt lat="49.40261" lon="1.24818">
        <ele>147</ele>
        <time>2024-10-29T15:06:49.642+00:00</time>
      </trkpt>
      <trkpt lat="49.40257" lon="1.24815">
        <ele>147</ele>
        <time>2024-10-29T15:06:53.775+00:00</time>
      </trkpt>
      <trkpt lat="49.40253" lon="1.24811">
        <ele>147</ele>
        <time>2024-10-29T15:06:57.799+00:00</time>
      </trkpt>
      <trkpt lat="49.40249" lon="1.24807">
        <ele>147</ele>
        <time>2024-10-29T15:07:01.840+00:00</time>
      </trkpt>
      <trkpt lat="49.40243" lon="1.24803">
        <ele>147</ele>
        <time>2024-10-29T15:07:06.361+00:00</time>
      </trkpt>
      <trkpt lat="49.40239" lon="1.24799">
        <ele>147</ele>
        <time>2024-10-29T15:07:10.384+00:00</time>
      </trkpt>
      <trkpt lat="49.40234" lon="1.24794">
        <ele>146</ele>
        <time>2024-10-29T15:07:14.532+00:00</time>
      </trkpt>
      <trkpt lat="49.4023" lon="1.2479">
        <ele>147</ele>
        <time>2024-10-29T15:07:18.618+00:00</time>
      </trkpt>
      <trkpt lat="49.40226" lon="1.24785">
        <ele>147</ele>
        <time>2024-10-29T15:07:22.747+00:00</time>
      </trkpt>
      <trkpt lat="49.40221" lon="1.24781">
        <ele>147</ele>
        <time>2024-10-29T15:07:27.335+00:00</time>
      </trkpt>
      <trkpt lat="49.40217" lon="1.24775">
        <ele>147</ele>
        <time>2024-10-29T15:07:31.937+00:00</time>
      </trkpt>
      <trkpt lat="49.40213" lon="1.24769">
        <ele>147</ele>
        <time>2024-10-29T15:07:35.991+00:00</time>
      </trkpt>
      <trkpt lat="49.40209" lon="1.24765">
        <ele>147</ele>
        <time>2024-10-29T15:07:40.276+00:00</time>
      </trkpt>
      <trkpt lat="49.40207" lon="1.24759">
        <ele>147</ele>
        <time>2024-10-29T15:07:44.458+00:00</time>
      </trkpt>
      <trkpt lat="49.40209" lon="1.24754">
        <ele>147</ele>
        <time>2024-10-29T15:07:48.734+00:00</time>
      </trkpt>
      <trkpt lat="49.4021" lon="1.24748">
        <ele>147</ele>
        <time>2024-10-29T15:07:52.775+00:00</time>
      </trkpt>
      <trkpt lat="49.40213" lon="1.24743">
        <ele>147</ele>
        <time>2024-10-29T15:07:56.999+00:00</time>
      </trkpt>
      <trkpt lat="49.40214" lon="1.24736">
        <ele>147</ele>
        <time>2024-10-29T15:08:01.152+00:00</time>
      </trkpt>
      <trkpt lat="49.40216" lon="1.24729">
        <ele>147</ele>
        <time>2024-10-29T15:08:05.255+00:00</time>
      </trkpt>
      <trkpt lat="49.40216" lon="1.24721">
        <ele>147</ele>
        <time>2024-10-29T15:08:09.379+00:00</time>
      </trkpt>
      <trkpt lat="49.40216" lon="1.24713">
        <ele>147</ele>
        <time>2024-10-29T15:08:13.537+00:00</time>
      </trkpt>
      <trkpt lat="49.40217" lon="1.24705">
        <ele>146</ele>
        <time>2024-10-29T15:08:17.633+00:00</time>
      </trkpt>
      <trkpt lat="49.40219" lon="1.24696">
        <ele>146</ele>
        <time>2024-10-29T15:08:21.742+00:00</time>
      </trkpt>
      <trkpt lat="49.4022" lon="1.24688">
        <ele>146</ele>
        <time>2024-10-29T15:08:25.820+00:00</time>
      </trkpt>
      <trkpt lat="49.40221" lon="1.2468">
        <ele>146</ele>
        <time>2024-10-29T15:08:29.918+00:00</time>
      </trkpt>
      <trkpt lat="49.40222" lon="1.24673">
        <ele>146</ele>
        <time>2024-10-29T15:08:33.989+00:00</time>
      </trkpt>
      <trkpt lat="49.40223" lon="1.24666">
        <ele>146</ele>
        <time>2024-10-29T15:08:38.243+00:00</time>
      </trkpt>
      <trkpt lat="49.40225" lon="1.24659">
        <ele>146</ele>
        <time>2024-10-29T15:08:42.263+00:00</time>
      </trkpt>
      <trkpt lat="49.40225" lon="1.24652">
        <ele>146</ele>
        <time>2024-10-29T15:08:46.502+00:00</time>
      </trkpt>
      <trkpt lat="49.40227" lon="1.24645">
        <ele>146</ele>
        <time>2024-10-29T15:08:50.538+00:00</time>
      </trkpt>
      <trkpt lat="49.40229" lon="1.24639">
        <ele>146</ele>
        <time>2024-10-29T15:08:54.994+00:00</time>
      </trkpt>
      <trkpt lat="49.40229" lon="1.24633">
        <ele>146</ele>
        <time>2024-10-29T15:08:58.994+00:00</time>
      </trkpt>
      <trkpt lat="49.40231" lon="1.24625">
        <ele>145</ele>
        <time>2024-10-29T15:09:03.674+00:00</time>
      </trkpt>
      <trkpt lat="49.40231" lon="1.24616">
        <ele>145</ele>
        <time>2024-10-29T15:09:07.775+00:00</time>
      </trkpt>
      <trkpt lat="49.4023" lon="1.24609">
        <ele>145</ele>
        <time>2024-10-29T15:09:11.986+00:00</time>
      </trkpt>
      <trkpt lat="49.40228" lon="1.24601">
        <ele>145</ele>
        <time>2024-10-29T15:09:16+00:00</time>
      </trkpt>
      <trkpt lat="49.40227" lon="1.24593">
        <ele>145</ele>
        <time>2024-10-29T15:09:20.379+00:00</time>
      </trkpt>
      <trkpt lat="49.40226" lon="1.24586">
        <ele>145</ele>
        <time>2024-10-29T15:09:24.617+00:00</time>
      </trkpt>
      <trkpt lat="49.40224" lon="1.24581">
        <ele>145</ele>
        <time>2024-10-29T15:09:28.674+00:00</time>
      </trkpt>
      <trkpt lat="49.40222" lon="1.24574">
        <ele>145</ele>
        <time>2024-10-29T15:09:32.982+00:00</time>
      </trkpt>
      <trkpt lat="49.40218" lon="1.24571">
        <ele>145</ele>
        <time>2024-10-29T15:09:37.118+00:00</time>
      </trkpt>
      <trkpt lat="49.40215" lon="1.24566">
        <ele>144</ele>
        <time>2024-10-29T15:09:41.425+00:00</time>
      </trkpt>
      <trkpt lat="49.40212" lon="1.24561">
        <ele>144</ele>
        <time>2024-10-29T15:09:45.485+00:00</time>
      </trkpt>
      <trkpt lat="49.40209" lon="1.24556">
        <ele>144</ele>
        <time>2024-10-29T15:09:49.722+00:00</time>
      </trkpt>
      <trkpt lat="49.40206" lon="1.2455">
        <ele>144</ele>
        <time>2024-10-29T15:09:53.744+00:00</time>
      </trkpt>
      <trkpt lat="49.40203" lon="1.24545">
        <ele>144</ele>
        <time>2024-10-29T15:09:57.927+00:00</time>
      </trkpt>
      <trkpt lat="49.40199" lon="1.2454">
        <ele>143</ele>
        <time>2024-10-29T15:10:01.997+00:00</time>
      </trkpt>
      <trkpt lat="49.40195" lon="1.24534">
        <ele>143</ele>
        <time>2024-10-29T15:10:06.198+00:00</time>
      </trkpt>
      <trkpt lat="49.40191" lon="1.24529">
        <ele>143</ele>
        <time>2024-10-29T15:10:10.265+00:00</time>
      </trkpt>
      <trkpt lat="49.40188" lon="1.24523">
        <ele>143</ele>
        <time>2024-10-29T15:10:14.505+00:00</time>
      </trkpt>
      <trkpt lat="49.40185" lon="1.24517">
        <ele>143</ele>
        <time>2024-10-29T15:10:18.605+00:00</time>
      </trkpt>
      <trkpt lat="49.40181" lon="1.24511">
        <ele>143</ele>
        <time>2024-10-29T15:10:22.676+00:00</time>
      </trkpt>
      <trkpt lat="49.40177" lon="1.24506">
        <ele>146</ele>
        <time>2024-10-29T15:10:26.799+00:00</time>
      </trkpt>
      <trkpt lat="49.40174" lon="1.245">
        <ele>146</ele>
        <time>2024-10-29T15:10:30.994+00:00</time>
      </trkpt>
      <trkpt lat="49.40171" lon="1.24494">
        <ele>146</ele>
        <time>2024-10-29T15:10:35.254+00:00</time>
      </trkpt>
      <trkpt lat="49.40168" lon="1.24489">
        <ele>146</ele>
        <time>2024-10-29T15:10:39.351+00:00</time>
      </trkpt>
      <trkpt lat="49.40164" lon="1.24486">
        <ele>146</ele>
        <time>2024-10-29T15:10:43.937+00:00</time>
      </trkpt>
      <trkpt lat="49.4016" lon="1.24483">
        <ele>146</ele>
        <time>2024-10-29T15:10:47.990+00:00</time>
      </trkpt>
      <trkpt lat="49.40155" lon="1.24478">
        <ele>146</ele>
        <time>2024-10-29T15:10:52.698+00:00</time>
      </trkpt>
      <trkpt lat="49.40151" lon="1.24473">
        <ele>147</ele>
        <time>2024-10-29T15:10:56.838+00:00</time>
      </trkpt>
      <trkpt lat="49.40146" lon="1.24469">
        <ele>147</ele>
        <time>2024-10-29T15:11:00.886+00:00</time>
      </trkpt>
      <trkpt lat="49.40142" lon="1.24465">
        <ele>147</ele>
        <time>2024-10-29T15:11:04.992+00:00</time>
      </trkpt>
      <trkpt lat="49.40137" lon="1.24461">
        <ele>147</ele>
        <time>2024-10-29T15:11:09.495+00:00</time>
      </trkpt>
      <trkpt lat="49.40133" lon="1.24456">
        <ele>146</ele>
        <time>2024-10-29T15:11:13.633+00:00</time>
      </trkpt>
      <trkpt lat="49.4013" lon="1.24452">
        <ele>146</ele>
        <time>2024-10-29T15:11:17.699+00:00</time>
      </trkpt>
      <trkpt lat="49.40127" lon="1.24447">
        <ele>146</ele>
        <time>2024-10-29T15:11:21.697+00:00</time>
      </trkpt>
      <trkpt lat="49.40122" lon="1.24441">
        <ele>144</ele>
        <time>2024-10-29T15:11:25.744+00:00</time>
      </trkpt>
      <trkpt lat="49.40118" lon="1.24438">
        <ele>144</ele>
        <time>2024-10-29T15:11:29.776+00:00</time>
      </trkpt>
      <trkpt lat="49.40113" lon="1.24434">
        <ele>144</ele>
        <time>2024-10-29T15:11:33.877+00:00</time>
      </trkpt>
      <trkpt lat="49.40107" lon="1.24427">
        <ele>143</ele>
        <time>2024-10-29T15:11:38.460+00:00</time>
      </trkpt>
      <trkpt lat="49.40103" lon="1.24423">
        <ele>143</ele>
        <time>2024-10-29T15:11:42.460+00:00</time>
      </trkpt>
      <trkpt lat="49.40099" lon="1.24418">
        <ele>143</ele>
        <time>2024-10-29T15:11:46.493+00:00</time>
      </trkpt>
      <trkpt lat="49.40095" lon="1.24415">
        <ele>141</ele>
        <time>2024-10-29T15:11:50.513+00:00</time>
      </trkpt>
      <trkpt lat="49.4009" lon="1.24409">
        <ele>141</ele>
        <time>2024-10-29T15:11:54.559+00:00</time>
      </trkpt>
      <trkpt lat="49.40086" lon="1.24403">
        <ele>140</ele>
        <time>2024-10-29T15:11:59.200+00:00</time>
      </trkpt>
      <trkpt lat="49.40083" lon="1.24397">
        <ele>140</ele>
        <time>2024-10-29T15:12:03.236+00:00</time>
      </trkpt>
      <trkpt lat="49.40078" lon="1.24392">
        <ele>140</ele>
        <time>2024-10-29T15:12:07.254+00:00</time>
      </trkpt>
      <trkpt lat="49.40072" lon="1.24387">
        <ele>140</ele>
        <time>2024-10-29T15:12:11.254+00:00</time>
      </trkpt>
      <trkpt lat="49.40067" lon="1.24384">
        <ele>138</ele>
        <time>2024-10-29T15:12:15.810+00:00</time>
      </trkpt>
      <trkpt lat="49.40062" lon="1.24379">
        <ele>138</ele>
        <time>2024-10-29T15:12:19.889+00:00</time>
      </trkpt>
      <trkpt lat="49.40058" lon="1.24374">
        <ele>138</ele>
        <time>2024-10-29T15:12:23.936+00:00</time>
      </trkpt>
      <trkpt lat="49.40053" lon="1.24369">
        <ele>138</ele>
        <time>2024-10-29T15:12:28.008+00:00</time>
      </trkpt>
      <trkpt lat="49.40048" lon="1.24365">
        <ele>138</ele>
        <time>2024-10-29T15:12:32.633+00:00</time>
      </trkpt>
      <trkpt lat="49.40044" lon="1.24362">
        <ele>138</ele>
        <time>2024-10-29T15:12:37.296+00:00</time>
      </trkpt>
      <trkpt lat="49.40039" lon="1.24358">
        <ele>134</ele>
        <time>2024-10-29T15:12:41.824+00:00</time>
      </trkpt>
      <trkpt lat="49.40036" lon="1.24354">
        <ele>134</ele>
        <time>2024-10-29T15:12:45.852+00:00</time>
      </trkpt>
      <trkpt lat="49.40031" lon="1.24346">
        <ele>134</ele>
        <time>2024-10-29T15:12:50.436+00:00</time>
      </trkpt>
      <trkpt lat="49.40026" lon="1.24339">
        <ele>134</ele>
        <time>2024-10-29T15:12:54.436+00:00</time>
      </trkpt>
      <trkpt lat="49.40021" lon="1.24334">
        <ele>134</ele>
        <time>2024-10-29T15:12:58.938+00:00</time>
      </trkpt>
      <trkpt lat="49.40015" lon="1.24326">
        <ele>134</ele>
        <time>2024-10-29T15:13:03.583+00:00</time>
      </trkpt>
      <trkpt lat="49.40012" lon="1.2432">
        <ele>131</ele>
        <time>2024-10-29T15:13:08.112+00:00</time>
      </trkpt>
      <trkpt lat="49.40009" lon="1.24313">
        <ele>131</ele>
        <time>2024-10-29T15:13:12.157+00:00</time>
      </trkpt>
      <trkpt lat="49.40006" lon="1.24305">
        <ele>131</ele>
        <time>2024-10-29T15:13:16.753+00:00</time>
      </trkpt>
      <trkpt lat="49.40004" lon="1.24298">
        <ele>131</ele>
        <time>2024-10-29T15:13:20.824+00:00</time>
      </trkpt>
      <trkpt lat="49.40003" lon="1.24293">
        <ele>131</ele>
        <time>2024-10-29T15:13:24.877+00:00</time>
      </trkpt>
      <trkpt lat="49.40007" lon="1.24288">
        <ele>131</ele>
        <time>2024-10-29T15:13:29.428+00:00</time>
      </trkpt>
      <trkpt lat="49.40011" lon="1.24283">
        <ele>131</ele>
        <time>2024-10-29T15:13:33.991+00:00</time>
      </trkpt>
      <trkpt lat="49.40015" lon="1.24279">
        <ele>134</ele>
        <time>2024-10-29T15:13:38.094+00:00</time>
      </trkpt>
      <trkpt lat="49.40016" lon="1.24261">
        <ele>133</ele>
        <time>2024-10-29T15:14:07.994+00:00</time>
      </trkpt>
      <trkpt lat="49.40017" lon="1.24256">
        <ele>133</ele>
        <time>2024-10-29T15:14:12.512+00:00</time>
      </trkpt>
      <trkpt lat="49.4002" lon="1.24247">
        <ele>133</ele>
        <time>2024-10-29T15:14:16.998+00:00</time>
      </trkpt>
      <trkpt lat="49.40019" lon="1.24239">
        <ele>133</ele>
        <time>2024-10-29T15:14:21.444+00:00</time>
      </trkpt>
      <trkpt lat="49.40022" lon="1.24232">
        <ele>131</ele>
        <time>2024-10-29T15:14:25.491+00:00</time>
      </trkpt>
      <trkpt lat="49.40023" lon="1.24224">
        <ele>131</ele>
        <time>2024-10-29T15:14:29.619+00:00</time>
      </trkpt>
      <trkpt lat="49.40024" lon="1.24216">
        <ele>131</ele>
        <time>2024-10-29T15:14:33.990+00:00</time>
      </trkpt>
      <trkpt lat="49.40024" lon="1.24208">
        <ele>130</ele>
        <time>2024-10-29T15:14:37.937+00:00</time>
      </trkpt>
      <trkpt lat="49.40024" lon="1.242">
        <ele>130</ele>
        <time>2024-10-29T15:14:41.896+00:00</time>
      </trkpt>
      <trkpt lat="49.40022" lon="1.24188">
        <ele>130</ele>
        <time>2024-10-29T15:14:46.350+00:00</time>
      </trkpt>
      <trkpt lat="49.4002" lon="1.24174">
        <ele>129</ele>
        <time>2024-10-29T15:14:50.797+00:00</time>
      </trkpt>
      <trkpt lat="49.4002" lon="1.24166">
        <ele>129</ele>
        <time>2024-10-29T15:14:55.345+00:00</time>
      </trkpt>
      <trkpt lat="49.40018" lon="1.24156">
        <ele>129</ele>
        <time>2024-10-29T15:14:59.773+00:00</time>
      </trkpt>
      <trkpt lat="49.4002" lon="1.24147">
        <ele>127</ele>
        <time>2024-10-29T15:15:03.823+00:00</time>
      </trkpt>
      <trkpt lat="49.40023" lon="1.24142">
        <ele>127</ele>
        <time>2024-10-29T15:15:07.999+00:00</time>
      </trkpt>
      <trkpt lat="49.40025" lon="1.24136">
        <ele>127</ele>
        <time>2024-10-29T15:15:12.901+00:00</time>
      </trkpt>
      <trkpt lat="49.40028" lon="1.24132">
        <ele>127</ele>
        <time>2024-10-29T15:15:16.971+00:00</time>
      </trkpt>
      <trkpt lat="49.40028" lon="1.2412">
        <ele>126</ele>
        <time>2024-10-29T15:27:26.995+00:00</time>
      </trkpt>
      <trkpt lat="49.40032" lon="1.24118">
        <ele>126</ele>
        <time>2024-10-29T15:27:31.992+00:00</time>
      </trkpt>
      <trkpt lat="49.40036" lon="1.24114">
        <ele>126</ele>
        <time>2024-10-29T15:27:36.995+00:00</time>
      </trkpt>
      <trkpt lat="49.40042" lon="1.2411">
        <ele>126</ele>
        <time>2024-10-29T15:27:42+00:00</time>
      </trkpt>
      <trkpt lat="49.40047" lon="1.24108">
        <ele>126</ele>
        <time>2024-10-29T15:27:45.992+00:00</time>
      </trkpt>
      <trkpt lat="49.40053" lon="1.24108">
        <ele>126</ele>
        <time>2024-10-29T15:27:50.276+00:00</time>
      </trkpt>
      <trkpt lat="49.40056" lon="1.241">
        <ele>126</ele>
        <time>2024-10-29T15:27:54.637+00:00</time>
      </trkpt>
      <trkpt lat="49.4006" lon="1.24095">
        <ele>124</ele>
        <time>2024-10-29T15:27:59+00:00</time>
      </trkpt>
      <trkpt lat="49.40064" lon="1.24091">
        <ele>124</ele>
        <time>2024-10-29T15:28:03.373+00:00</time>
      </trkpt>
      <trkpt lat="49.40068" lon="1.24086">
        <ele>124</ele>
        <time>2024-10-29T15:28:07.683+00:00</time>
      </trkpt>
      <trkpt lat="49.40072" lon="1.2408">
        <ele>125</ele>
        <time>2024-10-29T15:28:11.913+00:00</time>
      </trkpt>
      <trkpt lat="49.40077" lon="1.24078">
        <ele>125</ele>
        <time>2024-10-29T15:28:15.991+00:00</time>
      </trkpt>
      <trkpt lat="49.40082" lon="1.24076">
        <ele>125</ele>
        <time>2024-10-29T15:28:20.431+00:00</time>
      </trkpt>
      <trkpt lat="49.40087" lon="1.24072">
        <ele>125</ele>
        <time>2024-10-29T15:28:24.797+00:00</time>
      </trkpt>
      <trkpt lat="49.40091" lon="1.24069">
        <ele>124</ele>
        <time>2024-10-29T15:28:29+00:00</time>
      </trkpt>
      <trkpt lat="49.40094" lon="1.24063">
        <ele>124</ele>
        <time>2024-10-29T15:28:33.557+00:00</time>
      </trkpt>
      <trkpt lat="49.40096" lon="1.24056">
        <ele>124</ele>
        <time>2024-10-29T15:28:37.820+00:00</time>
      </trkpt>
      <trkpt lat="49.401" lon="1.24052">
        <ele>128</ele>
        <time>2024-10-29T15:28:41.990+00:00</time>
      </trkpt>
      <trkpt lat="49.40102" lon="1.24047">
        <ele>128</ele>
        <time>2024-10-29T15:28:46.318+00:00</time>
      </trkpt>
      <trkpt lat="49.40104" lon="1.2404">
        <ele>126</ele>
        <time>2024-10-29T15:28:50.593+00:00</time>
      </trkpt>
      <trkpt lat="49.40107" lon="1.24033">
        <ele>126</ele>
        <time>2024-10-29T15:28:54.823+00:00</time>
      </trkpt>
      <trkpt lat="49.40109" lon="1.24026">
        <ele>126</ele>
        <time>2024-10-29T15:28:59.219+00:00</time>
      </trkpt>
      <trkpt lat="49.4011" lon="1.24019">
        <ele>126</ele>
        <time>2024-10-29T15:29:03.557+00:00</time>
      </trkpt>
      <trkpt lat="49.40111" lon="1.24012">
        <ele>125</ele>
        <time>2024-10-29T15:29:07.734+00:00</time>
      </trkpt>
      <trkpt lat="49.40112" lon="1.24004">
        <ele>125</ele>
        <time>2024-10-29T15:29:11.857+00:00</time>
      </trkpt>
      <trkpt lat="49.40115" lon="1.23995">
        <ele>125</ele>
        <time>2024-10-29T15:29:16.194+00:00</time>
      </trkpt>
      <trkpt lat="49.40117" lon="1.23987">
        <ele>125</ele>
        <time>2024-10-29T15:29:20.335+00:00</time>
      </trkpt>
      <trkpt lat="49.40119" lon="1.2398">
        <ele>124</ele>
        <time>2024-10-29T15:29:24.561+00:00</time>
      </trkpt>
      <trkpt lat="49.40121" lon="1.23974">
        <ele>124</ele>
        <time>2024-10-29T15:29:28.815+00:00</time>
      </trkpt>
      <trkpt lat="49.40124" lon="1.23966">
        <ele>124</ele>
        <time>2024-10-29T15:29:33.133+00:00</time>
      </trkpt>
      <trkpt lat="49.40126" lon="1.23958">
        <ele>125</ele>
        <time>2024-10-29T15:29:37.298+00:00</time>
      </trkpt>
      <trkpt lat="49.40127" lon="1.23949">
        <ele>125</ele>
        <time>2024-10-29T15:29:41.550+00:00</time>
      </trkpt>
      <trkpt lat="49.40129" lon="1.23942">
        <ele>125</ele>
        <time>2024-10-29T15:29:45.654+00:00</time>
      </trkpt>
      <trkpt lat="49.40133" lon="1.23936">
        <ele>125</ele>
        <time>2024-10-29T15:29:49.993+00:00</time>
      </trkpt>
      <trkpt lat="49.40136" lon="1.2393">
        <ele>123</ele>
        <time>2024-10-29T15:29:54.184+00:00</time>
      </trkpt>
      <trkpt lat="49.40138" lon="1.23924">
        <ele>123</ele>
        <time>2024-10-29T15:29:58.525+00:00</time>
      </trkpt>
      <trkpt lat="49.4014" lon="1.23918">
        <ele>123</ele>
        <time>2024-10-29T15:30:02.676+00:00</time>
      </trkpt>
      <trkpt lat="49.40142" lon="1.23907">
        <ele>123</ele>
        <time>2024-10-29T15:30:06.880+00:00</time>
      </trkpt>
      <trkpt lat="49.40146" lon="1.23902">
        <ele>122</ele>
        <time>2024-10-29T15:30:10.990+00:00</time>
      </trkpt>
      <trkpt lat="49.40151" lon="1.23897">
        <ele>122</ele>
        <time>2024-10-29T15:30:15.381+00:00</time>
      </trkpt>
      <trkpt lat="49.40155" lon="1.23892">
        <ele>124</ele>
        <time>2024-10-29T15:30:19.528+00:00</time>
      </trkpt>
      <trkpt lat="49.40159" lon="1.23886">
        <ele>124</ele>
        <time>2024-10-29T15:30:23.686+00:00</time>
      </trkpt>
      <trkpt lat="49.40163" lon="1.23881">
        <ele>124</ele>
        <time>2024-10-29T15:30:27.925+00:00</time>
      </trkpt>
      <trkpt lat="49.40167" lon="1.23878">
        <ele>124</ele>
        <time>2024-10-29T15:30:31.988+00:00</time>
      </trkpt>
      <trkpt lat="49.40172" lon="1.23872">
        <ele>123</ele>
        <time>2024-10-29T15:30:36.219+00:00</time>
      </trkpt>
      <trkpt lat="49.40175" lon="1.23865">
        <ele>123</ele>
        <time>2024-10-29T15:30:40.434+00:00</time>
      </trkpt>
      <trkpt lat="49.40178" lon="1.23858">
        <ele>123</ele>
        <time>2024-10-29T15:30:44.618+00:00</time>
      </trkpt>
      <trkpt lat="49.40182" lon="1.23853">
        <ele>125</ele>
        <time>2024-10-29T15:30:48.998+00:00</time>
      </trkpt>
      <trkpt lat="49.40187" lon="1.2385">
        <ele>125</ele>
        <time>2024-10-29T15:30:53.322+00:00</time>
      </trkpt>
      <trkpt lat="49.40191" lon="1.23844">
        <ele>124</ele>
        <time>2024-10-29T15:30:57.699+00:00</time>
      </trkpt>
      <trkpt lat="49.40193" lon="1.23836">
        <ele>124</ele>
        <time>2024-10-29T15:31:01.916+00:00</time>
      </trkpt>
      <trkpt lat="49.40195" lon="1.23828">
        <ele>124</ele>
        <time>2024-10-29T15:31:06.474+00:00</time>
      </trkpt>
      <trkpt lat="49.40196" lon="1.23822">
        <ele>124</ele>
        <time>2024-10-29T15:31:10.557+00:00</time>
      </trkpt>
      <trkpt lat="49.40197" lon="1.23818">
        <ele>123</ele>
        <time>2024-10-29T15:31:15.176+00:00</time>
      </trkpt>
      <trkpt lat="49.40199" lon="1.23813">
        <ele>123</ele>
        <time>2024-10-29T15:31:19.719+00:00</time>
      </trkpt>
      <trkpt lat="49.40202" lon="1.23809">
        <ele>123</ele>
        <time>2024-10-29T15:31:24.244+00:00</time>
      </trkpt>
      <trkpt lat="49.40205" lon="1.23806">
        <ele>123</ele>
        <time>2024-10-29T15:31:28.483+00:00</time>
      </trkpt>
      <trkpt lat="49.40208" lon="1.23803">
        <ele>123</ele>
        <time>2024-10-29T15:31:32.820+00:00</time>
      </trkpt>
      <trkpt lat="49.40211" lon="1.23798">
        <ele>128</ele>
        <time>2024-10-29T15:31:37.297+00:00</time>
      </trkpt>
      <trkpt lat="49.40213" lon="1.2379">
        <ele>127</ele>
        <time>2024-10-29T15:31:41.493+00:00</time>
      </trkpt>
      <trkpt lat="49.40213" lon="1.23781">
        <ele>127</ele>
        <time>2024-10-29T15:31:45.775+00:00</time>
      </trkpt>
      <trkpt lat="49.40212" lon="1.23772">
        <ele>127</ele>
        <time>2024-10-29T15:31:49.877+00:00</time>
      </trkpt>
      <trkpt lat="49.40212" lon="1.23762">
        <ele>126</ele>
        <time>2024-10-29T15:31:54.255+00:00</time>
      </trkpt>
      <trkpt lat="49.40212" lon="1.23754">
        <ele>126</ele>
        <time>2024-10-29T15:31:58.470+00:00</time>
      </trkpt>
      <trkpt lat="49.40212" lon="1.23745">
        <ele>126</ele>
        <time>2024-10-29T15:32:02.760+00:00</time>
      </trkpt>
      <trkpt lat="49.40211" lon="1.23736">
        <ele>126</ele>
        <time>2024-10-29T15:32:06.990+00:00</time>
      </trkpt>
      <trkpt lat="49.40212" lon="1.23728">
        <ele>126</ele>
        <time>2024-10-29T15:32:11.446+00:00</time>
      </trkpt>
      <trkpt lat="49.40211" lon="1.23722">
        <ele>126</ele>
        <time>2024-10-29T15:32:15.937+00:00</time>
      </trkpt>
      <trkpt lat="49.40208" lon="1.23715">
        <ele>120</ele>
        <time>2024-10-29T15:32:20.594+00:00</time>
      </trkpt>
      <trkpt lat="49.40205" lon="1.23708">
        <ele>119</ele>
        <time>2024-10-29T15:32:24.992+00:00</time>
      </trkpt>
      <trkpt lat="49.40203" lon="1.23701">
        <ele>119</ele>
        <time>2024-10-29T15:32:29.140+00:00</time>
      </trkpt>
      <trkpt lat="49.40201" lon="1.23694">
        <ele>119</ele>
        <time>2024-10-29T15:32:33.275+00:00</time>
      </trkpt>
      <trkpt lat="49.40199" lon="1.23685">
        <ele>119</ele>
        <time>2024-10-29T15:32:37.570+00:00</time>
      </trkpt>
      <trkpt lat="49.40195" lon="1.23678">
        <ele>117</ele>
        <time>2024-10-29T15:32:41.700+00:00</time>
      </trkpt>
      <trkpt lat="49.40195" lon="1.23669">
        <ele>117</ele>
        <time>2024-10-29T15:32:45.956+00:00</time>
      </trkpt>
      <trkpt lat="49.40196" lon="1.23662">
        <ele>117</ele>
        <time>2024-10-29T15:32:49.988+00:00</time>
      </trkpt>
      <trkpt lat="49.40196" lon="1.23655">
        <ele>117</ele>
        <time>2024-10-29T15:32:54.433+00:00</time>
      </trkpt>
      <trkpt lat="49.40194" lon="1.23646">
        <ele>116</ele>
        <time>2024-10-29T15:32:58.471+00:00</time>
      </trkpt>
      <trkpt lat="49.40196" lon="1.23638">
        <ele>116</ele>
        <time>2024-10-29T15:33:02.672+00:00</time>
      </trkpt>
      <trkpt lat="49.40199" lon="1.23632">
        <ele>116</ele>
        <time>2024-10-29T15:33:06.992+00:00</time>
      </trkpt>
      <trkpt lat="49.40204" lon="1.23631">
        <ele>116</ele>
        <time>2024-10-29T15:33:11.178+00:00</time>
      </trkpt>
      <trkpt lat="49.40209" lon="1.23628">
        <ele>121</ele>
        <time>2024-10-29T15:33:15.335+00:00</time>
      </trkpt>
      <trkpt lat="49.40213" lon="1.23622">
        <ele>118</ele>
        <time>2024-10-29T15:33:19.637+00:00</time>
      </trkpt>
      <trkpt lat="49.40216" lon="1.23615">
        <ele>118</ele>
        <time>2024-10-29T15:33:23.945+00:00</time>
      </trkpt>
      <trkpt lat="49.40219" lon="1.2361">
        <ele>118</ele>
        <time>2024-10-29T15:33:28.036+00:00</time>
      </trkpt>
      <trkpt lat="49.40221" lon="1.23603">
        <ele>118</ele>
        <time>2024-10-29T15:33:32.280+00:00</time>
      </trkpt>
      <trkpt lat="49.40226" lon="1.23597">
        <ele>116</ele>
        <time>2024-10-29T15:33:36.435+00:00</time>
      </trkpt>
      <trkpt lat="49.4023" lon="1.23593">
        <ele>116</ele>
        <time>2024-10-29T15:33:40.631+00:00</time>
      </trkpt>
      <trkpt lat="49.40233" lon="1.23585">
        <ele>116</ele>
        <time>2024-10-29T15:33:44.808+00:00</time>
      </trkpt>
      <trkpt lat="49.40236" lon="1.2358">
        <ele>120</ele>
        <time>2024-10-29T15:33:48.959+00:00</time>
      </trkpt>
      <trkpt lat="49.4024" lon="1.23579">
        <ele>120</ele>
        <time>2024-10-29T15:33:52.991+00:00</time>
      </trkpt>
      <trkpt lat="49.40245" lon="1.23578">
        <ele>120</ele>
        <time>2024-10-29T15:33:57.774+00:00</time>
      </trkpt>
      <trkpt lat="49.4025" lon="1.23576">
        <ele>120</ele>
        <time>2024-10-29T15:34:01.995+00:00</time>
      </trkpt>
      <trkpt lat="49.40252" lon="1.2357">
        <ele>120</ele>
        <time>2024-10-29T15:34:06.321+00:00</time>
      </trkpt>
      <trkpt lat="49.40252" lon="1.23563">
        <ele>117</ele>
        <time>2024-10-29T15:34:10.664+00:00</time>
      </trkpt>
      <trkpt lat="49.40253" lon="1.23556">
        <ele>117</ele>
        <time>2024-10-29T15:34:15.236+00:00</time>
      </trkpt>
      <trkpt lat="49.40258" lon="1.2355">
        <ele>117</ele>
        <time>2024-10-29T15:34:19.436+00:00</time>
      </trkpt>
      <trkpt lat="49.40262" lon="1.23545">
        <ele>117</ele>
        <time>2024-10-29T15:34:23.796+00:00</time>
      </trkpt>
      <trkpt lat="49.40267" lon="1.23542">
        <ele>119</ele>
        <time>2024-10-29T15:34:27.916+00:00</time>
      </trkpt>
      <trkpt lat="49.40272" lon="1.23537">
        <ele>115</ele>
        <time>2024-10-29T15:34:31.998+00:00</time>
      </trkpt>
      <trkpt lat="49.40276" lon="1.23533">
        <ele>115</ele>
        <time>2024-10-29T15:34:36.460+00:00</time>
      </trkpt>
      <trkpt lat="49.40279" lon="1.23529">
        <ele>115</ele>
        <time>2024-10-29T15:34:40.734+00:00</time>
      </trkpt>
      <trkpt lat="49.40283" lon="1.23525">
        <ele>115</ele>
        <time>2024-10-29T15:34:45.004+00:00</time>
      </trkpt>
      <trkpt lat="49.40287" lon="1.23522">
        <ele>115</ele>
        <time>2024-10-29T15:34:49.215+00:00</time>
      </trkpt>
      <trkpt lat="49.40291" lon="1.23517">
        <ele>115</ele>
        <time>2024-10-29T15:34:53.430+00:00</time>
      </trkpt>
      <trkpt lat="49.40295" lon="1.23512">
        <ele>116</ele>
        <time>2024-10-29T15:34:57.724+00:00</time>
      </trkpt>
      <trkpt lat="49.40298" lon="1.23507">
        <ele>116</ele>
        <time>2024-10-29T15:35:01.988+00:00</time>
      </trkpt>
      <trkpt lat="49.40302" lon="1.23502">
        <ele>116</ele>
        <time>2024-10-29T15:35:05.987+00:00</time>
      </trkpt>
      <trkpt lat="49.40307" lon="1.23498">
        <ele>116</ele>
        <time>2024-10-29T15:35:10.402+00:00</time>
      </trkpt>
      <trkpt lat="49.40311" lon="1.23493">
        <ele>116</ele>
        <time>2024-10-29T15:35:14.641+00:00</time>
      </trkpt>
      <trkpt lat="49.40314" lon="1.23489">
        <ele>116</ele>
        <time>2024-10-29T15:35:18.797+00:00</time>
      </trkpt>
      <trkpt lat="49.40318" lon="1.23485">
        <ele>114</ele>
        <time>2024-10-29T15:35:22.990+00:00</time>
      </trkpt>
      <trkpt lat="49.40321" lon="1.23482">
        <ele>115</ele>
        <time>2024-10-29T15:35:26.989+00:00</time>
      </trkpt>
      <trkpt lat="49.40326" lon="1.23479">
        <ele>115</ele>
        <time>2024-10-29T15:35:30.988+00:00</time>
      </trkpt>
      <trkpt lat="49.40331" lon="1.23476">
        <ele>115</ele>
        <time>2024-10-29T15:35:35.401+00:00</time>
      </trkpt>
      <trkpt lat="49.40334" lon="1.23472">
        <ele>115</ele>
        <time>2024-10-29T15:35:39.724+00:00</time>
      </trkpt>
      <trkpt lat="49.40337" lon="1.23468">
        <ele>115</ele>
        <time>2024-10-29T15:35:43.944+00:00</time>
      </trkpt>
      <trkpt lat="49.40341" lon="1.23463">
        <ele>115</ele>
        <time>2024-10-29T15:35:48.160+00:00</time>
      </trkpt>
      <trkpt lat="49.40345" lon="1.2346">
        <ele>115</ele>
        <time>2024-10-29T15:35:52.379+00:00</time>
      </trkpt>
      <trkpt lat="49.40349" lon="1.23454">
        <ele>114</ele>
        <time>2024-10-29T15:35:56.483+00:00</time>
      </trkpt>
      <trkpt lat="49.40354" lon="1.23448">
        <ele>114</ele>
        <time>2024-10-29T15:36:00.514+00:00</time>
      </trkpt>
      <trkpt lat="49.40357" lon="1.23442">
        <ele>114</ele>
        <time>2024-10-29T15:36:04.696+00:00</time>
      </trkpt>
      <trkpt lat="49.40359" lon="1.23436">
        <ele>114</ele>
        <time>2024-10-29T15:36:08.757+00:00</time>
      </trkpt>
      <trkpt lat="49.40364" lon="1.2343">
        <ele>113</ele>
        <time>2024-10-29T15:36:13.461+00:00</time>
      </trkpt>
      <trkpt lat="49.40367" lon="1.23425">
        <ele>113</ele>
        <time>2024-10-29T15:36:17.992+00:00</time>
      </trkpt>
      <trkpt lat="49.4037" lon="1.23424">
        <ele>113</ele>
        <time>2024-10-29T15:36:22.698+00:00</time>
      </trkpt>
      <trkpt lat="49.40372" lon="1.2342">
        <ele>113</ele>
        <time>2024-10-29T15:36:26.984+00:00</time>
      </trkpt>
      <trkpt lat="49.40375" lon="1.23415">
        <ele>113</ele>
        <time>2024-10-29T15:36:31.277+00:00</time>
      </trkpt>
      <trkpt lat="49.40379" lon="1.23409">
        <ele>117</ele>
        <time>2024-10-29T15:36:35.643+00:00</time>
      </trkpt>
      <trkpt lat="49.40381" lon="1.23403">
        <ele>117</ele>
        <time>2024-10-29T15:36:39.769+00:00</time>
      </trkpt>
      <trkpt lat="49.40386" lon="1.23398">
        <ele>116</ele>
        <time>2024-10-29T15:36:44.016+00:00</time>
      </trkpt>
      <trkpt lat="49.40389" lon="1.23392">
        <ele>116</ele>
        <time>2024-10-29T15:36:48.556+00:00</time>
      </trkpt>
      <trkpt lat="49.40394" lon="1.23388">
        <ele>116</ele>
        <time>2024-10-29T15:36:52.860+00:00</time>
      </trkpt>
      <trkpt lat="49.40398" lon="1.23381">
        <ele>116</ele>
        <time>2024-10-29T15:36:57.144+00:00</time>
      </trkpt>
      <trkpt lat="49.40402" lon="1.23375">
        <ele>116</ele>
        <time>2024-10-29T15:37:01.243+00:00</time>
      </trkpt>
      <trkpt lat="49.40407" lon="1.23373">
        <ele>119</ele>
        <time>2024-10-29T15:37:05.378+00:00</time>
      </trkpt>
      <trkpt lat="49.40411" lon="1.23367">
        <ele>119</ele>
        <time>2024-10-29T15:37:09.595+00:00</time>
      </trkpt>
      <trkpt lat="49.40416" lon="1.23362">
        <ele>119</ele>
        <time>2024-10-29T15:37:13.673+00:00</time>
      </trkpt>
      <trkpt lat="49.40419" lon="1.23355">
        <ele>119</ele>
        <time>2024-10-29T15:37:17.884+00:00</time>
      </trkpt>
      <trkpt lat="49.40422" lon="1.23348">
        <ele>119</ele>
        <time>2024-10-29T15:37:22.276+00:00</time>
      </trkpt>
      <trkpt lat="49.40423" lon="1.23343">
        <ele>117</ele>
        <time>2024-10-29T15:37:26.383+00:00</time>
      </trkpt>
      <trkpt lat="49.40424" lon="1.23337">
        <ele>117</ele>
        <time>2024-10-29T15:37:30.696+00:00</time>
      </trkpt>
      <trkpt lat="49.40424" lon="1.23331">
        <ele>117</ele>
        <time>2024-10-29T15:37:34.796+00:00</time>
      </trkpt>
      <trkpt lat="49.40424" lon="1.23323">
        <ele>117</ele>
        <time>2024-10-29T15:37:38.795+00:00</time>
      </trkpt>
      <trkpt lat="49.40423" lon="1.23315">
        <ele>117</ele>
        <time>2024-10-29T15:37:42.997+00:00</time>
      </trkpt>
      <trkpt lat="49.40424" lon="1.23309">
        <ele>117</ele>
        <time>2024-10-29T15:37:46.998+00:00</time>
      </trkpt>
      <trkpt lat="49.40425" lon="1.23302">
        <ele>117</ele>
        <time>2024-10-29T15:37:51.427+00:00</time>
      </trkpt>
      <trkpt lat="49.40425" lon="1.23295">
        <ele>117</ele>
        <time>2024-10-29T15:37:55.579+00:00</time>
      </trkpt>
      <trkpt lat="49.40426" lon="1.23287">
        <ele>116</ele>
        <time>2024-10-29T15:37:59.663+00:00</time>
      </trkpt>
      <trkpt lat="49.40427" lon="1.23279">
        <ele>116</ele>
        <time>2024-10-29T15:38:03.916+00:00</time>
      </trkpt>
      <trkpt lat="49.40427" lon="1.2327">
        <ele>116</ele>
        <time>2024-10-29T15:38:07.987+00:00</time>
      </trkpt>
      <trkpt lat="49.40427" lon="1.23264">
        <ele>114</ele>
        <time>2024-10-29T15:38:12.317+00:00</time>
      </trkpt>
      <trkpt lat="49.40429" lon="1.23259">
        <ele>114</ele>
        <time>2024-10-29T15:38:16.505+00:00</time>
      </trkpt>
      <trkpt lat="49.40429" lon="1.23261">
        <ele>114</ele>
        <time>2024-10-29T15:38:29.994+00:00</time>
      </trkpt>
      <trkpt lat="49.40428" lon="1.23261">
        <ele>114</ele>
        <time>2024-10-29T15:38:33.991+00:00</time>
      </trkpt>
      <trkpt lat="49.40428" lon="1.23261">
        <ele>114</ele>
        <time>2024-10-29T15:38:38.393+00:00</time>
      </trkpt>
      <trkpt lat="49.40427" lon="1.23264">
        <ele>116</ele>
        <time>2024-10-29T15:38:42.991+00:00</time>
      </trkpt>
      <trkpt lat="49.40426" lon="1.23268">
        <ele>116</ele>
        <time>2024-10-29T15:38:47.989+00:00</time>
      </trkpt>
      <trkpt lat="49.40429" lon="1.23268">
        <ele>116</ele>
        <time>2024-10-29T15:39:09.994+00:00</time>
      </trkpt>
      <trkpt lat="49.4043" lon="1.23267">
        <ele>116</ele>
        <time>2024-10-29T15:39:14.986+00:00</time>
      </trkpt>
      <trkpt lat="49.4043" lon="1.23263">
        <ele>114</ele>
        <time>2024-10-29T15:39:18.989+00:00</time>
      </trkpt>
      <trkpt lat="49.40429" lon="1.23259">
        <ele>114</ele>
        <time>2024-10-29T15:39:23.128+00:00</time>
      </trkpt>
      <trkpt lat="49.40433" lon="1.2325">
        <ele>119</ele>
        <time>2024-10-29T15:39:27.838+00:00</time>
      </trkpt>
      <trkpt lat="49.40434" lon="1.23242">
        <ele>119</ele>
        <time>2024-10-29T15:39:31.984+00:00</time>
      </trkpt>
      <trkpt lat="49.40436" lon="1.23233">
        <ele>115</ele>
        <time>2024-10-29T15:39:36.276+00:00</time>
      </trkpt>
      <trkpt lat="49.40437" lon="1.23225">
        <ele>115</ele>
        <time>2024-10-29T15:39:40.774+00:00</time>
      </trkpt>
      <trkpt lat="49.40438" lon="1.23217">
        <ele>115</ele>
        <time>2024-10-29T15:39:45.273+00:00</time>
      </trkpt>
      <trkpt lat="49.4044" lon="1.23212">
        <ele>115</ele>
        <time>2024-10-29T15:39:49.650+00:00</time>
      </trkpt>
      <trkpt lat="49.40442" lon="1.23207">
        <ele>112</ele>
        <time>2024-10-29T15:39:53.975+00:00</time>
      </trkpt>
      <trkpt lat="49.40443" lon="1.23201">
        <ele>112</ele>
        <time>2024-10-29T15:39:58.222+00:00</time>
      </trkpt>
      <trkpt lat="49.40445" lon="1.23196">
        <ele>112</ele>
        <time>2024-10-29T15:40:02.383+00:00</time>
      </trkpt>
      <trkpt lat="49.40447" lon="1.2319">
        <ele>112</ele>
        <time>2024-10-29T15:40:06.845+00:00</time>
      </trkpt>
      <trkpt lat="49.40448" lon="1.23182">
        <ele>112</ele>
        <time>2024-10-29T15:40:10.984+00:00</time>
      </trkpt>
      <trkpt lat="49.4045" lon="1.23175">
        <ele>110</ele>
        <time>2024-10-29T15:40:15.328+00:00</time>
      </trkpt>
      <trkpt lat="49.40453" lon="1.23168">
        <ele>110</ele>
        <time>2024-10-29T15:40:19.661+00:00</time>
      </trkpt>
      <trkpt lat="49.40456" lon="1.23161">
        <ele>110</ele>
        <time>2024-10-29T15:40:23.861+00:00</time>
      </trkpt>
      <trkpt lat="49.40456" lon="1.23152">
        <ele>110</ele>
        <time>2024-10-29T15:40:27.990+00:00</time>
      </trkpt>
      <trkpt lat="49.40459" lon="1.23146">
        <ele>113</ele>
        <time>2024-10-29T15:40:32.518+00:00</time>
      </trkpt>
      <trkpt lat="49.40461" lon="1.2314">
        <ele>113</ele>
        <time>2024-10-29T15:40:36.937+00:00</time>
      </trkpt>
      <trkpt lat="49.40464" lon="1.23133">
        <ele>113</ele>
        <time>2024-10-29T15:40:41.801+00:00</time>
      </trkpt>
      <trkpt lat="49.40466" lon="1.23128">
        <ele>113</ele>
        <time>2024-10-29T15:40:45.991+00:00</time>
      </trkpt>
      <trkpt lat="49.40468" lon="1.23121">
        <ele>113</ele>
        <time>2024-10-29T15:40:50.820+00:00</time>
      </trkpt>
      <trkpt lat="49.40469" lon="1.23113">
        <ele>113</ele>
        <time>2024-10-29T15:40:54.856+00:00</time>
      </trkpt>
      <trkpt lat="49.40468" lon="1.23104">
        <ele>113</ele>
        <time>2024-10-29T15:40:59.175+00:00</time>
      </trkpt>
      <trkpt lat="49.40468" lon="1.23095">
        <ele>113</ele>
        <time>2024-10-29T15:41:03.437+00:00</time>
      </trkpt>
      <trkpt lat="49.4047" lon="1.23089">
        <ele>113</ele>
        <time>2024-10-29T15:41:07.632+00:00</time>
      </trkpt>
      <trkpt lat="49.40471" lon="1.23083">
        <ele>113</ele>
        <time>2024-10-29T15:41:11.891+00:00</time>
      </trkpt>
      <trkpt lat="49.4047" lon="1.23076">
        <ele>113</ele>
        <time>2024-10-29T15:41:16.034+00:00</time>
      </trkpt>
      <trkpt lat="49.4047" lon="1.23067">
        <ele>113</ele>
        <time>2024-10-29T15:41:20.356+00:00</time>
      </trkpt>
      <trkpt lat="49.4047" lon="1.23059">
        <ele>113</ele>
        <time>2024-10-29T15:41:24.536+00:00</time>
      </trkpt>
      <trkpt lat="49.40469" lon="1.23052">
        <ele>113</ele>
        <time>2024-10-29T15:41:28.893+00:00</time>
      </trkpt>
      <trkpt lat="49.4047" lon="1.23048">
        <ele>113</ele>
        <time>2024-10-29T15:41:33.291+00:00</time>
      </trkpt>
      <trkpt lat="49.40471" lon="1.23042">
        <ele>113</ele>
        <time>2024-10-29T15:41:37.660+00:00</time>
      </trkpt>
      <trkpt lat="49.40472" lon="1.23035">
        <ele>112</ele>
        <time>2024-10-29T15:41:41.839+00:00</time>
      </trkpt>
      <trkpt lat="49.40472" lon="1.23027">
        <ele>112</ele>
        <time>2024-10-29T15:41:46.175+00:00</time>
      </trkpt>
      <trkpt lat="49.40472" lon="1.23019">
        <ele>112</ele>
        <time>2024-10-29T15:41:50.459+00:00</time>
      </trkpt>
      <trkpt lat="49.40471" lon="1.2301">
        <ele>113</ele>
        <time>2024-10-29T15:41:54.507+00:00</time>
      </trkpt>
      <trkpt lat="49.4047" lon="1.23">
        <ele>113</ele>
        <time>2024-10-29T15:41:58.838+00:00</time>
      </trkpt>
      <trkpt lat="49.40468" lon="1.22992">
        <ele>113</ele>
        <time>2024-10-29T15:42:02.987+00:00</time>
      </trkpt>
      <trkpt lat="49.40466" lon="1.22983">
        <ele>113</ele>
        <time>2024-10-29T15:42:07.447+00:00</time>
      </trkpt>
      <trkpt lat="49.40464" lon="1.22976">
        <ele>113</ele>
        <time>2024-10-29T15:42:11.642+00:00</time>
      </trkpt>
      <trkpt lat="49.40463" lon="1.22968">
        <ele>113</ele>
        <time>2024-10-29T15:42:15.987+00:00</time>
      </trkpt>
      <trkpt lat="49.40463" lon="1.22959">
        <ele>113</ele>
        <time>2024-10-29T15:42:20.174+00:00</time>
      </trkpt>
      <trkpt lat="49.40462" lon="1.22953">
        <ele>112</ele>
        <time>2024-10-29T15:42:24.513+00:00</time>
      </trkpt>
      <trkpt lat="49.40461" lon="1.22946">
        <ele>112</ele>
        <time>2024-10-29T15:42:28.557+00:00</time>
      </trkpt>
      <trkpt lat="49.4046" lon="1.2294">
        <ele>112</ele>
        <time>2024-10-29T15:42:32.832+00:00</time>
      </trkpt>
      <trkpt lat="49.40459" lon="1.22934">
        <ele>112</ele>
        <time>2024-10-29T15:42:36.895+00:00</time>
      </trkpt>
      <trkpt lat="49.40458" lon="1.22927">
        <ele>109</ele>
        <time>2024-10-29T15:42:40.985+00:00</time>
      </trkpt>
      <trkpt lat="49.40457" lon="1.22919">
        <ele>109</ele>
        <time>2024-10-29T15:42:45.243+00:00</time>
      </trkpt>
      <trkpt lat="49.40456" lon="1.22911">
        <ele>109</ele>
        <time>2024-10-29T15:42:49.483+00:00</time>
      </trkpt>
      <trkpt lat="49.40455" lon="1.22902">
        <ele>108</ele>
        <time>2024-10-29T15:42:53.699+00:00</time>
      </trkpt>
      <trkpt lat="49.40454" lon="1.22895">
        <ele>108</ele>
        <time>2024-10-29T15:42:57.912+00:00</time>
      </trkpt>
      <trkpt lat="49.40452" lon="1.22888">
        <ele>108</ele>
        <time>2024-10-29T15:43:02.200+00:00</time>
      </trkpt>
      <trkpt lat="49.40452" lon="1.2288">
        <ele>108</ele>
        <time>2024-10-29T15:43:06.472+00:00</time>
      </trkpt>
      <trkpt lat="49.40452" lon="1.22871">
        <ele>108</ele>
        <time>2024-10-29T15:43:11.368+00:00</time>
      </trkpt>
      <trkpt lat="49.40454" lon="1.22868">
        <ele>108</ele>
        <time>2024-10-29T15:43:15.880+00:00</time>
      </trkpt>
      <trkpt lat="49.40454" lon="1.2286">
        <ele>108</ele>
        <time>2024-10-29T15:43:19.991+00:00</time>
      </trkpt>
      <trkpt lat="49.40455" lon="1.22853">
        <ele>108</ele>
        <time>2024-10-29T15:43:23.991+00:00</time>
      </trkpt>
      <trkpt lat="49.40457" lon="1.22845">
        <ele>109</ele>
        <time>2024-10-29T15:43:28.621+00:00</time>
      </trkpt>
      <trkpt lat="49.40458" lon="1.22838">
        <ele>109</ele>
        <time>2024-10-29T15:43:32.821+00:00</time>
      </trkpt>
      <trkpt lat="49.40461" lon="1.22832">
        <ele>110</ele>
        <time>2024-10-29T15:43:36.984+00:00</time>
      </trkpt>
      <trkpt lat="49.40463" lon="1.22824">
        <ele>110</ele>
        <time>2024-10-29T15:43:41.351+00:00</time>
      </trkpt>
      <trkpt lat="49.40467" lon="1.22821">
        <ele>110</ele>
        <time>2024-10-29T15:43:45.834+00:00</time>
      </trkpt>
      <trkpt lat="49.40472" lon="1.22822">
        <ele>110</ele>
        <time>2024-10-29T15:43:49.992+00:00</time>
      </trkpt>
      <trkpt lat="49.40476" lon="1.22819">
        <ele>109</ele>
        <time>2024-10-29T15:43:54.507+00:00</time>
      </trkpt>
      <trkpt lat="49.40476" lon="1.22812">
        <ele>109</ele>
        <time>2024-10-29T15:43:58.814+00:00</time>
      </trkpt>
      <trkpt lat="49.40473" lon="1.22805">
        <ele>109</ele>
        <time>2024-10-29T15:44:02.986+00:00</time>
      </trkpt>
      <trkpt lat="49.4047" lon="1.22798">
        <ele>109</ele>
        <time>2024-10-29T15:44:06.989+00:00</time>
      </trkpt>
      <trkpt lat="49.40468" lon="1.22789">
        <ele>109</ele>
        <time>2024-10-29T15:44:11.340+00:00</time>
      </trkpt>
      <trkpt lat="49.40471" lon="1.22784">
        <ele>109</ele>
        <time>2024-10-29T15:44:15.471+00:00</time>
      </trkpt>
      <trkpt lat="49.40476" lon="1.22781">
        <ele>109</ele>
        <time>2024-10-29T15:44:19.674+00:00</time>
      </trkpt>
      <trkpt lat="49.4048" lon="1.22777">
        <ele>109</ele>
        <time>2024-10-29T15:44:23.891+00:00</time>
      </trkpt>
      <trkpt lat="49.40484" lon="1.22775">
        <ele>109</ele>
        <time>2024-10-29T15:44:27.981+00:00</time>
      </trkpt>
      <trkpt lat="49.40488" lon="1.22775">
        <ele>109</ele>
        <time>2024-10-29T15:44:32.153+00:00</time>
      </trkpt>
      <trkpt lat="49.40493" lon="1.22772">
        <ele>109</ele>
        <time>2024-10-29T15:44:36.332+00:00</time>
      </trkpt>
      <trkpt lat="49.40496" lon="1.22767">
        <ele>109</ele>
        <time>2024-10-29T15:44:40.985+00:00</time>
      </trkpt>
      <trkpt lat="49.405" lon="1.22765">
        <ele>109</ele>
        <time>2024-10-29T15:44:45.729+00:00</time>
      </trkpt>
      <trkpt lat="49.40505" lon="1.22763">
        <ele>108</ele>
        <time>2024-10-29T15:44:49.924+00:00</time>
      </trkpt>
      <trkpt lat="49.40512" lon="1.22766">
        <ele>109</ele>
        <time>2024-10-29T15:44:54.575+00:00</time>
      </trkpt>
      <trkpt lat="49.40518" lon="1.22768">
        <ele>108</ele>
        <time>2024-10-29T15:44:58.798+00:00</time>
      </trkpt>
      <trkpt lat="49.40524" lon="1.22769">
        <ele>108</ele>
        <time>2024-10-29T15:45:03.451+00:00</time>
      </trkpt>
      <trkpt lat="49.40531" lon="1.22767">
        <ele>108</ele>
        <time>2024-10-29T15:45:07.598+00:00</time>
      </trkpt>
      <trkpt lat="49.40535" lon="1.22769">
        <ele>108</ele>
        <time>2024-10-29T15:45:11.687+00:00</time>
      </trkpt>
      <trkpt lat="49.4054" lon="1.22769">
        <ele>108</ele>
        <time>2024-10-29T15:45:15.828+00:00</time>
      </trkpt>
      <trkpt lat="49.40546" lon="1.22769">
        <ele>105</ele>
        <time>2024-10-29T15:45:19.994+00:00</time>
      </trkpt>
      <trkpt lat="49.40552" lon="1.22769">
        <ele>105</ele>
        <time>2024-10-29T15:45:23.994+00:00</time>
      </trkpt>
      <trkpt lat="49.40557" lon="1.22771">
        <ele>105</ele>
        <time>2024-10-29T15:45:27.990+00:00</time>
      </trkpt>
      <trkpt lat="49.40564" lon="1.22772">
        <ele>105</ele>
        <time>2024-10-29T15:45:32.456+00:00</time>
      </trkpt>
      <trkpt lat="49.40569" lon="1.22772">
        <ele>105</ele>
        <time>2024-10-29T15:45:36.637+00:00</time>
      </trkpt>
      <trkpt lat="49.40574" lon="1.22771">
        <ele>104</ele>
        <time>2024-10-29T15:45:40.676+00:00</time>
      </trkpt>
      <trkpt lat="49.4058" lon="1.22771">
        <ele>104</ele>
        <time>2024-10-29T15:45:44.777+00:00</time>
      </trkpt>
      <trkpt lat="49.40585" lon="1.2277">
        <ele>104</ele>
        <time>2024-10-29T15:45:48.861+00:00</time>
      </trkpt>
      <trkpt lat="49.4059" lon="1.22768">
        <ele>104</ele>
        <time>2024-10-29T15:45:53.427+00:00</time>
      </trkpt>
      <trkpt lat="49.40596" lon="1.22766">
        <ele>104</ele>
        <time>2024-10-29T15:45:57.826+00:00</time>
      </trkpt>
      <trkpt lat="49.40601" lon="1.22765">
        <ele>104</ele>
        <time>2024-10-29T15:46:01.987+00:00</time>
      </trkpt>
      <trkpt lat="49.40606" lon="1.22763">
        <ele>103</ele>
        <time>2024-10-29T15:46:06.288+00:00</time>
      </trkpt>
      <trkpt lat="49.4061" lon="1.22761">
        <ele>103</ele>
        <time>2024-10-29T15:46:10.683+00:00</time>
      </trkpt>
      <trkpt lat="49.40615" lon="1.22759">
        <ele>103</ele>
        <time>2024-10-29T15:46:14.944+00:00</time>
      </trkpt>
      <trkpt lat="49.4062" lon="1.22759">
        <ele>103</ele>
        <time>2024-10-29T15:46:19.757+00:00</time>
      </trkpt>
      <trkpt lat="49.40625" lon="1.2276">
        <ele>103</ele>
        <time>2024-10-29T15:46:23.960+00:00</time>
      </trkpt>
      <trkpt lat="49.40629" lon="1.22759">
        <ele>102</ele>
        <time>2024-10-29T15:46:27.983+00:00</time>
      </trkpt>
      <trkpt lat="49.40633" lon="1.22758">
        <ele>102</ele>
        <time>2024-10-29T15:46:32.234+00:00</time>
      </trkpt>
      <trkpt lat="49.40638" lon="1.22757">
        <ele>102</ele>
        <time>2024-10-29T15:46:36.452+00:00</time>
      </trkpt>
      <trkpt lat="49.40643" lon="1.22756">
        <ele>102</ele>
        <time>2024-10-29T15:46:40.596+00:00</time>
      </trkpt>
      <trkpt lat="49.40647" lon="1.22755">
        <ele>102</ele>
        <time>2024-10-29T15:46:44.811+00:00</time>
      </trkpt>
      <trkpt lat="49.4065" lon="1.22753">
        <ele>102</ele>
        <time>2024-10-29T15:46:48.994+00:00</time>
      </trkpt>
      <trkpt lat="49.40655" lon="1.22752">
        <ele>102</ele>
        <time>2024-10-29T15:46:53.183+00:00</time>
      </trkpt>
      <trkpt lat="49.40659" lon="1.22751">
        <ele>102</ele>
        <time>2024-10-29T15:46:57.441+00:00</time>
      </trkpt>
      <trkpt lat="49.40663" lon="1.2275">
        <ele>102</ele>
        <time>2024-10-29T15:47:01.675+00:00</time>
      </trkpt>
      <trkpt lat="49.40668" lon="1.2275">
        <ele>102</ele>
        <time>2024-10-29T15:47:05.995+00:00</time>
      </trkpt>
      <trkpt lat="49.40673" lon="1.22749">
        <ele>102</ele>
        <time>2024-10-29T15:47:10.586+00:00</time>
      </trkpt>
      <trkpt lat="49.40678" lon="1.22748">
        <ele>102</ele>
        <time>2024-10-29T15:47:14.779+00:00</time>
      </trkpt>
      <trkpt lat="49.40683" lon="1.22747">
        <ele>104</ele>
        <time>2024-10-29T15:47:18.981+00:00</time>
      </trkpt>
      <trkpt lat="49.40688" lon="1.22747">
        <ele>104</ele>
        <time>2024-10-29T15:47:23.182+00:00</time>
      </trkpt>
      <trkpt lat="49.40694" lon="1.22746">
        <ele>104</ele>
        <time>2024-10-29T15:47:27.377+00:00</time>
      </trkpt>
      <trkpt lat="49.40699" lon="1.22744">
        <ele>104</ele>
        <time>2024-10-29T15:47:31.549+00:00</time>
      </trkpt>
      <trkpt lat="49.40704" lon="1.22742">
        <ele>104</ele>
        <time>2024-10-29T15:47:35.733+00:00</time>
      </trkpt>
      <trkpt lat="49.40707" lon="1.2274">
        <ele>104</ele>
        <time>2024-10-29T15:47:40.099+00:00</time>
      </trkpt>
      <trkpt lat="49.40711" lon="1.22737">
        <ele>105</ele>
        <time>2024-10-29T15:47:44.381+00:00</time>
      </trkpt>
      <trkpt lat="49.40716" lon="1.22735">
        <ele>101</ele>
        <time>2024-10-29T15:47:48.539+00:00</time>
      </trkpt>
      <trkpt lat="49.4072" lon="1.22731">
        <ele>101</ele>
        <time>2024-10-29T15:47:52.724+00:00</time>
      </trkpt>
      <trkpt lat="49.40724" lon="1.22728">
        <ele>101</ele>
        <time>2024-10-29T15:47:56.984+00:00</time>
      </trkpt>
      <trkpt lat="49.4073" lon="1.22727">
        <ele>101</ele>
        <time>2024-10-29T15:48:01.346+00:00</time>
      </trkpt>
      <trkpt lat="49.40735" lon="1.22725">
        <ele>101</ele>
        <time>2024-10-29T15:48:05.798+00:00</time>
      </trkpt>
      <trkpt lat="49.40737" lon="1.22719">
        <ele>104</ele>
        <time>2024-10-29T15:48:10.194+00:00</time>
      </trkpt>
      <trkpt lat="49.40739" lon="1.22711">
        <ele>104</ele>
        <time>2024-10-29T15:48:14.375+00:00</time>
      </trkpt>
      <trkpt lat="49.40743" lon="1.22705">
        <ele>101</ele>
        <time>2024-10-29T15:48:18.764+00:00</time>
      </trkpt>
      <trkpt lat="49.40747" lon="1.22701">
        <ele>101</ele>
        <time>2024-10-29T15:48:22.933+00:00</time>
      </trkpt>
      <trkpt lat="49.40752" lon="1.22698">
        <ele>101</ele>
        <time>2024-10-29T15:48:27.222+00:00</time>
      </trkpt>
      <trkpt lat="49.40756" lon="1.22693">
        <ele>101</ele>
        <time>2024-10-29T15:48:31.980+00:00</time>
      </trkpt>
      <trkpt lat="49.40761" lon="1.22687">
        <ele>101</ele>
        <time>2024-10-29T15:48:36.741+00:00</time>
      </trkpt>
      <trkpt lat="49.40765" lon="1.22682">
        <ele>106</ele>
        <time>2024-10-29T15:48:40.915+00:00</time>
      </trkpt>
      <trkpt lat="49.4077" lon="1.22676">
        <ele>102</ele>
        <time>2024-10-29T15:48:44.987+00:00</time>
      </trkpt>
      <trkpt lat="49.40773" lon="1.2267">
        <ele>102</ele>
        <time>2024-10-29T15:48:49.158+00:00</time>
      </trkpt>
      <trkpt lat="49.40776" lon="1.22663">
        <ele>102</ele>
        <time>2024-10-29T15:48:53.357+00:00</time>
      </trkpt>
      <trkpt lat="49.40778" lon="1.22654">
        <ele>102</ele>
        <time>2024-10-29T15:48:57.577+00:00</time>
      </trkpt>
      <trkpt lat="49.4078" lon="1.22645">
        <ele>99</ele>
        <time>2024-10-29T15:49:01.598+00:00</time>
      </trkpt>
      <trkpt lat="49.40782" lon="1.22637">
        <ele>99</ele>
        <time>2024-10-29T15:49:06.278+00:00</time>
      </trkpt>
      <trkpt lat="49.40783" lon="1.22631">
        <ele>99</ele>
        <time>2024-10-29T15:49:10.377+00:00</time>
      </trkpt>
      <trkpt lat="49.40786" lon="1.22625">
        <ele>99</ele>
        <time>2024-10-29T15:49:14.584+00:00</time>
      </trkpt>
      <trkpt lat="49.40789" lon="1.2262">
        <ele>97</ele>
        <time>2024-10-29T15:49:18.734+00:00</time>
      </trkpt>
      <trkpt lat="49.40792" lon="1.22614">
        <ele>103</ele>
        <time>2024-10-29T15:49:22.922+00:00</time>
      </trkpt>
      <trkpt lat="49.40794" lon="1.22607">
        <ele>103</ele>
        <time>2024-10-29T15:49:26.985+00:00</time>
      </trkpt>
      <trkpt lat="49.40794" lon="1.226">
        <ele>103</ele>
        <time>2024-10-29T15:49:31.278+00:00</time>
      </trkpt>
      <trkpt lat="49.40794" lon="1.22591">
        <ele>100</ele>
        <time>2024-10-29T15:49:35.455+00:00</time>
      </trkpt>
      <trkpt lat="49.40794" lon="1.22584">
        <ele>100</ele>
        <time>2024-10-29T15:49:39.657+00:00</time>
      </trkpt>
      <trkpt lat="49.40795" lon="1.22576">
        <ele>100</ele>
        <time>2024-10-29T15:49:43.878+00:00</time>
      </trkpt>
      <trkpt lat="49.40795" lon="1.22568">
        <ele>98</ele>
        <time>2024-10-29T15:49:47.991+00:00</time>
      </trkpt>
      <trkpt lat="49.40795" lon="1.22561">
        <ele>98</ele>
        <time>2024-10-29T15:49:52.300+00:00</time>
      </trkpt>
      <trkpt lat="49.40796" lon="1.22553">
        <ele>98</ele>
        <time>2024-10-29T15:49:56.445+00:00</time>
      </trkpt>
      <trkpt lat="49.40798" lon="1.22547">
        <ele>98</ele>
        <time>2024-10-29T15:50:00.537+00:00</time>
      </trkpt>
      <trkpt lat="49.408" lon="1.22542">
        <ele>96</ele>
        <time>2024-10-29T15:50:04.847+00:00</time>
      </trkpt>
      <trkpt lat="49.40802" lon="1.22535">
        <ele>96</ele>
        <time>2024-10-29T15:50:08.987+00:00</time>
      </trkpt>
      <trkpt lat="49.40806" lon="1.2253">
        <ele>96</ele>
        <time>2024-10-29T15:50:13.117+00:00</time>
      </trkpt>
      <trkpt lat="49.40809" lon="1.22525">
        <ele>96</ele>
        <time>2024-10-29T15:50:17.183+00:00</time>
      </trkpt>
      <trkpt lat="49.40813" lon="1.22519">
        <ele>96</ele>
        <time>2024-10-29T15:50:21.383+00:00</time>
      </trkpt>
      <trkpt lat="49.40817" lon="1.22514">
        <ele>96</ele>
        <time>2024-10-29T15:50:25.541+00:00</time>
      </trkpt>
      <trkpt lat="49.40821" lon="1.2251">
        <ele>97</ele>
        <time>2024-10-29T15:50:29.842+00:00</time>
      </trkpt>
      <trkpt lat="49.40824" lon="1.22506">
        <ele>97</ele>
        <time>2024-10-29T15:50:33.988+00:00</time>
      </trkpt>
      <trkpt lat="49.40828" lon="1.22501">
        <ele>97</ele>
        <time>2024-10-29T15:50:38.327+00:00</time>
      </trkpt>
      <trkpt lat="49.40831" lon="1.22496">
        <ele>97</ele>
        <time>2024-10-29T15:50:42.513+00:00</time>
      </trkpt>
      <trkpt lat="49.40834" lon="1.22491">
        <ele>97</ele>
        <time>2024-10-29T15:50:46.658+00:00</time>
      </trkpt>
      <trkpt lat="49.40838" lon="1.22487">
        <ele>97</ele>
        <time>2024-10-29T15:50:50.838+00:00</time>
      </trkpt>
      <trkpt lat="49.4084" lon="1.22483">
        <ele>95</ele>
        <time>2024-10-29T15:50:54.983+00:00</time>
      </trkpt>
      <trkpt lat="49.40843" lon="1.22477">
        <ele>95</ele>
        <time>2024-10-29T15:50:59.266+00:00</time>
      </trkpt>
      <trkpt lat="49.40847" lon="1.22472">
        <ele>95</ele>
        <time>2024-10-29T15:51:03.448+00:00</time>
      </trkpt>
      <trkpt lat="49.40851" lon="1.22467">
        <ele>99</ele>
        <time>2024-10-29T15:51:07.622+00:00</time>
      </trkpt>
      <trkpt lat="49.40853" lon="1.22461">
        <ele>99</ele>
        <time>2024-10-29T15:51:11.760+00:00</time>
      </trkpt>
      <trkpt lat="49.40855" lon="1.22455">
        <ele>96</ele>
        <time>2024-10-29T15:51:15.803+00:00</time>
      </trkpt>
      <trkpt lat="49.40858" lon="1.22451">
        <ele>96</ele>
        <time>2024-10-29T15:51:20.004+00:00</time>
      </trkpt>
      <trkpt lat="49.40861" lon="1.22446">
        <ele>96</ele>
        <time>2024-10-29T15:51:24.265+00:00</time>
      </trkpt>
      <trkpt lat="49.40865" lon="1.22442">
        <ele>96</ele>
        <time>2024-10-29T15:51:28.569+00:00</time>
      </trkpt>
      <trkpt lat="49.40868" lon="1.22438">
        <ele>96</ele>
        <time>2024-10-29T15:51:32.786+00:00</time>
      </trkpt>
      <trkpt lat="49.40872" lon="1.22434">
        <ele>96</ele>
        <time>2024-10-29T15:51:36.981+00:00</time>
      </trkpt>
      <trkpt lat="49.40875" lon="1.22429">
        <ele>91</ele>
        <time>2024-10-29T15:51:41.337+00:00</time>
      </trkpt>
      <trkpt lat="49.4088" lon="1.22426">
        <ele>91</ele>
        <time>2024-10-29T15:51:45.619+00:00</time>
      </trkpt>
      <trkpt lat="49.40885" lon="1.22423">
        <ele>91</ele>
        <time>2024-10-29T15:51:49.802+00:00</time>
      </trkpt>
      <trkpt lat="49.4089" lon="1.2242">
        <ele>91</ele>
        <time>2024-10-29T15:51:53.990+00:00</time>
      </trkpt>
      <trkpt lat="49.40896" lon="1.22419">
        <ele>91</ele>
        <time>2024-10-29T15:51:58.116+00:00</time>
      </trkpt>
      <trkpt lat="49.40902" lon="1.22417">
        <ele>91</ele>
        <time>2024-10-29T15:52:02.443+00:00</time>
      </trkpt>
      <trkpt lat="49.40908" lon="1.22417">
        <ele>91</ele>
        <time>2024-10-29T15:52:06.513+00:00</time>
      </trkpt>
      <trkpt lat="49.40913" lon="1.22416">
        <ele>91</ele>
        <time>2024-10-29T15:52:10.804+00:00</time>
      </trkpt>
      <trkpt lat="49.40917" lon="1.22414">
        <ele>91</ele>
        <time>2024-10-29T15:52:14.984+00:00</time>
      </trkpt>
      <trkpt lat="49.40922" lon="1.22413">
        <ele>91</ele>
        <time>2024-10-29T15:52:19.362+00:00</time>
      </trkpt>
      <trkpt lat="49.40927" lon="1.22412">
        <ele>91</ele>
        <time>2024-10-29T15:52:23.634+00:00</time>
      </trkpt>
      <trkpt lat="49.4093" lon="1.2241">
        <ele>91</ele>
        <time>2024-10-29T15:52:27.777+00:00</time>
      </trkpt>
      <trkpt lat="49.40932" lon="1.22409">
        <ele>92</ele>
        <time>2024-10-29T15:52:31.990+00:00</time>
      </trkpt>
      <trkpt lat="49.40931" lon="1.22407">
        <ele>92</ele>
        <time>2024-10-29T15:56:22.990+00:00</time>
      </trkpt>
      <trkpt lat="49.40937" lon="1.22404">
        <ele>92</ele>
        <time>2024-10-29T15:56:27.997+00:00</time>
      </trkpt>
      <trkpt lat="49.40942" lon="1.22405">
        <ele>92</ele>
        <time>2024-10-29T15:56:32.994+00:00</time>
      </trkpt>
      <trkpt lat="49.4095" lon="1.22405">
        <ele>92</ele>
        <time>2024-10-29T15:56:37.997+00:00</time>
      </trkpt>
      <trkpt lat="49.40955" lon="1.22404">
        <ele>92</ele>
        <time>2024-10-29T15:56:41.991+00:00</time>
      </trkpt>
      <trkpt lat="49.4096" lon="1.22405">
        <ele>94</ele>
        <time>2024-10-29T15:56:46.989+00:00</time>
      </trkpt>
      <trkpt lat="49.40965" lon="1.22403">
        <ele>91</ele>
        <time>2024-10-29T15:56:51.986+00:00</time>
      </trkpt>
      <trkpt lat="49.40969" lon="1.224">
        <ele>91</ele>
        <time>2024-10-29T15:56:56.990+00:00</time>
      </trkpt>
      <trkpt lat="49.40974" lon="1.22397">
        <ele>91</ele>
        <time>2024-10-29T15:57:01.734+00:00</time>
      </trkpt>
      <trkpt lat="49.40978" lon="1.22395">
        <ele>91</ele>
        <time>2024-10-29T15:57:05.965+00:00</time>
      </trkpt>
      <trkpt lat="49.40979" lon="1.22392">
        <ele>91</ele>
        <time>2024-10-29T15:57:10.252+00:00</time>
      </trkpt>
      <trkpt lat="49.40982" lon="1.22389">
        <ele>91</ele>
        <time>2024-10-29T15:57:14.688+00:00</time>
      </trkpt>
      <trkpt lat="49.40984" lon="1.22384">
        <ele>91</ele>
        <time>2024-10-29T15:57:19.223+00:00</time>
      </trkpt>
      <trkpt lat="49.40989" lon="1.22381">
        <ele>95</ele>
        <time>2024-10-29T15:57:23.595+00:00</time>
      </trkpt>
      <trkpt lat="49.40994" lon="1.22378">
        <ele>95</ele>
        <time>2024-10-29T15:57:27.935+00:00</time>
      </trkpt>
      <trkpt lat="49.41" lon="1.22373">
        <ele>92</ele>
        <time>2024-10-29T15:57:32.460+00:00</time>
      </trkpt>
      <trkpt lat="49.41005" lon="1.22368">
        <ele>92</ele>
        <time>2024-10-29T15:57:36.796+00:00</time>
      </trkpt>
      <trkpt lat="49.41008" lon="1.22364">
        <ele>92</ele>
        <time>2024-10-29T15:57:40.900+00:00</time>
      </trkpt>
      <trkpt lat="49.41013" lon="1.22361">
        <ele>92</ele>
        <time>2024-10-29T15:57:45.539+00:00</time>
      </trkpt>
      <trkpt lat="49.41017" lon="1.22358">
        <ele>96</ele>
        <time>2024-10-29T15:57:49.918+00:00</time>
      </trkpt>
      <trkpt lat="49.4102" lon="1.22353">
        <ele>96</ele>
        <time>2024-10-29T15:57:54.324+00:00</time>
      </trkpt>
      <trkpt lat="49.41024" lon="1.22348">
        <ele>96</ele>
        <time>2024-10-29T15:57:58.655+00:00</time>
      </trkpt>
      <trkpt lat="49.41027" lon="1.22343">
        <ele>93</ele>
        <time>2024-10-29T15:58:02.993+00:00</time>
      </trkpt>
      <trkpt lat="49.4103" lon="1.22337">
        <ele>93</ele>
        <time>2024-10-29T15:58:07.538+00:00</time>
      </trkpt>
      <trkpt lat="49.41033" lon="1.22332">
        <ele>93</ele>
        <time>2024-10-29T15:58:11.988+00:00</time>
      </trkpt>
      <trkpt lat="49.41035" lon="1.22324">
        <ele>93</ele>
        <time>2024-10-29T15:58:16.322+00:00</time>
      </trkpt>
      <trkpt lat="49.41035" lon="1.22317">
        <ele>91</ele>
        <time>2024-10-29T15:58:20.764+00:00</time>
      </trkpt>
      <trkpt lat="49.41036" lon="1.2231">
        <ele>91</ele>
        <time>2024-10-29T15:58:24.988+00:00</time>
      </trkpt>
      <trkpt lat="49.41039" lon="1.22304">
        <ele>91</ele>
        <time>2024-10-29T15:58:29.485+00:00</time>
      </trkpt>
      <trkpt lat="49.41042" lon="1.22296">
        <ele>97</ele>
        <time>2024-10-29T15:58:33.989+00:00</time>
      </trkpt>
      <trkpt lat="49.41044" lon="1.22289">
        <ele>94</ele>
        <time>2024-10-29T15:58:38.470+00:00</time>
      </trkpt>
      <trkpt lat="49.41048" lon="1.22283">
        <ele>94</ele>
        <time>2024-10-29T15:58:42.845+00:00</time>
      </trkpt>
      <trkpt lat="49.4105" lon="1.22275">
        <ele>94</ele>
        <time>2024-10-29T15:58:47.241+00:00</time>
      </trkpt>
      <trkpt lat="49.41052" lon="1.22268">
        <ele>94</ele>
        <time>2024-10-29T15:58:51.798+00:00</time>
      </trkpt>
      <trkpt lat="49.41054" lon="1.22261">
        <ele>93</ele>
        <time>2024-10-29T15:58:56.332+00:00</time>
      </trkpt>
      <trkpt lat="49.41056" lon="1.22254">
        <ele>93</ele>
        <time>2024-10-29T15:59:00.776+00:00</time>
      </trkpt>
      <trkpt lat="49.41056" lon="1.22246">
        <ele>93</ele>
        <time>2024-10-29T15:59:05.263+00:00</time>
      </trkpt>
      <trkpt lat="49.41057" lon="1.22238">
        <ele>93</ele>
        <time>2024-10-29T15:59:09.608+00:00</time>
      </trkpt>
      <trkpt lat="49.41058" lon="1.22231">
        <ele>92</ele>
        <time>2024-10-29T15:59:13.990+00:00</time>
      </trkpt>
      <trkpt lat="49.41058" lon="1.22223">
        <ele>92</ele>
        <time>2024-10-29T15:59:18.256+00:00</time>
      </trkpt>
      <trkpt lat="49.41057" lon="1.22216">
        <ele>92</ele>
        <time>2024-10-29T15:59:22.646+00:00</time>
      </trkpt>
      <trkpt lat="49.41056" lon="1.22208">
        <ele>91</ele>
        <time>2024-10-29T15:59:26.796+00:00</time>
      </trkpt>
      <trkpt lat="49.41056" lon="1.22202">
        <ele>91</ele>
        <time>2024-10-29T15:59:30.986+00:00</time>
      </trkpt>
      <trkpt lat="49.41057" lon="1.22195">
        <ele>91</ele>
        <time>2024-10-29T15:59:35.459+00:00</time>
      </trkpt>
      <trkpt lat="49.41056" lon="1.22187">
        <ele>91</ele>
        <time>2024-10-29T15:59:39.652+00:00</time>
      </trkpt>
      <trkpt lat="49.41055" lon="1.2218">
        <ele>91</ele>
        <time>2024-10-29T15:59:43.935+00:00</time>
      </trkpt>
      <trkpt lat="49.41054" lon="1.22172">
        <ele>91</ele>
        <time>2024-10-29T15:59:48.299+00:00</time>
      </trkpt>
      <trkpt lat="49.41053" lon="1.22166">
        <ele>91</ele>
        <time>2024-10-29T15:59:52.537+00:00</time>
      </trkpt>
      <trkpt lat="49.41053" lon="1.22158">
        <ele>91</ele>
        <time>2024-10-29T15:59:56.755+00:00</time>
      </trkpt>
      <trkpt lat="49.41053" lon="1.2215">
        <ele>90</ele>
        <time>2024-10-29T16:00:00.857+00:00</time>
      </trkpt>
      <trkpt lat="49.41053" lon="1.22142">
        <ele>90</ele>
        <time>2024-10-29T16:00:05.225+00:00</time>
      </trkpt>
      <trkpt lat="49.41052" lon="1.22134">
        <ele>90</ele>
        <time>2024-10-29T16:00:09.494+00:00</time>
      </trkpt>
      <trkpt lat="49.41051" lon="1.22126">
        <ele>90</ele>
        <time>2024-10-29T16:00:13.777+00:00</time>
      </trkpt>
      <trkpt lat="49.41051" lon="1.22116">
        <ele>89</ele>
        <time>2024-10-29T16:00:17.933+00:00</time>
      </trkpt>
      <trkpt lat="49.41051" lon="1.22108">
        <ele>89</ele>
        <time>2024-10-29T16:00:21.985+00:00</time>
      </trkpt>
      <trkpt lat="49.41052" lon="1.22099">
        <ele>89</ele>
        <time>2024-10-29T16:00:26.441+00:00</time>
      </trkpt>
      <trkpt lat="49.41051" lon="1.22092">
        <ele>88</ele>
        <time>2024-10-29T16:00:30.552+00:00</time>
      </trkpt>
      <trkpt lat="49.4105" lon="1.22084">
        <ele>88</ele>
        <time>2024-10-29T16:00:34.734+00:00</time>
      </trkpt>
      <trkpt lat="49.4105" lon="1.22077">
        <ele>88</ele>
        <time>2024-10-29T16:00:38.986+00:00</time>
      </trkpt>
      <trkpt lat="49.41052" lon="1.2207">
        <ele>88</ele>
        <time>2024-10-29T16:00:43.230+00:00</time>
      </trkpt>
      <trkpt lat="49.41053" lon="1.22064">
        <ele>87</ele>
        <time>2024-10-29T16:00:47.437+00:00</time>
      </trkpt>
      <trkpt lat="49.41053" lon="1.22058">
        <ele>87</ele>
        <time>2024-10-29T16:00:51.987+00:00</time>
      </trkpt>
      <trkpt lat="49.41054" lon="1.2205">
        <ele>87</ele>
        <time>2024-10-29T16:00:56.985+00:00</time>
      </trkpt>
      <trkpt lat="49.41054" lon="1.22043">
        <ele>87</ele>
        <time>2024-10-29T16:01:01.277+00:00</time>
      </trkpt>
      <trkpt lat="49.41055" lon="1.22033">
        <ele>87</ele>
        <time>2024-10-29T16:01:05.460+00:00</time>
      </trkpt>
      <trkpt lat="49.41057" lon="1.22023">
        <ele>87</ele>
        <time>2024-10-29T16:01:09.827+00:00</time>
      </trkpt>
      <trkpt lat="49.41059" lon="1.22015">
        <ele>87</ele>
        <time>2024-10-29T16:01:13.896+00:00</time>
      </trkpt>
      <trkpt lat="49.4106" lon="1.22008">
        <ele>86</ele>
        <time>2024-10-29T16:01:18.110+00:00</time>
      </trkpt>
      <trkpt lat="49.41063" lon="1.22002">
        <ele>86</ele>
        <time>2024-10-29T16:01:22.357+00:00</time>
      </trkpt>
      <trkpt lat="49.41065" lon="1.21996">
        <ele>86</ele>
        <time>2024-10-29T16:01:26.516+00:00</time>
      </trkpt>
      <trkpt lat="49.41068" lon="1.21991">
        <ele>86</ele>
        <time>2024-10-29T16:01:30.901+00:00</time>
      </trkpt>
      <trkpt lat="49.4107" lon="1.21985">
        <ele>88</ele>
        <time>2024-10-29T16:01:34.990+00:00</time>
      </trkpt>
      <trkpt lat="49.41072" lon="1.21977">
        <ele>88</ele>
        <time>2024-10-29T16:01:39.344+00:00</time>
      </trkpt>
      <trkpt lat="49.41074" lon="1.2197">
        <ele>88</ele>
        <time>2024-10-29T16:01:43.537+00:00</time>
      </trkpt>
      <trkpt lat="49.41076" lon="1.21963">
        <ele>88</ele>
        <time>2024-10-29T16:01:47.821+00:00</time>
      </trkpt>
      <trkpt lat="49.41078" lon="1.21955">
        <ele>86</ele>
        <time>2024-10-29T16:01:51.986+00:00</time>
      </trkpt>
      <trkpt lat="49.41081" lon="1.21948">
        <ele>86</ele>
        <time>2024-10-29T16:01:56.345+00:00</time>
      </trkpt>
      <trkpt lat="49.41084" lon="1.21942">
        <ele>86</ele>
        <time>2024-10-29T16:02:00.596+00:00</time>
      </trkpt>
      <trkpt lat="49.41088" lon="1.21937">
        <ele>86</ele>
        <time>2024-10-29T16:02:04.904+00:00</time>
      </trkpt>
      <trkpt lat="49.4109" lon="1.21931">
        <ele>86</ele>
        <time>2024-10-29T16:02:09.176+00:00</time>
      </trkpt>
      <trkpt lat="49.41093" lon="1.21925">
        <ele>85</ele>
        <time>2024-10-29T16:02:13.458+00:00</time>
      </trkpt>
      <trkpt lat="49.41095" lon="1.21919">
        <ele>85</ele>
        <time>2024-10-29T16:02:17.799+00:00</time>
      </trkpt>
      <trkpt lat="49.41098" lon="1.21914">
        <ele>90</ele>
        <time>2024-10-29T16:02:22.175+00:00</time>
      </trkpt>
      <trkpt lat="49.411" lon="1.21906">
        <ele>90</ele>
        <time>2024-10-29T16:02:26.449+00:00</time>
      </trkpt>
      <trkpt lat="49.41101" lon="1.21897">
        <ele>88</ele>
        <time>2024-10-29T16:02:30.667+00:00</time>
      </trkpt>
      <trkpt lat="49.41104" lon="1.21891">
        <ele>88</ele>
        <time>2024-10-29T16:02:34.797+00:00</time>
      </trkpt>
      <trkpt lat="49.41108" lon="1.21885">
        <ele>88</ele>
        <time>2024-10-29T16:02:38.983+00:00</time>
      </trkpt>
      <trkpt lat="49.41111" lon="1.2188">
        <ele>88</ele>
        <time>2024-10-29T16:02:43.315+00:00</time>
      </trkpt>
      <trkpt lat="49.41115" lon="1.21874">
        <ele>85</ele>
        <time>2024-10-29T16:02:47.619+00:00</time>
      </trkpt>
      <trkpt lat="49.41119" lon="1.21869">
        <ele>85</ele>
        <time>2024-10-29T16:02:51.753+00:00</time>
      </trkpt>
      <trkpt lat="49.41123" lon="1.21864">
        <ele>85</ele>
        <time>2024-10-29T16:02:55.981+00:00</time>
      </trkpt>
      <trkpt lat="49.41127" lon="1.21857">
        <ele>88</ele>
        <time>2024-10-29T16:03:00.575+00:00</time>
      </trkpt>
      <trkpt lat="49.41131" lon="1.21852">
        <ele>88</ele>
        <time>2024-10-29T16:03:04.879+00:00</time>
      </trkpt>
      <trkpt lat="49.41134" lon="1.21847">
        <ele>84</ele>
        <time>2024-10-29T16:03:09.345+00:00</time>
      </trkpt>
      <trkpt lat="49.41138" lon="1.21843">
        <ele>84</ele>
        <time>2024-10-29T16:03:13.527+00:00</time>
      </trkpt>
      <trkpt lat="49.41141" lon="1.21838">
        <ele>84</ele>
        <time>2024-10-29T16:03:17.848+00:00</time>
      </trkpt>
      <trkpt lat="49.41144" lon="1.21832">
        <ele>84</ele>
        <time>2024-10-29T16:03:21.984+00:00</time>
      </trkpt>
      <trkpt lat="49.41147" lon="1.21826">
        <ele>84</ele>
        <time>2024-10-29T16:03:26.322+00:00</time>
      </trkpt>
      <trkpt lat="49.4115" lon="1.21822">
        <ele>84</ele>
        <time>2024-10-29T16:03:30.461+00:00</time>
      </trkpt>
      <trkpt lat="49.41155" lon="1.21819">
        <ele>87</ele>
        <time>2024-10-29T16:03:34.913+00:00</time>
      </trkpt>
      <trkpt lat="49.4116" lon="1.21818">
        <ele>83</ele>
        <time>2024-10-29T16:03:39.256+00:00</time>
      </trkpt>
      <trkpt lat="49.41165" lon="1.21817">
        <ele>83</ele>
        <time>2024-10-29T16:03:43.458+00:00</time>
      </trkpt>
      <trkpt lat="49.41169" lon="1.21815">
        <ele>83</ele>
        <time>2024-10-29T16:03:47.797+00:00</time>
      </trkpt>
      <trkpt lat="49.41174" lon="1.21811">
        <ele>83</ele>
        <time>2024-10-29T16:03:52.097+00:00</time>
      </trkpt>
      <trkpt lat="49.41179" lon="1.21808">
        <ele>83</ele>
        <time>2024-10-29T16:03:56.395+00:00</time>
      </trkpt>
      <trkpt lat="49.41183" lon="1.21807">
        <ele>82</ele>
        <time>2024-10-29T16:04:00.650+00:00</time>
      </trkpt>
      <trkpt lat="49.41188" lon="1.21807">
        <ele>82</ele>
        <time>2024-10-29T16:04:04.958+00:00</time>
      </trkpt>
      <trkpt lat="49.41194" lon="1.21804">
        <ele>82</ele>
        <time>2024-10-29T16:04:09.299+00:00</time>
      </trkpt>
      <trkpt lat="49.41199" lon="1.21802">
        <ele>82</ele>
        <time>2024-10-29T16:04:13.334+00:00</time>
      </trkpt>
      <trkpt lat="49.41203" lon="1.21803">
        <ele>82</ele>
        <time>2024-10-29T16:04:17.423+00:00</time>
      </trkpt>
      <trkpt lat="49.41206" lon="1.21805">
        <ele>82</ele>
        <time>2024-10-29T16:04:21.732+00:00</time>
      </trkpt>
      <trkpt lat="49.4121" lon="1.21809">
        <ele>78</ele>
        <time>2024-10-29T16:04:25.798+00:00</time>
      </trkpt>
      <trkpt lat="49.41215" lon="1.21811">
        <ele>78</ele>
        <time>2024-10-29T16:04:30.116+00:00</time>
      </trkpt>
      <trkpt lat="49.4122" lon="1.21814">
        <ele>78</ele>
        <time>2024-10-29T16:04:34.198+00:00</time>
      </trkpt>
      <trkpt lat="49.41227" lon="1.21817">
        <ele>78</ele>
        <time>2024-10-29T16:04:38.492+00:00</time>
      </trkpt>
      <trkpt lat="49.41233" lon="1.21821">
        <ele>82</ele>
        <time>2024-10-29T16:04:42.718+00:00</time>
      </trkpt>
      <trkpt lat="49.41238" lon="1.21825">
        <ele>76</ele>
        <time>2024-10-29T16:04:46.892+00:00</time>
      </trkpt>
      <trkpt lat="49.4124" lon="1.21829">
        <ele>76</ele>
        <time>2024-10-29T16:04:51.141+00:00</time>
      </trkpt>
      <trkpt lat="49.41245" lon="1.21832">
        <ele>76</ele>
        <time>2024-10-29T16:04:55.334+00:00</time>
      </trkpt>
      <trkpt lat="49.41249" lon="1.21836">
        <ele>76</ele>
        <time>2024-10-29T16:04:59.494+00:00</time>
      </trkpt>
      <trkpt lat="49.41253" lon="1.2184">
        <ele>76</ele>
        <time>2024-10-29T16:05:03.714+00:00</time>
      </trkpt>
      <trkpt lat="49.41256" lon="1.21845">
        <ele>76</ele>
        <time>2024-10-29T16:05:07.959+00:00</time>
      </trkpt>
      <trkpt lat="49.41259" lon="1.21851">
        <ele>81</ele>
        <time>2024-10-29T16:05:12.197+00:00</time>
      </trkpt>
      <trkpt lat="49.41263" lon="1.21857">
        <ele>81</ele>
        <time>2024-10-29T16:05:16.459+00:00</time>
      </trkpt>
      <trkpt lat="49.41267" lon="1.21861">
        <ele>78</ele>
        <time>2024-10-29T16:05:20.978+00:00</time>
      </trkpt>
      <trkpt lat="49.41272" lon="1.21865">
        <ele>78</ele>
        <time>2024-10-29T16:05:24.981+00:00</time>
      </trkpt>
      <trkpt lat="49.41275" lon="1.21869">
        <ele>78</ele>
        <time>2024-10-29T16:05:29.152+00:00</time>
      </trkpt>
      <trkpt lat="49.41276" lon="1.21876">
        <ele>82</ele>
        <time>2024-10-29T16:05:33.801+00:00</time>
      </trkpt>
      <trkpt lat="49.41278" lon="1.21881">
        <ele>82</ele>
        <time>2024-10-29T16:05:37.969+00:00</time>
      </trkpt>
      <trkpt lat="49.41282" lon="1.21885">
        <ele>82</ele>
        <time>2024-10-29T16:05:41.983+00:00</time>
      </trkpt>
      <trkpt lat="49.41288" lon="1.21887">
        <ele>82</ele>
        <time>2024-10-29T16:05:45.989+00:00</time>
      </trkpt>
      <trkpt lat="49.41294" lon="1.21889">
        <ele>77</ele>
        <time>2024-10-29T16:05:50.154+00:00</time>
      </trkpt>
      <trkpt lat="49.413" lon="1.21891">
        <ele>77</ele>
        <time>2024-10-29T16:05:54.298+00:00</time>
      </trkpt>
      <trkpt lat="49.41304" lon="1.21894">
        <ele>77</ele>
        <time>2024-10-29T16:05:58.356+00:00</time>
      </trkpt>
      <trkpt lat="49.41309" lon="1.21898">
        <ele>77</ele>
        <time>2024-10-29T16:06:02.514+00:00</time>
      </trkpt>
      <trkpt lat="49.41314" lon="1.219">
        <ele>77</ele>
        <time>2024-10-29T16:06:06.777+00:00</time>
      </trkpt>
      <trkpt lat="49.41318" lon="1.21903">
        <ele>81</ele>
        <time>2024-10-29T16:06:10.843+00:00</time>
      </trkpt>
      <trkpt lat="49.41322" lon="1.21909">
        <ele>76</ele>
        <time>2024-10-29T16:06:14.984+00:00</time>
      </trkpt>
      <trkpt lat="49.41327" lon="1.21913">
        <ele>76</ele>
        <time>2024-10-29T16:06:19.197+00:00</time>
      </trkpt>
      <trkpt lat="49.41331" lon="1.21915">
        <ele>76</ele>
        <time>2024-10-29T16:06:23.325+00:00</time>
      </trkpt>
      <trkpt lat="49.41336" lon="1.21918">
        <ele>76</ele>
        <time>2024-10-29T16:06:27.537+00:00</time>
      </trkpt>
      <trkpt lat="49.41341" lon="1.21923">
        <ele>76</ele>
        <time>2024-10-29T16:06:31.573+00:00</time>
      </trkpt>
      <trkpt lat="49.41346" lon="1.21925">
        <ele>76</ele>
        <time>2024-10-29T16:06:35.879+00:00</time>
      </trkpt>
      <trkpt lat="49.4135" lon="1.21928">
        <ele>74</ele>
        <time>2024-10-29T16:06:39.996+00:00</time>
      </trkpt>
      <trkpt lat="49.41354" lon="1.2193">
        <ele>74</ele>
        <time>2024-10-29T16:06:44.212+00:00</time>
      </trkpt>
      <trkpt lat="49.41359" lon="1.21932">
        <ele>79</ele>
        <time>2024-10-29T16:06:48.249+00:00</time>
      </trkpt>
      <trkpt lat="49.41365" lon="1.21932">
        <ele>79</ele>
        <time>2024-10-29T16:06:52.298+00:00</time>
      </trkpt>
      <trkpt lat="49.4137" lon="1.21933">
        <ele>79</ele>
        <time>2024-10-29T16:06:56.356+00:00</time>
      </trkpt>
      <trkpt lat="49.41373" lon="1.21936">
        <ele>79</ele>
        <time>2024-10-29T16:07:00.572+00:00</time>
      </trkpt>
      <trkpt lat="49.41375" lon="1.2194">
        <ele>75</ele>
        <time>2024-10-29T16:07:04.586+00:00</time>
      </trkpt>
      <trkpt lat="49.4138" lon="1.21944">
        <ele>75</ele>
        <time>2024-10-29T16:07:08.899+00:00</time>
      </trkpt>
      <trkpt lat="49.41386" lon="1.21944">
        <ele>75</ele>
        <time>2024-10-29T16:07:12.993+00:00</time>
      </trkpt>
      <trkpt lat="49.41392" lon="1.21947">
        <ele>75</ele>
        <time>2024-10-29T16:07:17.257+00:00</time>
      </trkpt>
      <trkpt lat="49.41397" lon="1.2195">
        <ele>75</ele>
        <time>2024-10-29T16:07:21.438+00:00</time>
      </trkpt>
      <trkpt lat="49.414" lon="1.21954">
        <ele>75</ele>
        <time>2024-10-29T16:07:25.595+00:00</time>
      </trkpt>
      <trkpt lat="49.41403" lon="1.21956">
        <ele>72</ele>
        <time>2024-10-29T16:07:29.914+00:00</time>
      </trkpt>
      <trkpt lat="49.41407" lon="1.21962">
        <ele>78</ele>
        <time>2024-10-29T16:07:33.986+00:00</time>
      </trkpt>
      <trkpt lat="49.41411" lon="1.21967">
        <ele>78</ele>
        <time>2024-10-29T16:07:38.448+00:00</time>
      </trkpt>
      <trkpt lat="49.41415" lon="1.21969">
        <ele>78</ele>
        <time>2024-10-29T16:07:42.597+00:00</time>
      </trkpt>
      <trkpt lat="49.41421" lon="1.21972">
        <ele>78</ele>
        <time>2024-10-29T16:07:47.219+00:00</time>
      </trkpt>
      <trkpt lat="49.41425" lon="1.21975">
        <ele>78</ele>
        <time>2024-10-29T16:07:51.754+00:00</time>
      </trkpt>
      <trkpt lat="49.41428" lon="1.21979">
        <ele>78</ele>
        <time>2024-10-29T16:07:55.875+00:00</time>
      </trkpt>
      <trkpt lat="49.4143" lon="1.21984">
        <ele>78</ele>
        <time>2024-10-29T16:07:59.985+00:00</time>
      </trkpt>
      <trkpt lat="49.41432" lon="1.2199">
        <ele>79</ele>
        <time>2024-10-29T16:08:04.140+00:00</time>
      </trkpt>
      <trkpt lat="49.41436" lon="1.21995">
        <ele>79</ele>
        <time>2024-10-29T16:08:08.436+00:00</time>
      </trkpt>
      <trkpt lat="49.41441" lon="1.22002">
        <ele>79</ele>
        <time>2024-10-29T16:08:12.618+00:00</time>
      </trkpt>
      <trkpt lat="49.41445" lon="1.22007">
        <ele>79</ele>
        <time>2024-10-29T16:08:16.971+00:00</time>
      </trkpt>
      <trkpt lat="49.4145" lon="1.22011">
        <ele>79</ele>
        <time>2024-10-29T16:08:21.595+00:00</time>
      </trkpt>
      <trkpt lat="49.41454" lon="1.22015">
        <ele>83</ele>
        <time>2024-10-29T16:08:25.776+00:00</time>
      </trkpt>
      <trkpt lat="49.41456" lon="1.22023">
        <ele>83</ele>
        <time>2024-10-29T16:08:34.872+00:00</time>
      </trkpt>
      <trkpt lat="49.41457" lon="1.22024">
        <ele>83</ele>
        <time>2024-10-29T16:08:38.977+00:00</time>
      </trkpt>
      <trkpt lat="49.41457" lon="1.22024">
        <ele>83</ele>
        <time>2024-10-29T16:08:42.979+00:00</time>
      </trkpt>
      <trkpt lat="49.41457" lon="1.22025">
        <ele>83</ele>
        <time>2024-10-29T16:08:46.762+00:00</time>
      </trkpt>
      <trkpt lat="49.4146" lon="1.2203">
        <ele>76</ele>
        <time>2024-10-29T16:08:51.719+00:00</time>
      </trkpt>
    </trkseg>
  </trk>
</gpx>